[[{"header":{"parameterUnit":"m.s-1","parameterCategory":1,"la1":30.6,"la2":29.2853,"lo1":-89.7004,"lo2":-87.6739,"dy":0.0162,"dx":0.0183,"nx":112,"ny":82,"refTime":"2026-02-25T12:00:00:Z","depth":0,"parameterNumber":2,"parameterNumberName":"U-component_of_WINDS"},"data":[0.0,0.0,0.0,0.0,0.0,0.0,0.0,0.0,0.0,0.0,0.0,0.0,0.0,0.0,0.0,0.0,0.0,0.0,0.0,0.0,0.0,0.0,0.0,0.0,0.0,0.0,0.0,0.0,0.0,0.0,0.0,0.0,0.0,0.0,0.0,0.0,0.0,0.0,0.0,0.0,0.0,0.0,0.0,0.0,0.0,0.0,0.0,0.0,0.0,0.0,0.0,0.0,0.0,0.0,0.0,0.0,0.0,0.0,0.0,0.0,0.0,0.0,0.0,0.0,0.0,0.0,0.0,0.0,0.0,0.0,0.0,0.0,0.0,0.0,0.0,0.0,0.0,0.0,0.0,0.0,0.0,0.0,0.0,0.0,0.0,0.0,0.0,0.0,0.0,0.0,-4.8918,-5.3613,-5.9331,-6.2548,-6.1851,-6.1447,-5.8364,-5.161,0.0,0.0,0.0,0.0,0.0,0.0,0.0,0.0,0.0,0.0,0.0,0.0,0.0,0.0,0.0,0.0,0.0,0.0,0.0,0.0,0.0,0.0,0.0,0.0,0.0,0.0,0.0,0.0,0.0,0.0,0.0,0.0,0.0,0.0,0.0,0.0,0.0,0.0,0.0,0.0,0.0,0.0,0.0,0.0,0.0,0.0,0.0,0.0,0.0,0.0,0.0,0.0,0.0,0.0,0.0,0.0,0.0,0.0,0.0,0.0,0.0,0.0,0.0,0.0,0.0,0.0,0.0,0.0,0.0,0.0,0.0,0.0,0.0,0.0,0.0,0.0,0.0,0.0,0.0,0.0,0.0,0.0,0.0,0.0,0.0,0.0,0.0,0.0,0.0,0.0,0.0,0.0,0.0,0.0,0.0,0.0,0.0,0.0,0.0,0.0,0.0,0.0,0.0,0.0,-4.8752,-5.7359,-6.0982,-6.2743,-6.2658,-6.0725,-5.7643,-5.3093,0.0,0.0,0.0,0.0,0.0,0.0,0.0,0.0,0.0,0.0,0.0,0.0,0.0,0.0,0.0,0.0,0.0,0.0,0.0,0.0,0.0,0.0,0.0,0.0,0.0,0.0,0.0,0.0,0.0,0.0,0.0,0.0,0.0,0.0,0.0,0.0,0.0,0.0,0.0,0.0,0.0,0.0,0.0,0.0,0.0,0.0,0.0,0.0,0.0,0.0,0.0,0.0,0.0,0.0,0.0,0.0,0.0,0.0,0.0,0.0,0.0,0.0,0.0,0.0,0.0,0.0,0.0,0.0,0.0,0.0,0.0,0.0,0.0,0.0,0.0,0.0,0.0,0.0,0.0,0.0,0.0,0.0,0.0,0.0,0.0,0.0,0.0,0.0,0.0,0.0,0.0,0.0,0.0,0.0,0.0,0.0,0.0,0.0,0.0,0.0,0.0,0.0,0.0,-4.855,-5.214,-5.9098,-6.1606,-6.2622,-6.2181,-6.075,-5.7776,-5.2858,-4.9077,0.0,0.0,0.0,0.0,0.0,0.0,0.0,0.0,0.0,0.0,0.0,0.0,0.0,0.0,0.0,0.0,0.0,0.0,0.0,0.0,0.0,0.0,0.0,0.0,0.0,0.0,0.0,0.0,0.0,0.0,0.0,0.0,0.0,0.0,0.0,0.0,0.0,0.0,0.0,0.0,0.0,0.0,0.0,0.0,0.0,0.0,0.0,0.0,0.0,0.0,0.0,0.0,0.0,0.0,0.0,0.0,0.0,0.0,0.0,0.0,0.0,0.0,0.0,0.0,0.0,0.0,0.0,0.0,0.0,0.0,0.0,0.0,0.0,0.0,0.0,0.0,0.0,0.0,0.0,0.0,0.0,0.0,0.0,0.0,0.0,0.0,0.0,0.0,0.0,0.0,0.0,0.0,0.0,0.0,0.0,0.0,0.0,0.0,0.0,0.0,0.0,0.0,-5.2894,-5.5904,-5.9979,-6.1667,-6.2291,-6.163,-5.9979,-5.7005,-5.2307,-4.7462,0.0,0.0,0.0,0.0,0.0,0.0,0.0,0.0,0.0,0.0,0.0,0.0,0.0,0.0,0.0,0.0,0.0,0.0,0.0,0.0,0.0,0.0,0.0,0.0,0.0,0.0,0.0,0.0,0.0,0.0,0.0,0.0,0.0,0.0,0.0,0.0,0.0,0.0,0.0,0.0,0.0,0.0,0.0,0.0,0.0,0.0,0.0,0.0,0.0,0.0,0.0,0.0,0.0,0.0,0.0,0.0,0.0,0.0,0.0,0.0,0.0,0.0,0.0,0.0,0.0,0.0,0.0,0.0,0.0,0.0,0.0,0.0,0.0,0.0,0.0,0.0,0.0,0.0,0.0,0.0,0.0,0.0,0.0,0.0,0.0,0.0,0.0,0.0,0.0,0.0,0.0,0.0,0.0,0.0,0.0,0.0,0.0,0.0,0.0,0.0,0.0,0.0,-5.3445,-5.8364,-6.0199,-6.1153,-6.1667,-6.1594,-5.7446,-5.3995,-5.2123,-4.5369,0.0,0.0,0.0,0.0,0.0,0.0,0.0,0.0,0.0,0.0,0.0,0.0,0.0,0.0,0.0,0.0,0.0,0.0,0.0,0.0,0.0,0.0,0.0,0.0,0.0,0.0,0.0,0.0,0.0,0.0,0.0,0.0,0.0,0.0,0.0,0.0,0.0,0.0,0.0,0.0,0.0,0.0,0.0,0.0,0.0,0.0,0.0,0.0,0.0,0.0,0.0,0.0,0.0,0.0,0.0,0.0,0.0,0.0,0.0,0.0,0.0,0.0,0.0,0.0,0.0,0.0,0.0,0.0,0.0,0.0,0.0,0.0,0.0,0.0,0.0,0.0,0.0,0.0,0.0,0.0,0.0,0.0,0.0,0.0,0.0,0.0,0.0,0.0,0.0,0.0,0.0,0.0,0.0,0.0,0.0,0.0,0.0,0.0,0.0,0.0,0.0,0.0,-5.205,-5.6198,-5.9294,-6.0382,-6.0639,-6.0162,-5.7997,-5.4876,-5.0692,0.0,0.0,0.0,0.0,0.0,0.0,0.0,0.0,0.0,0.0,0.0,0.0,0.0,0.0,0.0,0.0,0.0,0.0,0.0,0.0,0.0,0.0,0.0,0.0,0.0,0.0,0.0,0.0,0.0,0.0,0.0,0.0,0.0,0.0,0.0,0.0,0.0,0.0,0.0,0.0,0.0,0.0,0.0,0.0,0.0,0.0,0.0,0.0,0.0,0.0,0.0,0.0,0.0,0.0,0.0,0.0,0.0,0.0,0.0,0.0,0.0,0.0,0.0,0.0,0.0,0.0,0.0,0.0,0.0,0.0,0.0,0.0,0.0,0.0,0.0,0.0,0.0,0.0,0.0,0.0,0.0,0.0,0.0,0.0,0.0,0.0,0.0,0.0,0.0,0.0,0.0,0.0,0.0,0.0,0.0,0.0,0.0,0.0,0.0,0.0,0.0,0.0,-4.7535,-5.1867,-5.5684,-5.9184,-6.0089,-6.0199,-5.9648,-5.7666,-5.4363,-4.9444,0.0,0.0,0.0,0.0,0.0,0.0,0.0,0.0,0.0,0.0,0.0,0.0,0.0,0.0,0.0,0.0,0.0,0.0,0.0,0.0,0.0,0.0,0.0,0.0,0.0,0.0,0.0,0.0,0.0,0.0,0.0,0.0,0.0,0.0,0.0,0.0,0.0,0.0,0.0,0.0,0.0,0.0,0.0,0.0,0.0,0.0,0.0,0.0,0.0,0.0,0.0,0.0,0.0,0.0,0.0,0.0,0.0,0.0,0.0,0.0,0.0,0.0,0.0,0.0,0.0,0.0,0.0,0.0,0.0,0.0,0.0,0.0,0.0,0.0,0.0,0.0,0.0,0.0,0.0,0.0,0.0,0.0,0.0,0.0,0.0,0.0,0.0,0.0,0.0,0.0,0.0,0.0,0.0,0.0,0.0,0.0,0.0,0.0,0.0,0.0,0.0,0.0,-4.7682,-5.3298,-5.774,-6.0162,-6.0419,-6.0419,-6.0382,-5.6014,-5.183,0.0,0.0,0.0,0.0,0.0,0.0,0.0,0.0,0.0,0.0,0.0,0.0,0.0,0.0,0.0,0.0,0.0,0.0,0.0,0.0,0.0,0.0,0.0,0.0,0.0,0.0,0.0,0.0,0.0,0.0,0.0,0.0,0.0,0.0,0.0,0.0,0.0,0.0,0.0,0.0,0.0,0.0,0.0,0.0,0.0,0.0,0.0,0.0,0.0,0.0,0.0,0.0,0.0,0.0,0.0,0.0,0.0,0.0,0.0,0.0,0.0,0.0,0.0,0.0,0.0,0.0,0.0,0.0,0.0,0.0,0.0,0.0,0.0,0.0,0.0,0.0,0.0,0.0,0.0,0.0,0.0,0.0,0.0,0.0,0.0,0.0,0.0,0.0,0.0,0.0,0.0,0.0,0.0,0.0,0.0,0.0,0.0,0.0,0.0,0.0,0.0,0.0,0.0,-4.8526,-5.3665,-5.774,-6.0162,-6.0419,-6.0162,-5.9588,-5.7203,-5.335,-4.781,0.0,0.0,0.0,0.0,0.0,0.0,0.0,0.0,0.0,0.0,0.0,0.0,0.0,0.0,0.0,0.0,0.0,0.0,0.0,0.0,0.0,0.0,0.0,0.0,0.0,0.0,0.0,0.0,0.0,0.0,0.0,0.0,0.0,0.0,0.0,0.0,0.0,0.0,0.0,0.0,0.0,0.0,0.0,0.0,0.0,0.0,0.0,0.0,0.0,0.0,0.0,0.0,0.0,0.0,0.0,0.0,0.0,0.0,0.0,0.0,0.0,0.0,0.0,0.0,0.0,0.0,0.0,0.0,0.0,0.0,0.0,0.0,0.0,0.0,0.0,0.0,0.0,0.0,0.0,0.0,0.0,0.0,0.0,0.0,0.0,0.0,0.0,0.0,0.0,0.0,0.0,0.0,0.0,0.0,0.0,0.0,0.0,0.0,0.0,0.0,0.0,0.0,-4.8839,-5.3812,-5.785,-6.0603,-6.0603,-6.0199,-5.9722,-5.7923,-5.4011,-4.7516,0.0,0.0,0.0,0.0,0.0,0.0,0.0,0.0,0.0,0.0,0.0,0.0,0.0,0.0,0.0,0.0,0.0,0.0,0.0,0.0,0.0,0.0,0.0,0.0,0.0,0.0,0.0,0.0,0.0,0.0,0.0,0.0,0.0,0.0,0.0,0.0,0.0,0.0,0.0,0.0,0.0,0.0,0.0,0.0,0.0,0.0,0.0,0.0,0.0,0.0,0.0,0.0,0.0,0.0,0.0,0.0,0.0,0.0,0.0,0.0,0.0,0.0,0.0,0.0,0.0,0.0,0.0,0.0,0.0,0.0,0.0,0.0,0.0,0.0,0.0,0.0,0.0,0.0,0.0,0.0,0.0,0.0,0.0,0.0,0.0,0.0,0.0,0.0,0.0,0.0,0.0,0.0,0.0,0.0,0.0,0.0,0.0,0.0,0.0,0.0,0.0,0.0,-4.8783,-5.3849,-5.8107,-6.1153,-6.0896,-6.0456,-6.0309,-5.8143,-5.4106,-4.7736,0.0,0.0,0.0,0.0,0.0,0.0,0.0,0.0,0.0,0.0,0.0,0.0,0.0,0.0,0.0,0.0,0.0,0.0,0.0,0.0,0.0,0.0,0.0,0.0,0.0,0.0,0.0,0.0,0.0,0.0,0.0,0.0,0.0,0.0,0.0,0.0,0.0,0.0,0.0,0.0,0.0,0.0,0.0,0.0,0.0,0.0,0.0,0.0,0.0,0.0,0.0,0.0,0.0,0.0,0.0,0.0,0.0,0.0,0.0,0.0,-5.7691,-5.4873,0.0,0.0,0.0,0.0,0.0,0.0,0.0,0.0,0.0,0.0,0.0,0.0,0.0,0.0,0.0,0.0,0.0,0.0,0.0,0.0,0.0,0.0,0.0,0.0,0.0,0.0,0.0,0.0,0.0,0.0,0.0,0.0,0.0,0.0,0.0,0.0,0.0,0.0,0.0,0.0,-4.8839,-5.4363,-5.8474,-6.0456,-6.108,-6.0823,-5.9551,-5.7813,-5.4583,-4.937,-4.4635,0.0,0.0,0.0,0.0,0.0,0.0,0.0,0.0,0.0,0.0,0.0,0.0,0.0,0.0,0.0,0.0,0.0,0.0,0.0,0.0,0.0,0.0,0.0,0.0,0.0,0.0,0.0,0.0,0.0,0.0,0.0,0.0,0.0,0.0,0.0,0.0,0.0,0.0,0.0,0.0,0.0,0.0,0.0,0.0,0.0,0.0,0.0,0.0,0.0,0.0,0.0,0.0,0.0,0.0,0.0,0.0,0.0,0.0,0.0,-6.2368,-5.9684,0.0,0.0,0.0,0.0,0.0,0.0,0.0,0.0,0.0,0.0,0.0,0.0,0.0,0.0,0.0,0.0,0.0,0.0,0.0,0.0,0.0,0.0,0.0,0.0,0.0,0.0,0.0,0.0,0.0,0.0,0.0,0.0,0.0,0.0,0.0,0.0,0.0,0.0,0.0,0.0,-4.937,-5.4399,-5.818,-6.0199,-6.0419,-6.0126,-5.9258,-5.7373,-5.4473,-5.0435,-4.6324,0.0,0.0,0.0,0.0,0.0,0.0,0.0,0.0,0.0,0.0,0.0,0.0,0.0,0.0,0.0,0.0,0.0,0.0,0.0,0.0,0.0,0.0,0.0,0.0,0.0,0.0,0.0,0.0,0.0,0.0,0.0,0.0,0.0,0.0,0.0,0.0,0.0,0.0,0.0,0.0,0.0,0.0,0.0,0.0,0.0,0.0,0.0,0.0,0.0,0.0,0.0,0.0,0.0,-6.7835,-6.8766,-6.9583,-7.0256,-7.0624,-7.0605,-6.8232,-6.6083,-6.4002,-6.1188,0.0,0.0,0.0,0.0,0.0,0.0,0.0,0.0,0.0,0.0,0.0,0.0,0.0,0.0,0.0,0.0,0.0,0.0,0.0,0.0,0.0,0.0,-5.2601,-5.3115,-5.4876,-5.4473,-4.7352,0.0,0.0,0.0,0.0,0.0,0.0,0.0,0.0,0.0,0.0,0.0,-4.9994,-5.4326,-5.7629,-5.9758,-5.9515,-5.9148,-5.9001,-5.6895,-5.4399,-5.161,-4.8196,-4.4415,0.0,0.0,0.0,0.0,0.0,0.0,0.0,0.0,0.0,0.0,0.0,0.0,0.0,0.0,0.0,0.0,0.0,0.0,0.0,0.0,0.0,0.0,0.0,0.0,0.0,0.0,0.0,0.0,0.0,0.0,0.0,0.0,-5.7934,-5.6791,0.0,0.0,0.0,0.0,0.0,0.0,0.0,0.0,0.0,0.0,0.0,0.0,0.0,-6.7218,-6.9585,-7.2957,-7.4732,-7.4867,-7.7376,-7.799,-7.6888,-7.7,-7.7446,-7.8106,-7.8299,0.0,-6.7011,-6.5198,0.0,0.0,0.0,0.0,0.0,0.0,0.0,0.0,0.0,0.0,0.0,0.0,0.0,0.0,0.0,0.0,0.0,0.0,0.0,0.0,0.0,0.0,-5.8988,-5.8377,-5.9024,-5.8914,-5.5721,-5.0141,-4.4892,-4.2066,-3.9255,-3.667,0.0,0.0,0.0,0.0,0.0,0.0,-5.0141,-5.4326,-5.7189,-5.8217,-5.8877,-5.8914,-5.8217,-5.6565,-5.5097,-5.3995,-5.0178,-4.7058,-4.5039,-4.0598,0.0,0.0,0.0,0.0,0.0,0.0,0.0,0.0,0.0,0.0,0.0,0.0,0.0,0.0,0.0,0.0,0.0,0.0,0.0,0.0,0.0,0.0,0.0,0.0,0.0,0.0,0.0,0.0,0.0,-5.6242,-5.9627,-5.7934,-5.9742,-5.955,0.0,0.0,0.0,0.0,0.0,0.0,0.0,0.0,0.0,-6.9475,-7.1245,-7.3183,-7.5365,-7.7433,-7.852,-7.8727,-8.0379,-8.0814,-8.0192,-8.1181,-8.1557,-8.1444,-8.2233,-7.9454,-7.4067,-7.0992,-6.6746,-6.1765,0.0,0.0,0.0,0.0,-5.6566,-5.6725,-6.01,-6.0663,-5.9641,-5.7876,0.0,0.0,0.0,0.0,0.0,0.0,0.0,-5.0949,-5.3922,-5.6859,-5.9318,-6.0309,-6.1153,-6.1337,-5.9832,-5.6271,-5.1867,-4.6691,-4.4929,-4.2633,-3.7331,-3.6853,0.0,0.0,0.0,-4.6434,-5.0912,-5.4216,-5.6602,-5.785,-5.8327,-5.8217,-5.7409,-5.6271,-5.506,-5.3812,-5.1206,-4.8967,-4.7315,-4.3938,-4.0508,0.0,0.0,0.0,0.0,0.0,0.0,0.0,0.0,0.0,0.0,0.0,0.0,0.0,0.0,0.0,0.0,0.0,0.0,0.0,0.0,0.0,0.0,0.0,0.0,0.0,0.0,0.0,0.0,-5.8319,-6.1897,-5.955,-6.3012,-6.3397,0.0,0.0,0.0,0.0,0.0,0.0,-6.6744,-6.8667,-7.1475,-7.5322,-7.6861,-7.8414,-8.0083,-8.0714,-8.1098,-8.1279,-8.1903,-8.2058,-8.1876,-8.3209,-8.3342,-8.2608,-8.3273,-8.2021,-7.921,-7.5657,-7.1274,-6.6502,-6.306,-6.1094,-6.032,-6.1606,-6.1661,-6.1667,-6.5925,-6.6623,-6.5191,-6.2548,-6.0419,-5.7923,-5.2674,0.0,0.0,0.0,0.0,-5.3482,-5.7079,-5.8621,-5.9685,-6.1484,-6.2365,-6.2585,-6.1777,-6.0493,-5.7717,-5.1646,-5.0325,-4.8178,-4.1679,-4.1222,0.0,-4.1222,-4.4415,-4.8233,-5.2123,-5.4363,-5.6124,-5.7556,-5.7703,-5.7373,-5.6565,-5.5757,-5.4693,-5.3277,-5.1683,-5.0141,-4.8673,-4.6507,-4.3644,-4.001,0.0,0.0,0.0,0.0,0.0,0.0,0.0,0.0,0.0,0.0,0.0,0.0,0.0,0.0,0.0,0.0,0.0,0.0,0.0,0.0,0.0,0.0,0.0,0.0,0.0,0.0,0.0,0.0,0.0,-6.2409,-6.7705,0.0,0.0,0.0,0.0,-6.4089,-6.659,-6.9513,-7.2846,-7.5438,-7.7977,-8.0631,-8.1554,-8.2439,-8.3346,-8.3407,-8.3445,-8.3429,-8.3506,-8.319,-8.2543,-8.2658,-8.2326,-8.1764,-8.1802,-8.0969,-7.9369,-7.7595,-7.4566,-7.077,-6.8265,-6.6796,-6.5999,-6.5327,-6.5547,-6.6182,-6.6476,-6.6512,-6.6659,-6.7981,-6.5228,-6.108,-5.9184,-5.5955,0.0,0.0,-5.7042,-5.8217,-6.0713,-6.1961,-6.256,-6.2732,-6.2743,-6.2585,-6.1777,-6.0933,-5.9575,-5.6895,-5.3922,-5.1242,-4.9224,0.0,-4.6966,-4.7719,-4.871,-5.0602,-5.3849,-5.506,-5.5904,-5.6785,-5.6859,-5.6528,-5.5721,-5.4913,-5.4106,-5.324,-5.1683,-5.0398,-4.9574,-4.7902,-4.581,-4.3331,-3.9328,0.0,0.0,0.0,0.0,0.0,0.0,0.0,0.0,0.0,0.0,0.0,0.0,0.0,0.0,0.0,0.0,0.0,0.0,0.0,0.0,0.0,0.0,0.0,0.0,0.0,0.0,0.0,0.0,-6.7167,-7.2014,0.0,-6.8282,-6.8282,-6.909,-7.0244,-7.2706,-7.5361,-7.8246,-7.9746,-8.117,-8.267,-8.2978,-8.3285,-8.3593,-8.3016,-8.2747,-8.2747,-8.2747,-8.2358,-8.1653,-8.2744,-8.2588,-8.1554,-8.2086,-8.1245,-7.9481,-7.8885,-7.6959,-7.4147,-7.1725,-7.0624,-7.0257,-6.9486,-6.9339,-6.9669,-7.0183,-7.0036,-6.9339,-6.7834,-6.5118,-6.2291,-6.1704,-6.0505,-5.9685,-6.1117,-6.1704,-6.2108,-6.2989,-6.3429,-6.3503,-6.2952,-6.278,-6.2707,-6.2438,-6.1337,-6.0162,-5.9281,-5.6932,-5.3922,-5.0198,-5.0398,-5.0231,-4.7883,-4.9591,-5.1756,-5.3408,-5.4326,-5.5133,-5.5941,-5.6014,-5.5684,-5.4913,-5.4106,-5.3298,-5.2491,-5.0912,-4.9904,-4.961,-4.8489,-4.6764,-4.4305,-4.1846,-3.7955,0.0,0.0,0.0,0.0,0.0,0.0,0.0,0.0,0.0,0.0,0.0,0.0,0.0,0.0,0.0,0.0,0.0,0.0,0.0,0.0,0.0,0.0,0.0,0.0,0.0,-6.5974,-7.086,-7.0591,-7.5553,-7.7323,-7.3014,-7.3937,-7.513,-7.6015,-7.813,-8.0169,-8.1862,-8.2747,-8.3324,-8.3593,-8.3324,-8.317,-8.317,-8.2324,-8.19,-8.19,-8.19,-8.1513,-8.0788,-8.1918,-8.1538,-7.9968,-8.0558,-7.9714,-7.7942,-7.7942,-7.7074,-7.5542,-7.3927,-7.3303,-7.3193,-7.2129,-7.1725,-7.1798,-7.2312,-7.1982,-7.0889,-6.8495,-6.6256,-6.442,-6.4127,-6.387,-6.3833,-6.4677,-6.4897,-6.4861,-6.4567,-6.4494,-6.4237,-6.3099,-6.278,-6.278,-6.278,-6.1557,-6.0419,-6.0419,-5.8474,-5.5794,-5.2564,-5.3115,-5.3004,-5.0011,-5.1426,-5.3004,-5.3555,-5.4069,-5.4583,-5.5133,-5.5207,-5.4766,-5.3665,-5.2858,-5.205,-5.1242,-4.9664,-4.8746,-4.8746,-4.7682,-4.6214,-4.4342,-4.2176,-3.8465,-3.3121,0.0,0.0,0.0,0.0,0.0,0.0,0.0,0.0,0.0,0.0,0.0,0.0,0.0,0.0,0.0,0.0,0.0,0.0,0.0,0.0,0.0,0.0,0.0,-6.3358,-6.9321,-7.3322,-7.2552,-7.8323,-8.0785,-7.6669,-7.8477,-8.0285,-8.1093,-8.267,-8.3593,-8.3593,-8.4362,-8.4439,-8.3593,-8.2708,-8.2247,-8.2247,-8.1477,-8.1093,-8.1093,-8.1054,-8.0711,-8.0048,-8.0048,-7.8917,-7.7069,-7.7069,-7.6255,-7.4918,-7.4918,-7.4918,-7.4918,-7.4882,-7.4882,-7.4698,-7.3083,-7.2496,-7.2496,-7.2496,-7.1982,-7.1138,-7.0367,-6.9009,-6.754,-6.6769,-6.5999,-6.5558,-6.6329,-6.6549,-6.6366,-6.5558,-6.5338,-6.4897,-6.3246,-6.2817,-6.278,-6.278,-6.1557,-6.0419,-6.0419,-5.8474,-5.6822,-5.6822,-5.6161,-5.5354,-5.4509,-5.4399,0.0,-5.4363,-5.4363,-5.4363,-5.4363,-5.4363,-5.3739,-5.216,-5.1259,-5.0415,-4.9627,-4.7974,-4.7038,-4.7038,-4.5572,-4.4325,-4.3499,-4.0292,-3.7202,-3.4255,0.0,0.0,0.0,0.0,0.0,0.0,0.0,0.0,0.0,0.0,0.0,0.0,0.0,0.0,0.0,0.0,0.0,0.0,0.0,0.0,0.0,-6.1743,-6.5359,-6.6821,-7.236,-7.6861,-7.8477,-8.1939,-8.3747,-8.2554,-8.2516,-8.2631,-8.2901,-8.3324,-8.3593,-8.3593,-8.3208,-8.2901,-8.267,-8.1862,-8.1439,-8.1439,-8.1208,-8.1093,-8.1093,-8.0477,-7.9829,-7.919,-7.8618,-7.7576,-7.6212,-7.6212,-7.5708,-7.4918,-7.4918,-7.4918,-7.4845,-7.4258,-7.4037,-7.3891,-7.2899,-7.2496,-7.2496,-7.2496,-7.1578,-7.0403,-7.0183,-6.9009,-6.765,-6.743,-6.721,-6.71,-6.7283,-6.7357,-6.7173,-6.6366,-6.5742,-6.5044,-6.398,-6.3282,-6.278,-6.278,-6.1557,-6.0419,-6.0419,-5.8914,-5.7483,-5.6895,-5.6638,-5.6014,-5.462,-5.4399,-5.4179,-5.3592,-5.3555,-5.3555,-5.3555,-5.3555,-5.3371,-5.2931,-5.1143,-4.9764,-4.8986,-4.6953,-4.5795,-4.5795,-4.5366,-4.4506,-4.3166,-3.9418,-3.6808,0.0,0.0,0.0,0.0,0.0,0.0,0.0,0.0,0.0,0.0,0.0,0.0,0.0,0.0,0.0,0.0,0.0,0.0,0.0,0.0,0.0,0.0,-6.6051,-6.9898,-7.2283,-7.6245,-7.9708,-8.19,-8.4055,-8.5401,-8.5401,-8.4632,-8.4132,-8.4132,-8.3824,-8.3439,-8.3054,-8.2593,-8.2131,-8.1823,-8.1323,-8.1093,-8.1093,-8.0746,-8.0554,-8.0554,-7.9669,-7.8824,-7.7941,-7.7486,-7.6444,-7.4977,-7.4977,-7.4579,-7.3891,-7.3891,-7.3891,-7.3891,0.0,0.0,0.0,0.0,-7.2496,-7.2496,-7.2496,-7.1908,-7.0991,-7.033,-6.9449,-6.8568,-6.7907,-6.7687,-6.7687,-6.7687,-6.7687,-6.743,-6.6292,-6.5668,-6.5007,-6.3833,-6.3172,-6.278,-6.278,-6.1557,-6.0419,-6.0419,-5.9098,0.0,-5.7373,-5.7299,-5.6859,-5.5611,-5.5133,-5.462,-5.3812,-5.3156,-5.2872,-5.3182,-5.268,-5.2295,-5.2251,-5.0164,0.0,0.0,0.0,-4.4478,-4.3806,-4.3771,0.0,0.0,0.0,0.0,0.0,0.0,0.0,0.0,-3.5199,-3.436,0.0,0.0,0.0,0.0,0.0,0.0,0.0,0.0,0.0,0.0,0.0,0.0,0.0,0.0,0.0,0.0,-7.0514,-7.4976,-7.8323,-8.0285,-8.1939,-8.3401,-8.5093,-8.6055,-8.5978,-8.5324,-8.4824,-8.4632,-8.3901,-8.3093,-8.2208,-8.217,0.0,0.0,0.0,-8.1054,-8.0939,-8.0208,-7.9746,-7.9631,-7.8784,-7.7712,-7.6557,-7.6482,-7.5384,-7.356,-7.356,-7.3156,-7.2496,-7.2496,-7.2496,-7.2569,-7.3303,-7.356,-7.3487,-7.2753,-7.2496,-7.2496,-7.2496,0.0,0.0,-7.055,-6.9963,-6.9559,-6.8128,-6.7687,-6.7687,-6.7687,-6.7687,-6.7357,-6.5925,-6.5448,-6.4934,-6.3441,-6.2927,-6.278,-6.278,-6.163,-6.0529,-6.0419,-5.9171,-5.8107,-5.8033,-5.7997,-5.774,-5.6932,-5.6198,-5.539,-5.4509,-5.3122,-5.249,-5.3124,-5.1922,0.0,-5.1032,-4.8936,-4.7576,-4.7505,-4.5234,-4.33,-4.193,-4.1894,-4.1859,-4.1776,-4.1776,-4.2172,-4.299,-4.3558,-4.3196,-4.195,-3.7492,-3.5864,0.0,0.0,0.0,0.0,0.0,0.0,0.0,0.0,0.0,0.0,0.0,0.0,0.0,0.0,0.0,-6.8205,-7.2668,-7.6707,-8.0131,-8.2054,-8.3247,-8.3555,-8.5093,-8.5863,-8.5209,-8.4978,-8.4324,-8.2901,-8.2631,-8.217,-8.1362,-8.1323,-8.1246,-8.1093,-8.1093,-8.0746,-8.0054,-7.99,-7.9438,-7.8746,-7.79,0.0,-7.5711,-7.5048,-7.4038,-7.2716,-7.2716,-7.2642,-7.2496,-7.2496,-7.2496,-7.2532,-7.2679,-7.2716,-7.2716,-7.2569,-7.2496,-7.2496,-7.2496,-7.1651,-7.0513,-7.0183,-6.9229,-6.8091,-6.7797,-6.7687,0.0,-6.7687,-6.7687,-6.7614,-6.732,-6.6256,-6.5228,-6.4897,-6.3796,-6.278,-6.278,-6.2071,-6.119,-6.0529,-5.9612,-5.8767,-5.8107,-5.7997,-5.774,-5.6932,-5.6675,-5.6051,-5.4583,-5.3631,-5.3093,-5.3198,-5.1922,-5.1297,-5.1849,-4.9346,-4.75,-4.6899,-4.4767,-4.3405,-4.3072,-4.3072,-4.2765,-4.2211,-4.2176,-4.1989,-4.1588,-4.2296,-4.25,-4.2226,-4.1499,-4.0771,0.0,0.0,0.0,0.0,0.0,0.0,0.0,0.0,0.0,0.0,0.0,-5.6665,-5.9627,0.0,-6.6898,-7.2014,-7.4976,-7.7707,-8.0669,-8.217,-8.3247,-8.4132,-8.4978,-8.5363,-8.4939,-8.4132,-8.3247,-8.2362,-8.1939,-8.1516,-8.1131,-8.0708,-8.0439,-8.0439,-8.0015,-7.9592,-7.9131,-7.8746,-7.8323,-7.79,-7.7053,-7.6029,-7.4881,-7.4482,-7.3664,-7.2496,-7.2496,-7.2496,-7.2496,-7.2496,-7.2496,-7.2496,-7.2496,-7.2496,-7.2496,-7.2496,-7.2496,-7.2496,-7.2496,-7.1982,-7.1174,-7.0367,-6.9559,-6.8752,-6.7944,-6.7687,-6.7687,-6.7687,-6.7687,-6.7614,-6.7173,-6.6219,-6.5191,-6.4787,-6.3723,-6.278,-6.278,-6.2181,-6.1374,-6.0566,-5.9758,-5.8927,-5.8143,-5.7703,-5.7304,-5.6916,-5.6836,-5.6081,-5.4134,-5.325,-5.2637,-5.2197,-5.0876,-5.0342,-5.0972,-4.9077,-4.7364,-4.6261,-4.5184,-4.4215,-4.3409,-4.3375,-4.3234,-4.2861,-4.2861,-4.2861,-4.2895,-4.3295,-4.3464,-4.3464,-4.3623,-4.3141,0.0,0.0,0.0,0.0,0.0,0.0,0.0,0.0,-5.4241,-5.628,-5.8627,-6.1358,-6.4936,-6.709,-7.009,-7.5399,-7.6976,-7.84,-8.0977,-8.19,-8.2824,-8.4247,-8.4555,-8.4593,-8.4401,-8.3131,-8.217,-8.1823,-8.1208,-8.0785,-8.0592,-7.9939,-7.9554,-7.9554,-7.8861,-7.84,-7.8246,-7.763,-7.7207,-7.7053,-7.6209,-7.5292,-7.4293,-7.4183,-7.3541,-7.2496,-7.2496,-7.2496,-7.2496,-7.2496,-7.2496,-7.2496,-7.2496,-7.2496,-7.2496,-7.2496,-7.2496,-7.2496,-7.2496,-7.2422,-7.2018,-7.055,-7.0,-6.9596,-6.8128,-6.7687,-6.7687,-6.7687,-6.7687,-6.754,-6.688,-6.6145,-6.5338,-6.453,-6.3686,-6.3025,-6.2842,-6.2291,-6.1557,-6.0603,-5.9905,-5.9134,-5.818,-5.7498,-5.7065,-5.6912,-5.6855,-5.6055,-5.3904,-5.3096,-5.2368,-5.1431,-5.0165,-4.9512,-4.9768,-4.8621,-4.7361,-4.6007,-4.5771,-4.5162,-4.3882,-4.3713,-4.3639,-4.3639,-4.3639,-4.3944,-4.4615,-4.4615,-4.4615,-4.4615,-4.4615,-4.4248,-5.1594,-4.9897,-4.98,-5.1135,-5.2115,-5.4357,0.0,0.0,-6.0704,-6.3974,-6.6051,-6.7667,-6.8898,-7.1129,-7.3745,-7.6669,-7.7823,-7.9246,-8.1823,-8.2247,-8.2362,-8.2554,-8.3247,-8.3439,-8.267,-8.2401,-8.167,-8.0208,-8.0015,-7.9592,-7.8823,-7.8707,-7.8631,-7.8631,-7.8554,-7.8169,-7.7438,-7.7323,-7.6899,-7.613,-7.5485,-7.4886,-7.4271,-7.3747,-7.3119,-7.2496,-7.2496,-7.2496,-7.2496,-7.2496,-7.2496,-7.2496,-7.2496,-7.2496,-7.2496,-7.2496,-7.2496,-7.2496,-7.2496,-7.2055,-7.1284,-7.0403,-6.9633,-6.8862,-6.7944,-6.7687,-6.7687,-6.7687,-6.7687,-6.7677,-6.7577,-6.6953,-6.6145,-6.5375,-6.453,-6.3723,-6.2989,-6.2732,-6.2218,-6.0713,-6.0346,-5.9795,-5.8253,-5.795,-5.7655,-5.6989,-5.6891,-5.6263,-5.4611,-5.4373,-5.3738,-5.2245,-5.1352,-5.0355,-4.9118,-4.8314,-4.7564,-4.6718,-4.6075,-4.5635,-4.5466,-4.479,-4.4479,-4.4479,-4.4479,-4.4513,-4.4615,-4.4615,-4.4615,-4.4615,-4.4615,-4.4547,-5.5992,-5.47,-5.4429,0.0,-5.8088,-6.0089,-6.3935,-6.4628,-6.5166,-6.7628,-6.9436,-7.0898,-7.1745,-7.3168,-7.5014,-7.7592,-7.8284,-7.9208,-8.1323,-8.117,-8.0669,-8.0131,-8.04,-8.09,-8.1554,-8.1131,-8.0554,-7.9862,-7.9823,-7.9438,-7.8554,-7.8054,-7.7784,-7.7784,-7.7323,-7.6861,-7.6553,-7.6553,-7.6361,-7.5976,-7.5396,-7.4828,-7.4271,-7.3188,-7.214,-7.1101,-7.1101,-7.1358,-7.1798,-7.1798,-7.2092,-7.2496,-7.2496,-7.2496,-7.2496,-7.2496,-7.2496,-7.2496,-7.2496,-7.2275,-7.1798,-7.0513,-6.9853,-6.9376,-6.8091,-6.7687,-6.7687,-6.7687,-6.7687,-6.7687,-6.7687,-6.71,-6.6402,-6.6072,-6.5044,-6.398,-6.3649,-6.2793,-6.1749,-6.0622,-6.0005,-5.935,-5.8199,-5.7242,-5.6711,-5.6887,-5.7277,-5.651,-5.3593,-5.4021,-5.3654,-5.1256,-5.0316,-4.9648,-4.9017,-4.8693,-4.824,-4.7496,-4.7158,-4.6786,-4.6346,-4.6041,-4.5669,-4.5229,-4.5229,-4.5026,-4.4615,-4.4615,-4.4615,-4.4615,-4.4615,-4.4615,-5.7629,0.0,0.0,-6.065,-6.2935,-6.5166,-6.6898,-6.7744,-6.8552,-7.009,-7.136,-7.2399,-7.3014,-7.4014,-7.5399,-7.7476,-7.8207,-7.8938,-8.0208,-7.9823,-7.9054,-7.7938,-7.7592,-7.8054,-7.9554,-7.9554,-7.9361,-7.9131,-7.9131,-7.8746,-7.7861,-7.7246,-7.6938,-7.6938,-7.6322,-7.6015,-7.6015,-7.6015,-7.5917,-7.5733,-7.5165,-7.4457,-7.365,-7.2249,-7.1067,-7.011,-7.011,-7.055,-7.1293,-7.1293,-7.1798,-7.2496,-7.2496,-7.2496,-7.2459,-7.2275,-7.2312,-7.2496,-7.2496,-7.2496,-7.2239,-7.0624,-7.011,-6.9779,-6.8164,-6.7687,-6.7687,-6.7687,-6.7687,-6.7687,-6.7687,-6.7247,-6.6769,-6.6549,-6.5448,-6.4296,-6.3858,-6.2801,-6.1634,-6.0621,-6.0114,-5.947,-5.8248,-5.7074,-5.6336,-5.6267,-5.6902,-5.6312,-5.3318,-5.3537,-5.3136,-5.0909,-4.9872,-4.9314,-4.929,-4.9107,-4.8781,-4.824,-4.8007,-4.7665,-4.7124,-4.6921,-4.6549,-4.6007,-4.6007,-4.5737,-4.5224,-4.5224,-4.5224,-4.5224,-4.5224,-4.5224,0.0,0.0,-6.1051,-6.1851,-6.5166,-6.8667,-7.036,-7.0783,-7.1052,-7.1937,-7.2168,-7.2206,-7.2206,-7.3591,-7.5014,-7.5938,-7.7438,-7.853,-7.8554,-7.8554,-7.7938,-7.6284,-7.5322,-7.5168,-7.6053,-7.7592,-7.8207,-7.7438,-7.7361,-7.7015,-7.613,-7.6053,-7.6053,-7.6053,-7.6015,-7.6015,-7.6015,-7.6015,-7.5702,-7.5109,-7.4588,-7.3613,-7.2224,-7.0823,-7.0138,-7.011,-7.011,-7.055,-7.1293,-7.1293,-7.1798,-7.2496,-7.2496,-7.2496,-7.2422,-7.1651,-7.1835,-7.2496,-7.2496,-7.2496,-7.2239,-7.0624,-7.011,-6.9779,-6.8164,-6.7687,-6.7687,-6.7687,-6.7687,-6.7687,-6.7687,-6.7677,-6.7467,-6.6696,-6.5888,-6.4825,-6.3173,-6.2791,-6.2285,-6.0702,-6.1007,-6.0786,-5.8487,-5.8067,-5.7262,-5.5013,-5.5291,-5.5495,-5.463,-5.3259,-5.2327,-5.2161,-5.0883,-5.0039,-4.9988,-4.9342,-4.8984,-4.8984,-4.8308,-4.7872,-4.7872,-4.7192,-4.6786,-4.6752,-4.6752,-4.6752,-4.6718,-4.6718,-4.6718,-4.6718,-4.6718,-4.6718,-5.8142,0.0,-6.3284,-6.6384,-6.9052,-7.136,-7.3053,-7.3014,-7.2552,-7.2245,-7.1745,-7.1014,-6.9898,-7.1052,-7.2668,-7.413,-7.6245,-7.79,-7.84,-7.9015,-7.8323,-7.5476,-7.5399,-7.5014,-7.3591,-7.5515,-7.6976,-7.7284,-7.7284,-7.6899,-7.6053,-7.6015,-7.6015,-7.6015,-7.6015,-7.6015,-7.6015,-7.6015,-7.5917,-7.5686,-7.4142,-7.2496,-7.0786,-6.9742,-6.9302,-6.9302,-6.9302,-7.0073,-7.1293,-7.1293,-7.1798,-7.2496,-7.2496,-7.2165,-7.1688,-7.1431,-7.1138,-7.0991,-7.1541,-7.1725,-7.1541,-7.044,-7.011,-6.9779,-6.8164,-6.7687,-6.7687,-6.7687,-6.7687,-6.7687,-6.7687,-6.7687,-6.7614,-6.7357,-6.6659,-6.5799,-6.4719,-6.3602,-6.2486,-6.1407,-6.058,-5.9759,-5.8966,-5.793,-5.6641,-5.4865,-5.4383,-5.4328,-5.4575,-5.3261,-5.2292,-5.2252,-5.1401,-5.0602,-5.01,-4.9851,-4.9526,-4.9052,-4.8781,-4.8646,-4.8646,-4.8409,-4.8037,-4.7564,-4.753,-4.7293,-4.6786,-4.6786,-4.6786,-4.6786,-4.6786,-4.6786,-6.1124,-6.3623,-6.6136,-7.0079,-7.2091,-7.3399,-7.4437,-7.386,-7.2706,-7.1552,-7.0129,-6.8706,-6.7321,-6.7667,-6.9052,-7.1706,-7.3745,-7.5707,-7.7784,-7.8015,-7.7284,-7.5399,-7.4861,-7.4245,-7.3206,-7.4322,-7.5476,-7.6322,-7.6669,-7.6592,-7.6015,-7.6015,-7.6015,-7.6015,-7.6015,-7.6015,-7.6015,-7.5495,-7.4889,-7.4178,-7.2391,-7.0896,-6.9633,-6.8825,-6.8458,-6.8458,-6.8458,-6.9229,-7.044,-7.044,-7.0917,-7.1688,-7.1982,-7.1762,-7.1256,-7.0991,-7.055,-7.0183,-7.0697,-7.1064,-7.1109,-7.0036,-6.9853,-6.9779,-6.8164,-6.7687,-6.7687,-6.7687,-6.7687,-6.7687,-6.7687,-6.7687,-6.7687,-6.7687,-6.71,-6.6176,-6.5094,-6.4003,-6.2866,-6.1437,-6.0574,-5.9787,-5.8897,-5.7233,-5.5687,-5.4737,-5.3957,-5.3651,-5.4171,-5.3339,-5.2638,-5.2334,-5.1894,-5.1285,-5.0574,-5.0236,-4.9898,-4.9424,-4.9154,-4.9018,-4.9018,-4.9018,-4.8781,-4.8308,-4.8308,-4.8071,-4.7597,-4.7597,-4.7597,-4.7597,-4.7597,-4.7597,-6.3892,-6.6773,-6.959,-7.2762,-7.413,-7.4707,-7.4668,-7.3322,-7.1591,-6.986,-6.7398,-6.5282,0.0,0.0,-6.4551,-6.8706,-7.0321,-7.2476,-7.6592,-7.5861,-7.5168,-7.5861,-7.3822,-7.2976,-7.4476,-7.4014,-7.3899,-7.463,-7.5476,-7.5938,-7.6015,-7.6015,-7.6015,-7.6015,-7.6015,-7.5976,-7.5938,-7.4549,-7.2866,-7.0994,-6.9595,-6.8926,-6.8862,-6.8054,-6.7724,-6.776,-6.776,-6.8201,-6.8972,-6.8972,-6.9412,-7.0183,-7.0954,-7.1183,-7.1073,-7.033,-7.0,-6.9963,-6.9963,-7.0513,-7.0954,-6.9412,-6.9412,-6.9743,-6.8164,-6.7687,-6.7687,-6.7687,-6.7687,-6.7687,-6.7687,-6.7687,-6.7687,-6.7687,-6.71,-6.6106,-6.4424,-6.412,-6.3444,-6.0938,-6.0997,-6.0747,-5.8405,-5.6167,-5.4702,-5.4668,-5.4025,-5.3551,-5.3518,-5.3518,-5.3213,-5.2435,-5.2367,-5.2063,-5.132,-5.0608,-5.0168,-5.0101,-4.9424,-4.9052,-4.9018,-4.9018,-4.9018,-4.9018,-4.9018,-4.9018,-4.9018,-4.9018,-4.9018,-4.9018,-4.9018,-4.9018,-6.6333,-6.9797,-7.2596,-7.4028,-7.4553,-7.4553,-7.3937,-7.2014,-6.9667,-6.7359,-6.382,-6.0666,0.0,-6.0319,-6.2204,-6.4551,-6.9398,-7.3437,-7.513,-7.6592,-7.6899,-7.5245,-7.5014,-7.4707,-7.3899,-7.4168,-7.4476,-7.4668,-7.4899,-7.5322,-7.5976,-7.6015,-7.6015,-7.6015,-7.6015,-7.5707,-7.5053,-7.3614,-7.2278,-7.0994,-7.0029,-6.9318,-6.8862,-6.8054,-6.8017,-6.8605,-6.8605,-6.9045,-6.9779,-6.9779,-6.9926,-7.011,-7.033,-7.0036,-6.9486,-6.9302,-6.8825,-6.8311,-6.8311,-6.8825,-6.9449,-6.9045,-6.9045,-6.9009,-6.7981,-6.7687,-6.7687,-6.7687,-6.7687,-6.7687,-6.7687,-6.7687,-6.7687,-6.7687,-6.754,-6.6963,-6.5321,-6.4987,-6.427,-6.1808,-6.0453,-5.934,-5.8114,-5.7011,-5.6055,-5.5513,-5.4803,-5.4126,-5.3585,-5.3518,-5.3416,-5.3213,-5.3179,-5.2875,-5.2097,-5.186,-5.1251,-5.0168,-4.9898,-4.956,-4.9018,-4.9018,-4.9018,-4.9018,-4.9018,-4.9018,-4.9018,-4.9018,-4.9018,-4.9018,-4.9018,-4.9018,-6.9251,-7.2134,-7.4372,-7.517,-7.505,-7.4091,-7.1769,-6.959,-6.6859,-6.282,-5.9473,0.0,-5.5077,-5.6242,-5.8627,-6.2204,-6.6936,-7.136,-7.4784,-7.6169,-7.6592,-7.5938,-7.5592,-7.5207,-7.4668,-7.4668,-7.4861,-7.5245,-7.5284,-7.5476,-7.5976,-7.563,-7.5438,-7.5438,-7.5091,-7.4275,-7.2907,-7.2108,-7.0986,-6.9568,-6.9087,-6.8698,-6.8348,-6.7907,-6.7944,-6.8385,-6.8385,-6.8641,-6.9045,-6.9045,-6.9045,-6.9082,-6.9449,-6.9302,-6.8898,-6.8898,-6.8605,-6.8164,-6.7797,-6.7981,-6.8385,-6.8385,-6.8605,-6.8752,-6.7944,-6.7687,-6.7687,-6.7687,-6.7687,-6.7687,-6.7687,-6.7687,-6.7687,-6.7687,-6.7687,-6.7357,-6.6109,-6.5558,-6.4463,-6.1609,-5.9736,-5.8458,-5.7991,-5.7273,-5.6664,-5.6258,-5.5581,-5.4803,-5.4093,-5.3687,-5.3518,-5.3518,-5.3518,-5.3315,-5.2875,-5.2503,-5.1961,-5.1116,-5.0744,-5.0236,-4.9492,-4.9492,-4.9323,-4.9018,-4.9018,-4.9018,-4.9018,-4.9018,-4.9018,-4.9018,-4.9018,-4.9018,-7.2122,-7.3981,-7.5326,-7.6101,-7.5349,-7.3301,-6.9167,-6.6667,-6.3589,-5.7868,0.0,-5.3356,-5.1846,-5.2462,-5.5088,-6.0819,0.0,-6.8321,-7.4745,-7.513,-7.5284,-7.6938,-7.5784,-7.5168,-7.5938,-7.5322,-7.5207,-7.5938,-7.6015,-7.6015,-7.6015,-7.5284,-7.4822,-7.4707,-7.3822,-7.2445,-7.0637,-7.0465,-6.9507,-6.7687,-6.7687,-6.7687,-6.7687,-6.7687,-6.7687,-6.7687,-6.7687,-6.7741,-6.7784,-6.7741,-6.7767,-6.7857,-6.8485,-6.8752,-6.8752,-6.8752,-6.8752,-6.8641,-6.7944,-6.7687,-6.7687,-6.7687,-6.8164,-6.8605,-6.7907,-6.7687,-6.7687,-6.7687,-6.7687,-6.7687,-6.7687,-6.7687,-6.7687,-6.7687,-6.7687,-6.7467,-6.6659,-6.5693,-6.4111,-6.1275,-5.9287,-5.8051,-5.8051,-5.7442,-5.69,-5.6799,-5.6258,-5.5581,-5.4837,-5.4093,-5.3619,-5.3518,-5.3518,-5.3518,-5.3518,-5.2875,-5.2401,-5.23,-5.1725,-5.1014,-5.027,-5.0236,-4.9932,-4.9323,-4.9289,-4.9289,-4.9289,-4.9289,-4.9289,-4.9289,-4.9289,-4.9289,-7.3839,-7.5288,-7.6101,-7.6256,-7.4558,-7.1916,-6.8167,-6.4397,0.0,0.0,-5.2433,-5.0202,-4.9894,-5.1664,-5.4664,-5.9204,-6.3858,-6.8552,-7.3283,-7.4399,-7.5091,0.0,-7.5976,-7.5822,-7.5976,-7.5861,-7.5822,-7.5976,-7.6015,-7.6015,-7.6015,-7.5861,-7.5438,-7.4707,-7.3206,-7.1832,-7.0599,-6.9879,-6.8923,-6.7687,-6.7687,-6.7687,-6.7687,-6.7687,-6.7687,-6.7687,-6.7687,-6.7956,-6.8333,-6.7878,-6.7956,-6.8333,-6.8036,-6.7907,-6.7907,-6.7907,-6.7907,-6.7871,-6.7724,-6.7687,-6.7687,-6.7687,-6.7797,-6.7871,-6.7724,-6.7687,-6.7687,-6.7687,-6.7687,-6.7687,-6.7687,-6.7687,-6.7687,-6.7687,-6.7687,-6.7467,-6.6659,-6.4737,-6.3004,-6.2407,-6.0428,-5.8829,-5.8829,-5.8186,-5.7476,-5.69,-5.6697,-5.6359,-5.5615,-5.4871,-5.416,-5.3585,-5.3518,-5.3518,-5.3518,-5.3382,-5.301,-5.2334,-5.2198,-5.1792,-5.1048,-5.1014,-5.098,-5.0813,-5.0845,-5.0845,-5.0845,-5.0845,-5.0845,-5.0845,-5.0845,-5.0845,-7.4414,-7.5636,-7.6295,-7.6295,-7.3976,-7.0423,-6.5601,0.0,0.0,0.0,-4.8548,-4.7278,-4.6817,-4.8817,0.0,-5.5588,-5.9781,-6.4474,-7.0052,-7.1591,-7.3091,-7.5707,-7.6015,-7.6015,-7.6015,-7.6015,-7.6015,-7.6015,-7.6015,-7.6015,-7.6015,-7.5553,-7.4745,-7.3437,-7.2629,-7.1488,-6.9937,-6.9501,-6.8773,-6.7687,-6.7687,-6.7687,-6.7687,-6.7687,-6.7687,-6.7687,-6.7687,-6.7863,-6.8047,-6.781,-6.7863,-6.8047,-6.7784,-6.7687,-6.7687,-6.7687,-6.7687,-6.7687,-6.7687,-6.7687,-6.7687,-6.7687,-6.7687,-6.7687,-6.7687,-6.7687,-6.7687,-6.7687,-6.7687,-6.7687,-6.7687,-6.7687,-6.7687,-6.7687,-6.7687,-6.7467,-6.6659,-6.5177,-6.3724,-6.2864,-6.1395,-6.0166,-5.9648,-5.8964,-5.8355,-5.8017,-5.7611,-5.7103,-5.6393,-5.5953,-5.5446,-5.4735,-5.4668,-5.4499,-5.4093,-5.4059,-5.3754,-5.2976,-5.2909,-5.257,-5.1826,-5.1792,-5.1589,-5.1217,-5.1185,-5.1185,-5.1185,-5.1185,-5.1185,-5.1185,-5.1185,-5.1185,-7.4464,-7.5647,-7.6256,-7.6062,-7.3338,-6.9155,-6.319,-5.9061,0.0,0.0,-4.5594,-4.5248,-4.4893,0.0,-4.9086,0.0,-5.6049,-6.0396,-6.7167,-6.9052,-7.1206,-7.5245,-7.5899,-7.6015,-7.6015,-7.6015,-7.6015,-7.6015,-7.6015,-7.6015,-7.6015,-7.5014,-7.386,-7.2514,-7.2129,-7.1137,-6.9492,-6.9373,-6.884,-6.7889,-6.7731,-6.7687,-6.7687,-6.7687,-6.7687,-6.7687,-6.7687,-6.7794,-6.7863,-6.7767,-6.7794,-6.7863,-6.7731,-6.7687,-6.7687,-6.7687,-6.7687,-6.7687,-6.7687,-6.7687,-6.7687,-6.7687,-6.7687,-6.7687,-6.7687,-6.7687,-6.7687,-6.7687,-6.7687,-6.7687,-6.7687,-6.7687,-6.7687,-6.7687,-6.7687,-6.7504,-6.688,-6.59,-6.4787,-6.346,-6.2228,-6.121,-6.0502,-5.9742,-5.9268,-5.9268,-5.8626,-5.7915,-5.734,-5.7137,-5.6799,-5.6258,-5.5919,-5.548,-5.4871,-5.4837,-5.46,-5.4025,-5.3822,-5.345,-5.2807,-5.2638,-5.23,-5.1725,-5.1691,-5.1691,-5.1691,-5.1691,-5.1691,-5.1691,-5.1691,-5.1691,-7.4293,-7.5647,-7.6112,-7.5337,-7.2577,-6.8488,-6.2325,0.0,0.0,-4.7894,-4.5509,-4.4893,-4.6394,0.0,0.0,0.0,0.0,0.0,-6.6282,-6.8667,-7.0975,-7.4399,0.0,0.0,-7.6015,-7.6015,-7.6015,-7.6015,-7.6015,-7.6015,-7.6015,-7.4476,-7.3553,-7.3399,-7.186,-7.0699,-7.0044,-6.955,-6.8999,-6.8416,-6.793,-6.7687,-6.7687,-6.7687,-6.7687,-6.7687,-6.7687,-6.7982,-6.8368,-6.7878,-6.8007,-6.8368,-6.7878,-6.7687,-6.7687,-6.7687,-6.7687,-6.7687,-6.7687,-6.7687,-6.7687,-6.7687,-6.7687,-6.7687,-6.7687,-6.7687,-6.7687,-6.7687,-6.7687,-6.7687,-6.7687,-6.7687,-6.7687,-6.7687,-6.7687,-6.7677,-6.7614,-6.6223,-6.4956,-6.482,-6.2921,-6.1278,-6.1197,-6.052,-6.0013,-6.0013,-5.937,-5.8896,-5.8829,-5.822,-5.7746,-5.7712,-5.6494,-5.5683,-5.5615,-5.5615,-5.5581,-5.5513,-5.4871,-5.4465,-5.4397,-5.3754,-5.3382,-5.3281,-5.3281,-5.3281,-5.3281,-5.3281,-5.3281,-5.3281,-5.3281,-5.3281,-7.3228,-7.508,-7.589,-7.5041,-7.1504,-6.6812,-6.1278,0.0,-5.151,-4.6394,-4.4778,-4.4509,-4.5201,-4.5355,0.0,0.0,0.0,0.0,-5.9358,-6.1281,-6.4436,-7.0937,-7.2437,-7.3745,-7.5784,-7.6015,-7.6015,-7.6015,-7.6015,-7.6015,-7.6015,-7.4861,-7.3745,-7.2745,-7.2052,-7.1189,-7.0112,-6.9883,-6.9373,-6.8511,-6.8284,-6.7996,-6.7687,-6.7687,-6.7687,-6.7687,-6.7687,-6.797,-6.8464,-6.7904,-6.8033,-6.844,-6.7904,-6.7687,-6.7687,-6.7687,-6.7687,-6.7687,-6.7687,-6.7687,-6.7687,-6.7687,-6.7687,-6.7687,-6.7687,-6.7687,-6.7687,-6.7687,-6.7687,-6.7687,-6.7687,-6.7687,-6.7687,-6.7687,-6.7687,-6.7542,-6.7024,-6.6758,-6.6301,-6.5196,-6.4215,-6.3341,-6.283,-6.1684,-6.0825,-6.0825,-6.0148,-5.9674,-5.9674,-5.9404,-5.9066,-5.8626,-5.7645,-5.6833,-5.6393,-5.6359,-5.619,-5.5715,-5.5446,-5.5277,-5.5277,-5.5006,-5.4837,-5.4837,-5.4837,-5.4837,-5.4837,-5.4397,-5.416,-5.416,-5.3721,-5.3518,-7.1668,-7.3976,-7.5053,-7.4168,-7.0321,-6.5397,0.0,-5.5395,-5.0538,-4.5663,-4.447,-4.4393,-4.4624,-4.447,-4.4855,0.0,0.0,0.0,-5.4934,-5.6857,-6.0319,-6.7359,-6.9129,-7.1014,-7.4168,-7.5399,-7.6015,-7.6015,-7.6015,-7.5899,-7.563,-7.4642,-7.3629,-7.2629,-7.2184,-7.1375,-7.0112,-6.9918,-6.9375,-6.8511,-6.8511,-6.821,-6.7687,-6.7687,-6.7784,-6.793,-6.7757,-6.8097,-6.8682,-6.8007,-6.8033,-6.844,-6.7904,-6.7687,-6.7687,-6.7687,-6.7687,-6.7687,-6.7687,-6.7687,-6.7687,-6.7687,-6.7834,-6.8017,-6.776,-6.7687,-6.7687,-6.7687,-6.7687,-6.7687,-6.7687,-6.7687,-6.7687,-6.7687,-6.7687,-6.746,-6.6582,-6.6881,-6.6787,-6.5001,-6.4632,-6.4357,-6.3498,-6.237,-6.1637,-6.1637,-6.096,-6.0452,-6.0452,-6.025,-5.9911,-5.9404,-5.8863,-5.8152,-5.7205,-5.7137,-5.69,-5.6393,-5.6156,-5.6055,-5.6055,-5.5818,-5.5681,-5.5681,-5.5681,-5.5681,-5.5681,-5.5175,-5.4938,-5.4905,-5.4397,-5.416,-6.9552,-7.2206,-7.3322,-7.2437,-6.9052,-6.4589,0.0,-5.5,-5.0692,-4.6479,-4.4893,-4.4547,-4.5441,-4.4893,-4.4855,0.0,0.0,0.0,-5.5088,-5.7896,-6.0742,-6.4243,-6.6128,-6.8129,-7.0706,-7.4014,-7.6015,-7.6015,-7.6015,-7.563,-7.4784,-7.3379,-7.2871,-7.3462,-7.2122,-7.0989,-7.0112,-6.9588,-6.9042,-6.8511,-6.8511,-6.821,-6.7687,-6.7687,-6.8007,-6.8464,-6.793,-6.8308,-6.921,-6.8148,-6.8033,-6.844,-6.7904,-6.7687,-6.7687,-6.7687,-6.7687,-6.7687,-6.7687,-6.7687,-6.7687,-6.7687,-6.8238,-6.8752,-6.7944,-6.7687,-6.7687,-6.7687,-6.7687,-6.7687,-6.7687,-6.7687,-6.7687,-6.7687,-6.7687,-6.746,-6.6582,-6.6404,-6.5909,-6.4042,-6.3719,-6.3462,-6.2542,-6.242,-6.2381,-6.2381,-6.1772,-6.1298,-6.1298,-6.0588,-6.0114,-6.008,-6.008,-5.9471,-5.8017,-5.7881,-5.7881,-5.7881,-5.7171,-5.6799,-5.6799,-5.6089,-5.5681,-5.5681,-5.5681,-5.5681,-5.5681,-5.5681,-5.5716,-5.5716,-5.5647,-5.5647,-6.2666,-6.5667,-6.7667,-6.5051,-6.2551,-5.9665,-5.5703,-5.2433,-4.9317,-4.6249,-4.5364,-4.5287,-4.5556,-4.5364,-4.5932,-4.824,0.0,0.0,0.0,0.0,0.0,-6.3243,-6.8783,-7.286,-7.4245,-7.5361,-7.6015,-7.6015,-7.6015,-7.5703,-7.503,-7.4014,-7.3042,-7.2106,-7.0704,-6.9834,-6.9569,-6.9757,-6.9375,-6.8511,-6.8847,-6.8567,-6.7687,-6.7687,-6.7784,-6.793,-6.7757,-6.8308,-6.9231,-6.8148,-6.8235,-6.8956,-6.8047,-6.7687,-6.7687,-6.7687,-6.7687,-6.7687,-6.7687,-6.8054,-6.8531,-6.8531,-6.9045,-6.9669,-6.9412,-6.8972,-6.8421,-6.7834,-6.7687,-6.7687,-6.7687,-6.7687,-6.7687,-6.7687,-6.7687,-6.7286,-6.5775,-6.5935,-6.5842,-6.4042,-6.3719,-6.361,-6.3351,-6.2779,-6.2381,-6.2381,-6.2178,-6.2042,-6.2042,-6.1806,-6.1467,-6.096,-6.0926,-6.052,-5.9471,-5.893,-5.866,-5.866,-5.7949,-5.7543,-5.7543,-5.734,-5.7205,-5.7205,-5.7205,-5.7205,-5.7205,-5.6697,-5.619,-5.5681,-5.5681,-5.5681,-5.8434,-6.1473,-6.3474,-6.132,-5.905,-5.6588,-5.3818,-5.0971,-4.8279,-4.6056,-4.5594,-4.5518,-4.5171,-4.5133,-4.5633,-4.7201,0.0,0.0,0.0,-5.4895,-5.8319,-6.3205,-6.9129,-7.3283,-7.4437,-7.5438,-7.6015,-7.6015,-7.6015,-7.5833,-7.5446,-7.3949,-7.2642,-7.1559,-7.0218,-6.9444,-6.9292,-6.9645,-6.9472,-6.8818,-6.9148,-6.8825,-6.797,-6.7784,-6.781,-6.8007,-6.7784,-6.8308,0.0,-6.8148,-6.821,-6.8891,-6.8021,-6.7687,-6.7724,-6.8017,-6.8128,-6.8201,-6.8495,-6.8935,-6.9339,-6.9339,-6.9706,-7.0146,-7.0477,-7.0,-6.9192,-6.8385,-6.8128,-6.8091,-6.776,-6.7687,-6.7687,-6.7687,-6.7687,-6.7193,-6.539,-6.5748,-6.5748,-6.361,-6.3498,-6.3574,-6.324,-6.274,-6.2381,-6.2381,-6.2381,-6.2381,-6.2381,-6.2381,-6.2212,-6.1772,-6.1704,-6.1501,-6.0994,-6.0013,-5.9438,-5.9438,-5.8964,-5.8592,-5.8321,-5.8321,-5.8186,-5.7881,-5.7881,-5.7881,-5.7881,-5.7442,-5.6968,-5.6528,-5.6528,-5.6528,0.0,-5.8742,-6.005,-5.9858,-5.7473,-5.4741,-5.3126,-5.0279,0.0,-4.5864,-4.5518,-4.5287,-4.4509,-4.4355,-4.4393,-4.4701,-4.6163,-4.8423,-5.1692,-5.4626,-5.8588,-6.4436,-6.8052,-7.0706,-7.2322,-7.4591,-7.6015,-7.6015,-7.5947,-7.5879,-7.5787,-7.3231,-7.1706,-7.1589,-7.039,-6.9559,-6.9251,-6.933,-6.9388,-6.9388,-6.9388,-6.9096,-6.8562,-6.7993,-6.8018,-6.849,-6.7993,-6.8333,-6.9244,-6.8198,-6.8047,-6.844,-6.7904,-6.7687,-6.7797,-6.8605,-6.8898,-6.9009,-6.9816,-7.0146,-7.0183,-7.0257,-7.0257,-7.0403,-7.1174,-7.077,-6.9926,-6.9192,-6.9009,-6.8788,-6.7981,-6.7797,-6.776,-6.7687,-6.7687,-6.7193,-6.539,-6.5681,-6.5526,-6.2893,-6.3049,-6.3351,-6.2537,-6.2381,-6.2381,-6.2381,-6.2381,-6.2381,-6.2381,-6.2381,-6.2381,-6.2381,-6.2381,-6.2381,-6.2381,-6.1028,-6.0182,-6.0182,-6.0148,-5.981,-5.9133,-5.9099,-5.8761,-5.8051,-5.8051,-5.8051,-5.8051,-5.8051,-5.8051,-5.8051,-5.8051,-5.8017,-4.9202,0.0,-5.2587,-5.0664,-5.0048,-4.9625,0.0,-4.7769,0.0,0.0,0.0,0.0,-4.521,-4.4739,-4.5355,-4.8673,-5.0048,-5.1692,-5.4434,-5.9819,-6.5205,-6.986,-7.2245,-7.3937,-7.5014,-7.5668,-7.6015,-7.6015,-7.5567,-7.4842,-7.3781,-7.2093,-7.0696,-6.9614,-6.9087,-6.8768,-6.8682,-6.9745,-7.0276,-7.0276,-7.0276,-7.0019,-6.9466,-6.8251,-6.8125,-6.8799,-6.8457,-6.8799,-6.9556,-6.8677,-6.8368,-6.844,-6.7904,-6.7687,-6.7797,-6.8605,-6.8898,-6.9009,-6.9816,-7.0513,-7.1138,-7.1725,-7.1945,-7.1982,-7.2165,-7.1248,-7.0073,-6.9853,-6.9816,-6.9633,-6.8825,-6.8605,-6.8458,-6.7834,-6.7687,-6.7193,-6.539,-6.5163,-6.4767,-6.2779,-6.2542,-6.2659,-6.242,-6.2381,-6.2381,-6.2381,-6.2381,-6.2381,-6.2381,-6.2381,-6.2381,-6.2381,-6.2381,-6.2381,-6.2381,-6.1535,-6.1028,-6.1028,-6.0452,-6.0013,-5.9844,-5.9844,-5.9776,-5.9573,-5.9573,-5.9573,-5.9573,-5.9573,-5.9573,-5.9573,-5.9573,-5.9268,-4.6317,-4.8471,-5.0289,-4.8509,-4.8355,-4.8471,0.0,0.0,0.0,0.0,0.0,0.0,0.0,0.0,0.0,-4.8509,-5.0317,-5.3164,-5.8434,-6.3358,-6.8013,-7.2283,-7.3937,-7.5053,-7.5938,-7.6015,-7.5902,-7.56,-7.5289,-7.4657,-7.3657,-7.1949,-7.0784,-7.0264,-6.912,-6.88,-6.9469,-7.0453,-7.1103,-7.1319,-7.1085,-7.0471,-6.9522,-6.8518,-6.8373,-6.8889,-6.8746,-6.9122,-6.9825,-6.9011,-6.8678,-6.8615,-6.7957,-6.7687,-6.7834,-6.9009,-6.9449,-6.9633,-7.0807,-7.1505,-7.1945,-7.2349,-7.2496,-7.2496,-7.2496,-7.1908,-7.1138,-7.077,-7.066,-7.0477,-6.9669,-6.9449,-6.9339,-6.8898,-6.821,-6.7273,-6.5863,-6.498,-6.4007,-6.2659,-6.2381,-6.2381,-6.2381,-6.2381,-6.2381,-6.2381,-6.2381,-6.2381,-6.2381,-6.2381,-6.2381,-6.2381,-6.2381,-6.2381,-6.2381,-6.2009,-6.1806,-6.1806,-6.14,-6.0994,-6.0655,-6.0655,-6.0486,-6.0114,-6.0114,-6.0114,-6.0114,-6.0114,-6.0114,-6.0114,-6.0114,-5.9877,-4.6056,-4.848,-5.0548,-4.9163,-4.8933,-4.8779,0.0,0.0,0.0,0.0,0.0,0.0,0.0,-4.4932,0.0,-4.7663,-5.0317,-5.4972,-6.2781,-6.6051,-6.9167,-7.3206,-7.4399,-7.5207,-7.5938,-7.5917,-7.567,-7.5127,-7.4923,-7.4594,-7.3995,-7.2008,-7.1064,-7.1487,-6.9627,-6.9303,-7.07,-7.1158,-7.1631,-7.2083,-7.151,-7.0612,-6.9357,-6.8688,-6.8567,-6.8898,-6.897,-6.9448,-7.0036,-6.9448,-6.9054,-6.8825,-6.8128,-6.7797,-6.7871,-6.9486,-7.011,-7.033,-7.1945,-7.2496,-7.2496,-7.2496,-7.2496,-7.2496,-7.2496,-7.2496,-7.2349,-7.1688,-7.1505,-7.1321,-7.0477,-7.0293,-7.0229,-6.9969,-6.8793,-6.7456,-6.6378,-6.5057,-6.3807,-6.2882,-6.2719,-6.2719,-6.2719,-6.2618,-6.255,-6.255,-6.2448,-6.2381,-6.2381,-6.2381,-6.2381,-6.2381,-6.2381,-6.2381,-6.2381,-6.2381,-6.2381,-6.2381,-6.2381,-6.211,-6.1501,-6.1467,-6.1163,-6.0452,-6.0452,-6.0452,-6.0452,-6.0452,-6.0452,-6.0452,-6.0452,-6.0385,-4.824,-5.024,-5.0818,-4.7124,-4.674,-4.7048,0.0,0.0,0.0,0.0,0.0,0.0,0.0,-4.7086,-4.8702,-5.1741,-5.6165,-6.0935,-6.582,-6.8706,-7.136,-7.4168,-7.5284,-7.5861,-7.5976,-7.5551,-7.5219,-7.5109,-7.4212,-7.3327,-7.2558,-7.1046,-7.0154,-7.0009,-6.9466,-6.9868,-7.1248,-7.1357,-7.1426,-7.1532,-7.0991,-7.0395,-6.9682,-6.8405,-6.8235,-6.8926,-6.9383,-6.9788,-7.0128,-7.0432,-6.9947,-6.8898,-6.8752,-6.8311,-6.7871,-6.9486,-7.011,-7.033,-7.1945,-7.2496,-7.2496,-7.2496,-7.2496,-7.2496,-7.2496,-7.2496,-7.2459,-7.2349,-7.2312,-7.2129,-7.1321,-7.1138,-7.0747,-6.9274,-6.8739,-6.8059,-6.6315,-6.5731,-6.5283,-6.4443,-6.4275,-6.4275,-6.4275,-6.3734,-6.3328,-6.3328,-6.2787,-6.2381,-6.2381,-6.2381,-6.2381,-6.2381,-6.2381,-6.2381,-6.2381,-6.2381,-6.2381,-6.2381,-6.2381,-6.2347,-6.2245,-6.2212,-6.2144,-6.2042,-6.2042,-6.2042,-6.2042,-6.2042,-6.2042,-6.2042,-6.2042,-6.1704,-4.7018,-4.824,-4.8962,-4.7894,-4.9356,-5.0548,0.0,0.0,0.0,0.0,0.0,0.0,0.0,0.0,-5.2433,-5.7242,-6.1127,-6.4859,-6.8629,-7.0552,-7.2443,-7.4631,-7.5266,-7.5396,-7.5092,-7.4828,-7.453,-7.4212,-7.3699,-7.309,-7.2398,-7.1205,-7.0611,-7.0804,-7.0095,-7.0038,-7.0667,-7.0705,-7.0934,-7.1391,-7.0876,-7.0057,-6.9094,-6.8445,-6.8424,-6.8898,-6.9173,-6.9563,-7.0101,-6.9911,-6.9489,-6.8862,-6.8421,-6.8274,-6.8531,-7.0146,-7.1027,-7.1505,-7.2239,-7.2496,-7.2496,-7.2496,-7.2496,-7.2496,-7.2496,-7.2167,-7.1763,-7.1763,-7.2101,-7.2422,-7.2055,-7.1553,-7.0986,-7.0216,-6.887,-6.7588,-6.6748,-6.586,-6.5073,-6.4661,-6.4613,-6.4613,-6.4613,-6.4343,-6.4106,-6.4106,-6.3802,-6.3429,-6.3057,-6.299,-6.2854,-6.2415,-6.2381,-6.2381,-6.2381,-6.2381,-6.2381,-6.2381,-6.2381,-6.2381,-6.2381,-6.2381,-6.2381,-6.2381,-6.2381,-6.2381,-6.2381,-6.2381,-6.2381,-6.2381,-6.2381,-6.2212,-4.6326,-4.6817,-4.7548,0.0,0.0,0.0,-5.1741,0.0,0.0,0.0,0.0,0.0,0.0,-5.328,-5.6973,-6.2139,-6.5282,-6.809,-7.1091,-7.2245,-7.3368,-7.4934,-7.5109,-7.4905,-7.4358,-7.4183,-7.3888,-7.3442,-7.3205,-7.2901,-7.2448,-7.1391,-7.1066,-7.1587,-7.0626,-7.0112,-7.0112,-6.9992,-7.019,-7.0725,-7.0276,-6.9462,-6.8333,-6.8333,-6.8405,-6.8641,-6.8825,-6.9265,-6.9779,-6.9376,-6.9082,-6.8862,-6.8421,-6.8752,-6.9633,-7.0881,-7.1835,-7.2496,-7.2496,-7.2496,-7.2496,-7.2496,-7.2343,-7.2197,-7.2197,-7.1511,-7.0767,-7.0767,-7.1286,-7.1824,-7.1824,-7.1286,-7.0734,-7.0465,-6.8821,-6.7319,-6.7083,-6.6035,-6.5121,-6.5121,-6.5121,-6.5121,-6.5121,-6.4986,-6.485,-6.485,-6.4715,-6.441,-6.3835,-6.3768,-6.3531,-6.2956,-6.2753,-6.2584,-6.2415,-6.2381,-6.2381,-6.2381,-6.2381,-6.2381,-6.2381,-6.2381,-6.2381,-6.2381,-6.2381,-6.2381,-6.2381,-6.2381,-6.2381,-6.2381,-6.2381,-6.2381,-4.8471,-4.8586,-4.824,-4.9163,0.0,0.0,0.0,0.0,0.0,0.0,0.0,0.0,0.0,-5.8627,-6.237,-6.5166,-6.8398,-7.1206,-7.3053,-7.4014,-7.4674,-7.5048,-7.5109,-7.4905,-7.4358,-7.3794,-7.3467,-7.3417,-7.2658,-7.2162,-7.2111,-7.1126,-7.0758,-7.1324,-7.0518,-7.0112,-7.0112,-6.9607,-6.9143,-6.8726,-6.8679,-6.8321,-6.7767,-6.7767,-6.7777,-6.7834,-6.8568,-6.8935,-6.9045,-6.9743,-6.9559,-6.8972,-6.9669,-7.044,-7.1109,-7.1284,-7.1835,-7.2496,-7.2496,-7.2496,-7.2496,-7.2496,-7.1885,-7.1191,-7.1191,-7.0568,-6.9814,-6.9814,-6.9849,-6.9919,-6.9919,-6.9849,-6.9566,-6.8648,-6.827,-6.7881,-6.701,-6.6719,-6.6643,-6.6643,-6.6643,-6.6643,-6.6643,-6.6068,-6.5595,-6.5595,-6.5019,-6.458,-6.4546,-6.4512,-6.4512,-6.4444,-6.3835,-6.3159,-6.2448,-6.2381,-6.2381,-6.2381,-6.2381,-6.2381,-6.2381,-6.2381,-6.2381,-6.2381,-6.2381,-6.2381,-6.2381,-6.2381,-6.2381,-6.2381,-6.2381,-6.2381,-4.6787,-4.7548,-4.8432,-4.9856,0.0,0.0,0.0,0.0,0.0,-5.9858,-5.9781,0.0,-5.9638,-6.1858,-6.4474,-6.7051,-7.0321,-7.2937,-7.4091,-7.4635,-7.4837,-7.4652,-7.4609,-7.4363,-7.3794,-7.308,-7.2858,-7.3354,-7.2137,-7.1554,-7.2075,-7.1916,-7.1634,-7.1301,-7.1389,-7.0817,-6.9607,-6.9884,-6.9612,-6.8746,-6.8229,-6.7878,-6.7687,-6.7687,-6.7687,-6.7724,-6.8017,-6.8128,-6.8164,-6.8458,-6.8715,-6.9045,-7.033,-7.1027,-7.1329,-7.1872,-7.2239,-7.2496,-7.2496,-7.2496,-7.2409,-7.1824,-7.1417,-7.0962,-7.04,-6.9566,-6.876,-6.876,-6.8339,-6.818,-6.9385,-6.9241,-6.8685,-6.8266,-6.7747,-6.7209,-6.6896,-6.6812,-6.6812,-6.6812,-6.6812,-6.6812,-6.6812,-6.6576,-6.6373,-6.6373,-6.617,-6.5797,-6.5324,-6.5256,-6.5121,-6.4647,-6.4343,-6.3903,-6.3159,-6.3091,-6.2888,-6.2415,-6.2381,-6.2381,-6.2381,-6.2381,-6.2381,-6.2381,-6.2381,-6.2381,-6.2381,-6.2381,-6.2381,-6.2381,-6.2381,-6.2381,-4.5325,-4.6009,-4.7317,0.0,0.0,0.0,0.0,0.0,0.0,0.0,-6.4243,-6.3294,-6.3294,-6.4243,-6.5859,-6.8398,-7.1437,-7.3899,-7.4976,-7.508,-7.498,-7.4609,-7.4401,-7.4139,-7.3723,-7.2994,-7.2895,-7.3613,-7.2117,-7.1453,-7.2222,-7.213,-7.1767,-7.1194,-7.1564,-7.1091,-6.9569,-6.9922,-6.9776,-6.9147,-6.8162,-6.7834,-6.8054,-6.7797,-6.7687,-6.7687,-6.7687,-6.7687,-6.7687,-6.7687,-6.8311,-6.9412,-7.077,-7.1468,-7.1762,-7.2312,-7.2496,-7.2496,-7.2496,-7.2285,-7.1981,-7.1286,-7.0665,-7.0127,-6.974,-6.8879,-6.816,-6.8401,-6.8008,-6.7826,-6.9181,-6.8644,-6.7747,-6.7747,-6.725,-6.6812,-6.6812,-6.6812,-6.6812,-6.6812,-6.6812,-6.6812,-6.6812,-6.6812,-6.6812,-6.6812,-6.6812,-6.6643,-6.6102,-6.6034,-6.5764,-6.5019,-6.4952,-6.4647,-6.3903,-6.3869,-6.3531,-6.2787,-6.2753,-6.2618,-6.2415,-6.2381,-6.2381,-6.2381,-6.2381,-6.2381,-6.2381,-6.2381,-6.2381,-6.2381,-6.2381,-6.2381,-4.4778,-4.4316,0.0,0.0,0.0,0.0,0.0,0.0,0.0,0.0,-6.7705,-6.5936,-6.5936,-6.5936,-6.6744,-6.9283,-7.186,-7.4091,-7.5745,-7.5463,-7.5109,-7.5109,-7.4649,-7.4293,-7.4293,-7.377,-7.3651,-7.4234,-7.2649,-7.1933,-7.2559,-7.1528,-7.0898,-7.0898,-7.0898,-7.0637,-7.0095,-6.9569,-6.9434,-6.9679,-6.8362,-6.8128,-6.8862,-6.8054,-6.7687,-6.7687,-6.7687,-6.7687,-6.7687,-6.7724,-6.8641,-7.0183,-7.0991,-7.1798,-7.2496,-7.2496,-7.2496,-7.2496,-7.2496,-7.1885,-7.1127,-7.1095,-6.9778,-6.8362,-6.9154,-6.8706,-6.8064,-6.8876,-6.9113,-6.9113,-6.9113,-6.7963,-6.6846,-6.6846,-6.6846,-6.6846,-6.6846,-6.6846,-6.6846,-6.6812,-6.6812,-6.6812,-6.6812,-6.6812,-6.6812,-6.6812,-6.6812,-6.6812,-6.6812,-6.6812,-6.6542,-6.5764,-6.5696,-6.5392,-6.4681,-6.4613,-6.4309,-6.3565,-6.3531,-6.3193,-6.2415,-6.2381,-6.2381,-6.2381,-6.2381,-6.2381,-6.2381,-6.2381,-6.2381,-6.2381,-6.2381,-6.2381,-4.4624,-4.6047,0.0,0.0,0.0,0.0,0.0,0.0,0.0,0.0,-7.036,-6.8552,-6.8552,-6.809,-6.8282,-7.0244,-7.2206,-7.4091,-7.5745,-7.5463,-7.5109,-7.5109,-7.4961,-7.4638,-7.4068,-7.3287,-7.2926,-7.308,-7.154,-7.089,-7.1662,-7.1758,-7.1514,-7.0937,-7.1475,-7.1076,-6.955,-6.9939,-7.0076,-6.9995,-6.9595,-6.9229,-6.8862,-6.8054,-6.7687,-6.7687,-6.7687,-6.7687,-6.7787,-6.8898,-6.9669,-7.022,-7.1615,-7.2312,-7.2496,-7.2496,-7.2496,-7.2496,-7.2496,-7.1885,-7.0962,-7.0332,-6.9628,-6.8967,-6.8473,-6.8524,-6.8808,-6.9045,-6.9113,-6.9113,-6.9113,-6.8774,-6.8436,-6.8436,-6.8436,-6.8436,-6.8436,-6.8436,-6.8267,-6.7692,-6.7557,-6.7421,-6.6914,-6.6812,-6.6812,-6.6812,-6.6812,-6.6812,-6.6812,-6.6812,-6.6745,-6.6508,-6.6474,-6.617,-6.5425,-6.5358,-6.5053,-6.4343,-6.4275,-6.37,-6.2448,-6.2381,-6.2381,-6.2381,-6.2381,-6.2381,-6.2381,-6.2381,-6.2381,-6.2381,-6.2381,-6.2381,-4.6278,0.0,0.0,0.0,0.0,0.0,0.0,0.0,0.0,0.0,-7.2476,-7.0706,-7.0706,-6.9706,-6.9475,-7.1129,-7.2591,-7.4091,-7.5745,-7.5195,-7.4705,-7.4932,-7.4452,-7.4017,-7.3767,-7.3059,-7.2681,-7.2926,-7.1477,-7.0887,-7.1625,-7.1655,-7.1437,-7.0937,-7.1398,-7.103,-6.9626,-6.9904,-7.0009,-6.9953,-6.9733,-6.9522,-6.9339,-6.8531,-6.8164,-6.8164,-6.7834,-6.7687,-6.7797,-6.9449,-7.011,-7.0257,-7.1872,-7.2496,-7.2496,-7.2496,-7.2496,-7.2496,-7.2496,-7.1671,-7.0503,-7.0239,-6.9526,-6.8809,-6.882,-6.9147,-6.9586,-6.9891,-6.9992,-6.9992,-6.9992,-6.9992,-6.9823,-6.9248,-6.9113,-6.9113,-6.9113,-6.9113,-6.8977,-6.847,-6.8368,-6.8132,-6.7387,-6.7252,-6.7151,-6.6846,-6.6812,-6.6812,-6.6812,-6.6812,-6.6812,-6.6812,-6.6812,-6.6643,-6.617,-6.6136,-6.5831,-6.5087,-6.5019,-6.4512,-6.3328,-6.299,-6.2854,-6.2854,-6.255,-6.2381,-6.2381,-6.2381,-6.2381,-6.2381,-6.2381,-6.2381,0.0,0.0,0.0,0.0,0.0,0.0,-6.8848,-7.1881,-7.386,-7.5553,0.0,-7.2399,-7.2322,-7.1014,-7.0437,-7.1937,-7.286,-7.3937,-7.5553,-7.4654,-7.404,-7.4548,-7.345,-7.2855,-7.3318,-7.2898,-7.2756,-7.3217,-7.2001,-7.1494,-7.2038,-7.1321,-7.0898,-7.0898,-7.0871,-7.0608,-7.0112,-6.953,-6.9391,-6.9679,-6.9147,-6.9376,-7.0183,-6.9302,-6.8862,-6.8752,-6.8017,-6.7687,-6.7797,-6.9449,-7.011,-7.0257,-7.1872,-7.2496,-7.2496,-7.2496,-7.2496,-7.2496,-7.2496,-7.139,-7.0062,-7.07,-6.971,-6.8506,-6.9931,-7.0317,-7.0432,-7.1109,-7.1312,-7.1312,-7.1312,-7.1312,-7.0973,-6.962,-6.9316,-6.9316,-6.9316,-6.9316,-6.9282,-6.9214,-6.9214,-6.8944,-6.8132,-6.7996,-6.776,-6.7015,-6.6914,-6.688,-6.6812,-6.6812,-6.6812,-6.6812,-6.6812,-6.6812,-6.6812,-6.6812,-6.6508,-6.5831,-6.5797,-6.5493,-6.4816,-6.4038,-6.3599,-6.3599,-6.2956,-6.255,-6.2482,-6.2482,-6.2448,-6.2381,-6.2381,-6.2381,0.0,0.0,0.0,0.0,0.0,0.0,-7.1132,-7.2112,-7.2976,-7.463,-7.4553,-7.3976,-7.336,-7.236,-7.1783,-7.2129,-7.236,-7.2822,-7.3899,-7.3788,-7.3644,-7.3731,-7.3466,-7.3067,-7.2552,-7.2366,-7.2083,-7.15,-7.1161,-7.1031,-7.1168,-7.1014,-7.0898,-7.0898,-7.0494,-7.0233,-7.0112,-6.9169,-6.9001,-6.9679,-6.9147,-6.9669,-7.0991,-6.9559,-6.8568,-6.7944,-6.776,-6.7687,-6.7797,-6.9449,-7.011,-7.0257,-7.1872,-7.2496,-7.2496,-7.2496,-7.2496,-7.2496,-7.2496,-7.2163,-7.177,-7.195,-7.1471,-7.0946,-7.1291,-7.1242,-7.1109,-7.1278,-7.1312,-7.1312,-7.1312,-7.1312,-7.1244,-7.0906,-7.0838,-7.0838,-7.0838,-7.0838,-7.0669,-7.006,-6.9958,-6.9722,-6.8977,-6.8842,-6.8571,-6.7793,-6.7658,-6.7455,-6.688,-6.6812,-6.6812,-6.6812,-6.6812,-6.6812,-6.6812,-6.6812,-6.6745,-6.6576,-6.6576,-6.6508,-6.6339,-6.5053,-6.4377,-6.4377,-6.4208,-6.3835,-6.326,-6.326,-6.2956,-6.2381,-6.2381,-6.2381,0.0,0.0,0.0,0.0,0.0,0.0,0.0,-7.1505,-7.2142,-7.3279,-7.386,-7.386,-7.3014,-7.2514,-7.2206,-7.2206,-7.2206,-7.2514,-7.3399,-7.3129,-7.2899,-7.2899,-7.2514,-7.2091,-7.1629,-7.1591,-7.1398,-7.0937,-7.0898,-7.0898,-7.0898,-7.0898,-7.0777,-7.0509,-7.0266,-6.9847,-6.9353,-6.8795,-6.8591,-6.8752,-6.884,-6.9559,-7.0697,-6.9853,-6.8825,-6.7687,-6.7687,-6.7687,-6.7797,-6.9009,-6.9743,-7.022,-7.1468,-7.2165,-7.2496,-7.2496,-7.2496,-7.2496,-7.2496,-7.2401,-7.2358,-7.2719,-7.2296,-7.1758,-7.2104,-7.179,-7.1312,-7.1312,-7.1312,-7.1312,-7.1312,-7.1312,-7.1312,-7.1312,-7.1312,-7.1312,-7.1312,-7.1312,-7.121,-7.0804,-7.0737,-7.05,-6.9755,-6.9316,-6.8977,-6.8538,-6.847,-6.8199,-6.7421,-6.7354,-6.7184,-6.6846,-6.6812,-6.6812,-6.6812,-6.6812,-6.6812,-6.6812,-6.6812,-6.6812,-6.6812,-6.6068,-6.5493,-6.5121,-6.4783,-6.441,-6.4038,-6.4038,-6.3835,-6.3429,-6.3429,-6.3429,0.0,0.0,0.0,0.0,0.0,0.0,0.0,-7.0735,-7.1336,-7.1867,-7.2783,-7.3245,-7.236,-7.2126,-7.2006,-7.1852,-7.1756,-7.1942,-7.2656,-7.2217,-7.1852,-7.1852,-7.128,-7.0898,-7.0898,-7.0898,-7.0898,-7.0898,-7.0898,-7.0898,-7.0898,-7.0805,-7.0539,-7.0112,-6.9918,-6.9415,-6.8637,-6.8464,-6.8161,-6.7836,-6.8696,-6.9376,-6.9889,-7.0036,-6.9302,-6.7907,-6.776,-6.7687,-6.776,-6.8568,-6.9376,-7.0183,-7.0991,-7.1798,-7.2496,-7.2496,-7.2496,-7.2532,-7.2679,-7.2741,-7.2875,-7.3602,-7.319,-7.2529,-7.3123,-7.2498,-7.159,-7.159,-7.1412,-7.1312,-7.1312,-7.1312,-7.1312,-7.1312,-7.1312,-7.1312,-7.1312,-7.1312,-7.1312,-7.1312,-7.1312,-7.1109,-7.05,-6.9891,-6.9451,-6.9316,-6.9282,-6.9011,-6.8199,-6.8098,-6.7827,-6.7083,-6.7015,-6.6948,-6.6812,-6.6812,-6.6812,-6.6812,-6.6812,-6.6812,-6.6812,-6.6812,-6.6508,-6.5899,-6.529,-6.4918,-6.4783,-6.4783,-6.4715,-6.4613,-6.4613,-6.4613,0.0,0.0,0.0,0.0,0.0,0.0,0.0,0.0,-7.0419,0.0,-7.236,-7.3245,-7.236,-7.1812,-7.1264,-7.0501,-7.0001,-6.972,-6.9833,-7.0167,-7.0386,-7.0386,-7.0699,-7.0898,-7.0898,-7.0898,-7.0898,-7.0898,-7.0898,-7.0898,-7.0898,-7.0463,-7.0162,-7.0112,-6.921,-6.8847,-6.919,-6.8284,-6.797,-6.8405,-6.9452,-6.9633,-6.9082,-6.9779,-6.9596,-6.8715,-6.7981,-6.7687,-6.776,-6.8568,-6.9376,-7.0183,-7.0991,-7.1798,-7.2496,-7.2496,-7.2496,-7.2606,-7.3303,-7.3978,-7.4665,-7.5501,-7.5531,-7.5261,-7.5369,-7.4082,-7.2624,-7.2624,-7.1969,-7.1312,-7.1312,-7.1312,-7.1312,-7.1312,-7.1312,-7.1312,-7.1312,-7.1312,-7.1312,-7.1312,-7.1312,-7.1278,-7.1176,-7.1075,-7.0804,-7.0128,-7.0026,-6.9755,-6.9045,-6.8944,-6.8639,-6.7827,-6.776,-6.7489,-6.688,-6.6812,-6.6812,-6.6812,-6.6812,-6.6812,-6.6812,-6.6812,-6.6779,-6.6677,-6.6576,-6.6203,-6.5527,-6.5527,-6.5222,-6.4613,-6.4613,-6.4613,0.0,0.0,0.0,0.0,0.0,0.0,0.0,0.0,-6.9873,-6.9804,-7.0988,-7.1937,-7.1552,-7.1271,-7.0923,-7.0222,-6.9883,-6.9757,-6.9757,-6.9936,-7.0195,-7.0509,-7.0494,-7.0593,-7.0885,-7.0346,-7.0266,-7.0871,-7.0622,-7.0463,-7.0463,-7.025,-6.9829,-6.9231,-6.875,-6.8464,-6.8392,-6.793,-6.781,-6.8084,-6.8987,-6.9229,-6.8898,-6.9265,-6.9229,-6.8862,-6.8054,-6.7687,-6.776,-6.8568,-6.9376,-7.0183,-7.0991,-7.1798,-7.2496,-7.2496,-7.2496,-7.2606,-7.3413,-7.4221,-7.5028,-7.5836,-7.5578,-7.494,-7.494,-7.3571,-7.196,-7.196,-7.1644,-7.1312,-7.1312,-7.1312,-7.1312,-7.1312,-7.1312,-7.1312,-7.1312,-7.1312,-7.1312,-7.1312,-7.1312,-7.1312,-7.1312,-7.1312,-7.121,-7.0872,-7.0804,-7.0534,-6.9789,-6.9722,-6.9417,-6.8639,-6.8571,-6.8436,-6.8132,-6.8098,-6.8098,-6.8098,-6.7658,-6.7421,-6.7421,-6.7015,-6.6812,-6.6812,-6.6812,-6.6643,-6.6305,-6.6305,-6.617,-6.5831,-6.5831,-6.5831,0.0,0.0,0.0,0.0,0.0,0.0,0.0,0.0,-6.9059,-6.8667,-6.9375,-7.0095,-7.0231,-7.0508,-7.0593,-7.0162,-7.0009,-6.9883,-6.9883,-7.0026,-7.0266,-7.0652,-7.0155,-6.9938,-7.0359,-6.9353,-6.9056,-6.9985,-6.991,-6.9807,-6.9752,-6.9839,-6.9492,-6.8535,-6.8511,-6.8235,-6.7714,-6.7687,-6.7687,-6.7714,-6.8531,-6.8898,-6.8898,-6.8898,-6.8898,-6.8862,-6.8054,-6.7687,-6.776,-6.8568,-6.9376,-7.0183,-7.0991,-7.1798,-7.2496,-7.2496,-7.2642,-7.2936,-7.3744,-7.4551,-7.5329,-7.5848,-7.559,-7.4975,-7.446,-7.3287,-7.2004,-7.1776,-7.1501,-7.1312,-7.1312,-7.1312,-7.1312,-7.1312,-7.1312,-7.1312,-7.1312,-7.1312,-7.1312,-7.1312,-7.1312,-7.1312,-7.1312,-7.1312,-7.1312,-7.1312,-7.1312,-7.1109,-7.0534,-7.0466,-7.0195,-6.9451,-6.9383,-6.9316,-6.9113,-6.9113,-6.9113,-6.9113,-6.8538,-6.8199,-6.8199,-6.7692,-6.7387,-6.7387,-6.7184,-6.7015,-6.6812,-6.6812,-6.6812,-6.6812,-6.6812,-6.6812,0.0,0.0,0.0,0.0,0.0,0.0,0.0,0.0,-6.7709,-6.767,-6.7709,-6.7951,-6.8446,-6.9406,-7.0129,-7.0112,-6.9683,-6.9353,-6.9353,-6.9775,-7.0112,-7.0129,-6.9442,-6.8962,-6.8979,-6.7786,-6.7239,-6.7747,-6.8504,-6.8929,-6.8874,-6.9152,-6.9085,-6.8535,-6.8511,-6.8235,-6.7714,-6.7687,-6.7687,-6.7714,-6.8531,-6.8898,-6.8898,-6.8898,-6.8898,-6.8862,-6.8054,-6.7687,-6.776,-6.8568,-6.9376,-7.0183,-7.0991,-7.1798,-7.2496,-7.2496,-7.2973,-7.3744,-7.4551,-7.5359,-7.6008,-7.5871,-7.6429,-7.6793,-7.4867,-7.4234,-7.3963,-7.3003,-7.2013,-7.1312,-7.1312,-7.1312,-7.1312,-7.1312,-7.1312,-7.1312,-7.1312,-7.1312,-7.1312,-7.1312,-7.1312,-7.1312,-7.1312,-7.1312,-7.1312,-7.1312,-7.1312,-7.1312,-7.1278,-7.1244,-7.0973,-7.0195,-7.0128,-6.9857,-6.9147,-6.9113,-6.9113,-6.9113,-6.9079,-6.9045,-6.9045,-6.9011,-6.8977,-6.8977,-6.8233,-6.7489,-6.6812,-6.6812,-6.6812,-6.6812,-6.6812,-6.6812,0.0,0.0,0.0,0.0,0.0,0.0,-6.1191,-6.3825,-6.6014,-6.5992,-6.6853,-6.7744,-6.8293,-6.8751,-6.8923,-6.8564,-6.8341,-6.8218,-6.8218,-6.8089,-6.8088,-6.8438,-6.7676,-6.7236,-6.7561,-6.6555,-6.6347,-6.7512,-6.7552,-6.7523,-6.7505,-6.7974,-6.8071,-6.7715,-6.7705,-6.7691,-6.7714,-6.7687,-6.7687,-6.7687,-6.7981,-6.8128,-6.8128,-6.8128,-6.8128,-6.8091,-6.7834,-6.7687,-6.7797,-6.9119,-6.9853,-7.022,-7.1541,-7.2275,-7.2496,-7.2496,-7.301,-7.3817,-7.4625,-7.5432,-7.6081,-7.5874,-7.5614,-7.512,-7.3733,-7.288,-7.2279,-7.196,-7.1896,-7.2022,-7.2022,-7.236,-7.2699,-7.2699,-7.2699,-7.2699,-7.2699,-7.1988,-7.1312,-7.1312,-7.1312,-7.1312,-7.1312,-7.1312,-7.1312,-7.1312,-7.1312,-7.1312,-7.1312,-7.1312,-7.121,-7.0939,-7.0906,-7.0804,-7.0534,-7.0534,-7.0534,-7.0534,-7.006,-6.9789,-6.9789,-6.935,-6.9113,-6.9113,-6.8808,-6.8301,-6.7489,-6.7049,-6.6812,-6.6812,-6.6812,-6.6812,-3.9892,0.0,0.0,0.0,0.0,0.0,-5.8429,-6.1091,-6.3074,-6.4062,-6.5366,-6.6529,-6.718,-6.7161,-6.7263,-6.7768,-6.7735,-6.76,-6.76,-6.7143,-6.6976,-6.7303,-6.6377,-6.5842,-6.6206,-6.5157,-6.5041,-6.6398,-6.6465,-6.6484,-6.6634,-6.7241,-6.7578,-6.7545,-6.7597,-6.7714,-6.7982,-6.7784,-6.7687,-6.7687,-6.7687,-6.7687,-6.7687,-6.7687,-6.7687,-6.7687,-6.7687,-6.7687,-6.7797,-6.9449,-7.011,-7.0257,-7.1872,-7.2496,-7.2532,-7.2789,-7.3413,-7.4221,-7.5028,-7.5836,-7.6386,-7.5574,-7.5048,-7.4498,-7.2797,-7.2227,-7.2073,-7.174,-7.2191,-7.2766,-7.2766,-7.3105,-7.3477,-7.3477,-7.3477,-7.3477,-7.3477,-7.2732,-7.2056,-7.2056,-7.1853,-7.1684,-7.1684,-7.1481,-7.1312,-7.1312,-7.1312,-7.1312,-7.1312,-7.1312,-7.1312,-7.1312,-7.1312,-7.1312,-7.1312,-7.1312,-7.1312,-7.1312,-7.0838,-7.0567,-7.0567,-7.0094,-6.9857,-6.9857,-6.9586,-6.9214,-6.8673,-6.7929,-6.759,-6.759,-6.732,-6.7049,0.0,0.0,0.0,0.0,0.0,0.0,-5.7818,0.0,-5.8856,-6.1826,-6.3047,-6.3848,-6.4832,-6.4675,-6.5227,-6.784,-6.7844,-6.7502,-6.7502,-6.7085,-6.6823,-6.6823,-6.5661,-6.4845,-6.4845,-6.3601,-6.3224,-6.4313,-6.5106,-6.5764,-6.6255,-6.7109,-6.7704,-6.7934,-6.8287,-6.8511,-6.8487,-6.7956,-6.7687,-6.7687,-6.7687,-6.7687,-6.7687,-6.7687,-6.7687,-6.7687,-6.7687,-6.7687,-6.7797,-6.9449,-7.011,-7.0257,-7.1872,-7.2496,-7.2606,-7.3377,-7.4221,-7.5028,-7.5836,-7.6613,-7.6956,-7.494,-7.494,-7.5156,-7.2228,-7.2517,-7.3644,-7.2677,-7.2969,-7.351,-7.3544,-7.3544,-7.3544,-7.3544,-7.3544,-7.3544,-7.3544,-7.3544,-7.3544,-7.3477,-7.2902,-7.2428,-7.2428,-7.1853,-7.1379,-7.1379,-7.1379,-7.1345,-7.1345,-7.1312,-7.1312,-7.1312,-7.1312,-7.1312,-7.1312,-7.1312,-7.1312,-7.1312,-7.1312,-7.1312,-7.1312,-7.1312,-7.1312,-7.1312,-7.0601,-7.0229,-7.0229,-6.9451,-6.9113,-6.9079,-6.8301,-6.7557,-3.7892,0.0,0.0,0.0,0.0,0.0,-4.9611,-5.0926,-5.273,-5.7915,-5.8372,-5.8927,-6.2612,-6.3386,-6.3795,-6.4909,-6.5187,-6.5271,-6.5271,-6.4835,-6.4524,-6.4524,-6.3845,-6.337,-6.337,-6.3015,-6.3224,-6.4313,-6.4615,-6.4931,-6.541,-6.6456,-6.6858,-6.6559,-6.7798,-6.8333,-6.793,-6.7757,-6.7687,-6.7687,-6.7687,-6.7687,-6.7687,-6.7687,-6.7687,-6.7687,-6.7687,-6.7687,-6.7797,-6.9449,-7.011,-7.0257,-7.1872,-7.2496,-7.2606,-7.3377,-7.4221,-7.5028,-7.5836,-7.6131,-7.5993,-7.472,-7.4005,-7.3437,-7.239,-7.2417,-7.2835,-7.3095,-7.3713,-7.4424,-7.4931,-7.51,-7.51,-7.51,-7.51,-7.51,-7.51,-7.51,-7.4762,-7.368,-7.3341,-7.3172,-7.3172,-7.3003,-7.2868,-7.2868,-7.2428,-7.209,-7.209,-7.165,-7.1312,-7.1312,-7.1312,-7.1312,-7.1312,-7.1312,-7.1312,-7.1312,-7.1312,-7.1312,-7.1312,-7.1312,-7.1312,-7.1312,-7.1109,-7.1007,-7.1007,-6.9722,-6.9113,-6.9079,-6.8876,-6.8673,-3.8969,-4.0008,-4.1747,-4.2439,0.0,0.0,-4.7846,-4.8419,-4.9694,-5.6027,-5.6811,-5.7422,-6.0883,-6.1797,-6.214,-6.2437,-6.325,-6.3917,-6.4041,-6.3593,-6.3285,-6.3285,-6.299,-6.278,-6.278,-6.278,-6.3224,-6.4313,-6.4389,-6.459,-6.5083,-6.6179,-6.6524,-6.6015,-6.7654,-6.8235,-6.7714,-6.7687,-6.7687,-6.7687,-6.7687,-6.7687,-6.7687,-6.7687,-6.7687,-6.7687,-6.7687,-6.7687,-6.7797,-6.9449,-7.011,-7.0257,-7.1872,-7.2496,-7.2642,-7.378,-7.4515,-7.5065,-7.6203,-7.6523,-7.6197,-7.4757,-7.41,-7.3688,-7.2686,-7.2834,-7.3409,-7.3849,-7.4492,-7.5168,-7.5574,-7.5709,-7.5709,-7.5709,-7.5709,-7.5709,-7.5709,-7.5709,-7.5439,-7.4559,-7.4153,-7.395,-7.395,-7.368,-7.3477,-7.3477,-7.3105,-7.2868,-7.2868,-7.2225,-7.1751,-7.1751,-7.1481,-7.1312,-7.1312,-7.1312,-7.1312,-7.1312,-7.1312,-7.1312,-7.1312,-7.1312,-7.1312,-7.1312,-7.1312,-7.1312,-7.1312,-7.0466,-6.9857,-6.9553,-6.9553,-6.9383,-4.04,-4.1431,-4.3547,-4.4863,-4.2516,0.0,-4.8885,-4.8346,-4.8115,-5.4468,-5.5963,-5.6754,-5.8787,-5.9571,-5.9867,-5.9845,-6.1428,-6.288,-6.3398,-6.3164,-6.2917,-6.2805,-6.2855,-6.288,-6.2805,-6.2855,-6.3294,-6.4313,-6.4426,-6.4608,-6.49,-6.5993,-6.6366,-6.5938,-6.7462,-6.8087,-6.7714,-6.7687,-6.7687,-6.7687,-6.7687,-6.7687,-6.7687,-6.7687,-6.7687,-6.7687,-6.7687,-6.7687,-6.7797,-6.9449,-7.011,-7.0257,-7.1872,-7.2496,-7.2679,-7.4331,-7.4918,-7.5139,-7.6723,-7.7212,-7.6824,-7.4903,-7.4726,-7.4892,-7.3068,-7.351,-7.4627,-7.4695,-7.5202,-7.5709,-7.5709,-7.5709,-7.5709,-7.5709,-7.5709,-7.5709,-7.5709,-7.5709,-7.5709,-7.5709,-7.5168,-7.4728,-7.4728,-7.4187,-7.3713,-7.3713,-7.3646,-7.3612,-7.3612,-7.2969,-7.2529,-7.2529,-7.1954,-7.1548,-7.1548,-7.1548,-7.1548,-7.1548,-7.1548,-7.1548,-7.1548,-7.1481,-7.1447,-7.1447,-7.1345,-7.1312,-7.1312,-7.1312,-7.0973,-7.0297,-7.0297,-6.9958,-4.2854,-4.3201,-4.3816,-4.2816,-4.2931,0.0,-4.2008,-4.2316,-4.3853,-4.7537,-4.7791,-4.8694,-5.316,-5.4829,-5.5433,-5.5093,-5.7845,-6.0642,-6.2311,-6.3443,-6.3787,-6.2892,-6.3168,-6.3285,-6.2855,-6.3191,-6.3702,-6.4332,-6.4748,-6.4661,-6.3917,-6.4705,-6.5268,-6.5432,-6.639,-6.7148,-6.7714,-6.7687,-6.7687,-6.7687,-6.7687,-6.7687,-6.7687,-6.7687,-6.7687,-6.7687,-6.7687,-6.7687,-6.7797,-6.9449,-7.011,-7.0257,-7.1872,-7.2496,-7.2679,-7.4331,-7.4918,-7.5139,-7.6723,-7.6761,-7.5891,-7.4684,-7.426,-7.4052,-7.3493,-7.3916,-7.4728,-7.5337,-7.5574,-7.5709,-7.5709,-7.5709,-7.5709,-7.5709,-7.5709,-7.5709,-7.5709,-7.5709,-7.5709,-7.5709,-7.5574,-7.5473,-7.5473,-7.5371,-7.527,-7.527,-7.4762,-7.439,-7.439,-7.3747,-7.3274,-7.3274,-7.3138,-7.3071,-7.3071,-7.3071,-7.3071,-7.3071,-7.3071,-7.3071,-7.3071,-7.2496,-7.2191,-7.2191,-7.1616,-7.1312,-7.1312,-7.1312,-7.1244,-7.1109,-7.1109,-7.1007,-4.4393,-4.4316,-4.4855,-4.4432,-4.3701,0.0,0.0,-4.2431,-4.2804,-4.6403,-4.6143,-4.6421,-5.0259,-5.1445,-5.2056,-5.2712,-5.5809,-5.841,-5.9148,-6.1262,-6.247,-6.1691,-6.2063,-6.2287,-6.2194,-6.2655,-6.3254,-6.3958,-6.4236,-6.4138,-6.3615,-6.4156,-6.4709,-6.5264,-6.6072,-6.688,-6.7687,-6.7687,-6.7687,-6.7687,-6.7687,-6.7687,-6.7687,-6.7687,-6.7687,-6.7687,-6.7687,-6.7907,-6.8385,-6.9596,-7.033,-7.0807,-7.2018,-7.2496,-7.2679,-7.4331,-7.4918,-7.5139,-7.6723,-7.6988,-7.6297,-7.4794,-7.4702,-7.4955,-7.3821,-7.4255,-7.5236,-7.5608,-7.5709,-7.5709,-7.5709,-7.5709,-7.5709,-7.5709,-7.5709,-7.5709,-7.5709,-7.5709,-7.5709,-7.5709,-7.5709,-7.5709,-7.5709,-7.5709,-7.5709,-7.5709,-7.5405,-7.5168,-7.5168,-7.4492,-7.4052,-7.4052,-7.3713,-7.3477,-7.3477,-7.3477,-7.3477,-7.3477,-7.3477,-7.3477,-7.3477,-7.3138,-7.2935,-7.2935,-7.2597,-7.2225,-7.1853,-7.1853,-7.1684,-7.1312,-7.1312,-7.1312,-4.6663,-4.6509,-4.7201,-4.6778,-4.5201,-4.4038,0.0,0.0,0.0,-4.624,-4.5932,-4.5787,-4.8009,-4.8548,-4.9009,-5.0038,-5.3203,-5.5313,-5.461,-5.7342,-5.9516,-5.97,-6.0417,-6.0953,-6.1126,-6.1443,-6.2072,-6.3185,-6.2977,-6.2934,-6.3311,-6.3664,-6.431,-6.5264,-6.5925,-6.6733,-6.7687,-6.7687,-6.7687,-6.7687,-6.7687,-6.7687,-6.7687,-6.7687,-6.7687,-6.7687,-6.7687,-6.8164,-6.8972,-6.9779,-7.0587,-7.1366,-7.2202,-7.2496,-7.2679,-7.4331,-7.4918,-7.5139,-7.6723,-7.7273,-7.6988,-7.5192,-7.5298,-7.5889,-7.4389,-7.4762,-7.5709,-7.5709,-7.5709,-7.5709,-7.5709,-7.5709,-7.5709,-7.5709,-7.5709,-7.5709,-7.5709,-7.5709,-7.5709,-7.5709,-7.5709,-7.5709,-7.5709,-7.5709,-7.5709,-7.5709,-7.5709,-7.5709,-7.5709,-7.5202,-7.483,-7.483,-7.4289,-7.3916,-7.3916,-7.3916,-7.3916,-7.3916,-7.3916,-7.3916,-7.3916,-7.3781,-7.3646,-7.3477,-7.3477,-7.3206,-7.2597,-7.2597,-7.2157,-7.1312,-7.1312,-7.1312,-5.1769,-5.2241,-5.2241,-4.7057,-4.8279,-4.8885,-4.1777,0.0,-4.3739,-4.2731,0.0,-4.3701,-4.4701,0.0,0.0,-4.4316,-4.7586,-4.9823,-4.8603,-5.1342,-5.4421,-5.6887,-5.8937,-5.9961,-5.9609,-5.9332,-5.9977,-6.1976,-6.066,-6.0546,-6.2343,-6.2754,-6.3686,-6.5264,-6.5411,-6.6182,-6.7687,-6.7687,-6.7687,-6.7687,-6.7687,-6.7687,-6.7687,-6.7687,-6.7687,-6.7687,-6.7687,-6.8164,-6.8972,-6.9779,-7.0587,-7.1366,-7.2202,-7.2496,-7.2679,-7.4331,-7.4918,-7.5139,-7.6723,-7.7273,-7.7118,-7.5993,-7.5413,-7.5198,-7.542,-7.5574,-7.5709,-7.5709,-7.5709,-7.5709,-7.5709,-7.5709,-7.5709,-7.5709,-7.5709,-7.5709,-7.5709,-7.5709,-7.5709,-7.5709,-7.5709,-7.5709,-7.5709,-7.5709,-7.5709,-7.5709,-7.5709,-7.5709,-7.5709,-7.5642,-7.5574,-7.5574,-7.5506,-7.5439,-7.5439,-7.5439,-7.5439,-7.5439,-7.5439,-7.5439,-7.5439,-7.483,-7.4153,-7.351,-7.3477,-7.3443,-7.3375,-7.3375,-7.2665,-7.1312,-7.1312,-7.1312,-5.201,-5.2087,-5.2164,-4.8663,-4.8394,-4.7817,-4.3239,-4.2547,-4.2777,-4.2585,0.0,0.0,0.0,0.0,0.0,0.0,-4.5393,-4.7002,-4.6444,-4.8033,-5.0416,-5.3521,-5.4503,-5.5413,-5.6679,-5.7737,-5.8925,-6.0299,-5.8972,-5.9149,-6.1481,-6.1905,-6.3099,-6.5228,-6.5301,-6.6072,-6.7677,-6.7687,-6.7687,-6.7687,-6.7687,-6.7687,-6.7687,-6.7687,-6.7687,-6.7724,-6.8201,-6.8862,-6.9669,-7.0477,-7.1284,-7.2055,-7.2386,-7.2789,-7.334,-7.4478,-7.5212,-7.5763,-7.687,-7.7273,-7.7166,-7.6446,-7.5563,-7.4901,-7.5513,-7.5709,-7.5709,-7.5709,-7.5709,-7.5709,-7.5709,-7.5709,-7.5709,-7.5709,-7.5709,-7.5709,-7.5709,-7.5709,-7.5709,-7.5709,-7.5709,-7.5709,-7.5709,-7.5709,-7.5709,-7.5709,-7.5709,-7.5709,-7.5709,-7.5709,-7.5709,-7.5709,-7.5709,-7.5709,-7.5709,-7.5709,-7.5709,-7.5709,-7.5709,-7.5709,-7.5709,-7.5405,-7.51,-7.4762,-7.4762,-7.4559,-7.4153,-7.4153,-7.3612,-7.2563,-7.2563,-7.236,-5.3626,-5.3356,-5.3192,-4.9856,-4.8317,-4.6894,-4.4239,-4.3201,-4.3085,-4.397,-4.4008,0.0,0.0,0.0,-4.3201,0.0,0.0,-4.5094,-4.4624,-4.5086,-4.6751,-5.0069,-5.0799,-5.1814,-5.3769,-5.4994,-5.6305,-5.7985,-5.6686,-5.7299,-6.0774,-6.1186,-6.2511,-6.5228,-6.5301,-6.6072,-6.7677,-6.7687,-6.7687,-6.7687,-6.7687,-6.7687,-6.7687,-6.7687,-6.7687,-6.7724,-6.8568,-6.9376,-7.0146,-7.0991,-7.1798,-7.2496,-7.2496,-7.312,-7.4111,-7.4698,-7.5432,-7.624,-7.7047,-7.7228,-7.7109,-7.6647,-7.5832,-7.5114,-7.5567,-7.5709,-7.5709,-7.5709,-7.5709,-7.5709,-7.5709,-7.5709,-7.5709,-7.5709,-7.5709,-7.5709,-7.5709,-7.5709,-7.5709,-7.5709,-7.5709,-7.5709,-7.5709,-7.5709,-7.5709,-7.5709,-7.5709,-7.5709,-7.5709,-7.5709,-7.5709,-7.5709,-7.5709,-7.5709,-7.5709,-7.5709,-7.5709,-7.5709,-7.5709,-7.5709,-7.5709,-7.5709,-7.5709,-7.5709,-7.5709,-7.5439,-7.4897,-7.4897,-7.4627,-7.4086,-7.368,-7.3206,-5.8781,-5.8627,-5.7473,-5.001,-4.874,-4.8009,-4.3008,-4.3739,-4.5748,-4.6586,-4.8048,-4.8894,-4.8086,-4.7278,-4.5932,0.0,0.0,0.0,0.0,-4.1962,-4.3222,-4.6665,-4.9221,-5.0877,-5.1269,-5.0331,-5.119,-5.4876,-5.318,-5.4493,-6.032,-6.0499,-6.1924,-6.5191,-6.5301,-6.6072,-6.7677,-6.7687,-6.7687,-6.7687,-6.7687,-6.7687,-6.7687,-6.7687,-6.7687,-6.7724,-6.8568,-6.9376,-7.0146,-7.0991,-7.1798,-7.2496,-7.2496,-7.3487,-7.4882,-7.4918,-7.5432,-7.624,-7.7047,-7.7138,-7.6875,-7.6597,-7.6298,-7.5982,-7.5735,-7.5709,-7.5709,-7.5709,-7.5709,-7.5709,-7.5709,-7.5709,-7.5709,-7.5709,-7.5709,-7.5709,-7.5709,-7.5709,-7.5709,-7.5709,-7.5709,-7.5709,-7.5709,-7.5709,-7.5709,-7.5709,-7.5709,-7.5709,-7.5709,-7.5709,-7.5709,-7.5709,-7.5709,-7.5709,-7.5709,-7.5709,-7.5709,-7.5709,-7.5709,-7.5709,-7.5709,-7.5709,-7.5709,-7.5709,-7.5709,-7.5676,-7.5676,-7.5676,-7.5642,-7.5608,-7.4153,-7.3477,-6.1358,-6.1396,-6.0589,-5.4626,-5.251,-5.0587,-4.547,-4.5855,-4.7201,-4.6971,-4.9115,-5.0471,-4.8471,-4.7894,-4.6855,0.0,0.0,0.0,0.0,-4.0469,-4.0777,-4.247,-4.5932,-4.8001,-4.7547,-4.9182,-5.1009,-5.2812,-5.2271,-5.3941,-5.8699,-5.935,-6.1117,-6.4383,-6.5007,-6.6072,-6.7677,-6.7687,-6.7687,-6.7687,-6.7687,-6.7687,-6.7687,-6.7687,-6.7981,-6.8531,-6.9339,-7.0146,-7.0954,-7.1762,-7.2275,-7.2569,-7.3083,-7.3964,-7.4918,-7.4918,-7.5763,-7.7047,-7.7892,-7.7502,-7.6712,-7.7181,-7.664,-7.582,-7.575,-7.5709,-7.5709,-7.5709,-7.5709,-7.5709,-7.5709,-7.5709,-7.5709,-7.5709,-7.5709,-7.5709,-7.5709,-7.5709,-7.5709,-7.5709,-7.5709,-7.5709,-7.5709,-7.5709,-7.5709,-7.5709,-7.5709,-7.5709,-7.5709,-7.5709,-7.5709,-7.5709,-7.5709,-7.5709,-7.5709,-7.5709,-7.5709,-7.5709,-7.5709,-7.5709,-7.5709,-7.5709,-7.5709,-7.5709,-7.5709,-7.5709,-7.5709,-7.5709,-7.5709,-7.5676,-7.5202,-7.4695,-6.3512,-6.3589,-6.3089,-5.8242,-5.6242,-5.4203,-4.9394,-4.9856,-5.1048,-5.0202,-5.1741,-5.2933,-5.1933,-5.024,-4.8394,0.0,0.0,0.0,0.0,-3.9438,-3.9592,-4.04,-4.347,-4.5663,-4.6009,-4.6886,-4.8336,-5.0647,-5.0041,-5.1598,-5.6306,-5.7968,-6.0272,-6.3539,-6.4714,-6.6072,-6.7677,-6.7687,-6.7687,-6.7687,-6.7687,-6.7687,-6.7687,-6.7687,-6.8128,-6.8935,-6.9743,-7.055,-7.1329,-7.2165,-7.2496,-7.2569,-7.3377,-7.4184,-7.4955,-7.5212,-7.6166,-7.7353,-7.7838,-7.7342,-7.6561,-7.7046,-7.6528,-7.5709,-7.5709,-7.5709,-7.5709,-7.5709,-7.5709,-7.5777,-7.6048,-7.6115,-7.6183,-7.6454,-7.6521,-7.6521,-7.6521,-7.6521,-7.6521,-7.6521,-7.6521,-7.6521,-7.6521,-7.6521,-7.6318,-7.5777,-7.5709,-7.5709,-7.5709,-7.5709,-7.5709,-7.5709,-7.5709,-7.5709,-7.5709,-7.5709,-7.5709,-7.5709,-7.5709,-7.5709,-7.5709,-7.5709,-7.5709,-7.5709,-7.5709,-7.5709,-7.5709,-7.5709,-7.5709,-7.5709,-7.5709,-7.5439]},{"header":{"parameterUnit":"m.s-1","parameterCategory":1,"la1":30.6,"la2":29.2853,"lo1":-89.7004,"lo2":-87.6739,"dy":0.0162,"dx":0.0183,"nx":112,"ny":82,"refTime":"2026-02-25T12:00:00:Z","depth":0,"parameterNumber":3,"parameterNumberName":"V-component_of_WINDS"},"data":[0.0,0.0,0.0,0.0,0.0,0.0,0.0,0.0,0.0,0.0,0.0,0.0,0.0,0.0,0.0,0.0,0.0,0.0,0.0,0.0,0.0,0.0,0.0,0.0,0.0,0.0,0.0,0.0,0.0,0.0,0.0,0.0,0.0,0.0,0.0,0.0,0.0,0.0,0.0,0.0,0.0,0.0,0.0,0.0,0.0,0.0,0.0,0.0,0.0,0.0,0.0,0.0,0.0,0.0,0.0,0.0,0.0,0.0,0.0,0.0,0.0,0.0,0.0,0.0,0.0,0.0,0.0,0.0,0.0,0.0,0.0,0.0,0.0,0.0,0.0,0.0,0.0,0.0,0.0,0.0,0.0,0.0,0.0,0.0,0.0,0.0,0.0,0.0,0.0,0.0,-1.6546,-1.9447,-2.1668,-2.2766,-2.2512,-2.2365,-2.1243,-1.8784,0.0,0.0,0.0,0.0,0.0,0.0,0.0,0.0,0.0,0.0,0.0,0.0,0.0,0.0,0.0,0.0,0.0,0.0,0.0,0.0,0.0,0.0,0.0,0.0,0.0,0.0,0.0,0.0,0.0,0.0,0.0,0.0,0.0,0.0,0.0,0.0,0.0,0.0,0.0,0.0,0.0,0.0,0.0,0.0,0.0,0.0,0.0,0.0,0.0,0.0,0.0,0.0,0.0,0.0,0.0,0.0,0.0,0.0,0.0,0.0,0.0,0.0,0.0,0.0,0.0,0.0,0.0,0.0,0.0,0.0,0.0,0.0,0.0,0.0,0.0,0.0,0.0,0.0,0.0,0.0,0.0,0.0,0.0,0.0,0.0,0.0,0.0,0.0,0.0,0.0,0.0,0.0,0.0,0.0,0.0,0.0,0.0,0.0,0.0,0.0,0.0,0.0,0.0,0.0,-1.6549,-2.0806,-2.2271,-2.2914,-2.2806,-2.2177,-2.1052,-1.939,0.0,0.0,0.0,0.0,0.0,0.0,0.0,0.0,0.0,0.0,0.0,0.0,0.0,0.0,0.0,0.0,0.0,0.0,0.0,0.0,0.0,0.0,0.0,0.0,0.0,0.0,0.0,0.0,0.0,0.0,0.0,0.0,0.0,0.0,0.0,0.0,0.0,0.0,0.0,0.0,0.0,0.0,0.0,0.0,0.0,0.0,0.0,0.0,0.0,0.0,0.0,0.0,0.0,0.0,0.0,0.0,0.0,0.0,0.0,0.0,0.0,0.0,0.0,0.0,0.0,0.0,0.0,0.0,0.0,0.0,0.0,0.0,0.0,0.0,0.0,0.0,0.0,0.0,0.0,0.0,0.0,0.0,0.0,0.0,0.0,0.0,0.0,0.0,0.0,0.0,0.0,0.0,0.0,0.0,0.0,0.0,0.0,0.0,0.0,0.0,0.0,0.0,0.0,-1.6895,-1.8464,-2.151,-2.2499,-2.2792,-2.2632,-2.2111,-2.1029,-1.9239,-1.7862,0.0,0.0,0.0,0.0,0.0,0.0,0.0,0.0,0.0,0.0,0.0,0.0,0.0,0.0,0.0,0.0,0.0,0.0,0.0,0.0,0.0,0.0,0.0,0.0,0.0,0.0,0.0,0.0,0.0,0.0,0.0,0.0,0.0,0.0,0.0,0.0,0.0,0.0,0.0,0.0,0.0,0.0,0.0,0.0,0.0,0.0,0.0,0.0,0.0,0.0,0.0,0.0,0.0,0.0,0.0,0.0,0.0,0.0,0.0,0.0,0.0,0.0,0.0,0.0,0.0,0.0,0.0,0.0,0.0,0.0,0.0,0.0,0.0,0.0,0.0,0.0,0.0,0.0,0.0,0.0,0.0,0.0,0.0,0.0,0.0,0.0,0.0,0.0,0.0,0.0,0.0,0.0,0.0,0.0,0.0,0.0,0.0,0.0,0.0,0.0,0.0,0.0,-1.9252,-2.0347,-2.183,-2.2445,-2.2672,-2.2432,-2.183,-2.0748,-1.9038,-1.7275,0.0,0.0,0.0,0.0,0.0,0.0,0.0,0.0,0.0,0.0,0.0,0.0,0.0,0.0,0.0,0.0,0.0,0.0,0.0,0.0,0.0,0.0,0.0,0.0,0.0,0.0,0.0,0.0,0.0,0.0,0.0,0.0,0.0,0.0,0.0,0.0,0.0,0.0,0.0,0.0,0.0,0.0,0.0,0.0,0.0,0.0,0.0,0.0,0.0,0.0,0.0,0.0,0.0,0.0,0.0,0.0,0.0,0.0,0.0,0.0,0.0,0.0,0.0,0.0,0.0,0.0,0.0,0.0,0.0,0.0,0.0,0.0,0.0,0.0,0.0,0.0,0.0,0.0,0.0,0.0,0.0,0.0,0.0,0.0,0.0,0.0,0.0,0.0,0.0,0.0,0.0,0.0,0.0,0.0,0.0,0.0,0.0,0.0,0.0,0.0,0.0,0.0,-1.9452,-2.1243,-2.1911,-2.2258,-2.2445,-2.2418,-2.0909,-1.9653,-1.8971,-1.6513,0.0,0.0,0.0,0.0,0.0,0.0,0.0,0.0,0.0,0.0,0.0,0.0,0.0,0.0,0.0,0.0,0.0,0.0,0.0,0.0,0.0,0.0,0.0,0.0,0.0,0.0,0.0,0.0,0.0,0.0,0.0,0.0,0.0,0.0,0.0,0.0,0.0,0.0,0.0,0.0,0.0,0.0,0.0,0.0,0.0,0.0,0.0,0.0,0.0,0.0,0.0,0.0,0.0,0.0,0.0,0.0,0.0,0.0,0.0,0.0,0.0,0.0,0.0,0.0,0.0,0.0,0.0,0.0,0.0,0.0,0.0,0.0,0.0,0.0,0.0,0.0,0.0,0.0,0.0,0.0,0.0,0.0,0.0,0.0,0.0,0.0,0.0,0.0,0.0,0.0,0.0,0.0,0.0,0.0,0.0,0.0,0.0,0.0,0.0,0.0,0.0,0.0,-1.8945,-2.0454,-2.1655,-2.1977,-2.2071,-2.1897,-2.1109,-1.9973,-1.845,0.0,0.0,0.0,0.0,0.0,0.0,0.0,0.0,0.0,0.0,0.0,0.0,0.0,0.0,0.0,0.0,0.0,0.0,0.0,0.0,0.0,0.0,0.0,0.0,0.0,0.0,0.0,0.0,0.0,0.0,0.0,0.0,0.0,0.0,0.0,0.0,0.0,0.0,0.0,0.0,0.0,0.0,0.0,0.0,0.0,0.0,0.0,0.0,0.0,0.0,0.0,0.0,0.0,0.0,0.0,0.0,0.0,0.0,0.0,0.0,0.0,0.0,0.0,0.0,0.0,0.0,0.0,0.0,0.0,0.0,0.0,0.0,0.0,0.0,0.0,0.0,0.0,0.0,0.0,0.0,0.0,0.0,0.0,0.0,0.0,0.0,0.0,0.0,0.0,0.0,0.0,0.0,0.0,0.0,0.0,0.0,0.0,0.0,0.0,0.0,0.0,0.0,-1.7301,-1.8878,-2.0267,-2.1614,-2.1871,-2.1911,-2.171,-2.0989,-1.9786,-1.7996,0.0,0.0,0.0,0.0,0.0,0.0,0.0,0.0,0.0,0.0,0.0,0.0,0.0,0.0,0.0,0.0,0.0,0.0,0.0,0.0,0.0,0.0,0.0,0.0,0.0,0.0,0.0,0.0,0.0,0.0,0.0,0.0,0.0,0.0,0.0,0.0,0.0,0.0,0.0,0.0,0.0,0.0,0.0,0.0,0.0,0.0,0.0,0.0,0.0,0.0,0.0,0.0,0.0,0.0,0.0,0.0,0.0,0.0,0.0,0.0,0.0,0.0,0.0,0.0,0.0,0.0,0.0,0.0,0.0,0.0,0.0,0.0,0.0,0.0,0.0,0.0,0.0,0.0,0.0,0.0,0.0,0.0,0.0,0.0,0.0,0.0,0.0,0.0,0.0,0.0,0.0,0.0,0.0,0.0,0.0,0.0,0.0,0.0,0.0,0.0,0.0,0.0,-1.7355,-1.9399,-2.1015,-2.1897,-2.1991,-2.1991,-2.1977,-2.0388,-1.8865,0.0,0.0,0.0,0.0,0.0,0.0,0.0,0.0,0.0,0.0,0.0,0.0,0.0,0.0,0.0,0.0,0.0,0.0,0.0,0.0,0.0,0.0,0.0,0.0,0.0,0.0,0.0,0.0,0.0,0.0,0.0,0.0,0.0,0.0,0.0,0.0,0.0,0.0,0.0,0.0,0.0,0.0,0.0,0.0,0.0,0.0,0.0,0.0,0.0,0.0,0.0,0.0,0.0,0.0,0.0,0.0,0.0,0.0,0.0,0.0,0.0,0.0,0.0,0.0,0.0,0.0,0.0,0.0,0.0,0.0,0.0,0.0,0.0,0.0,0.0,0.0,0.0,0.0,0.0,0.0,0.0,0.0,0.0,0.0,0.0,0.0,0.0,0.0,0.0,0.0,0.0,0.0,0.0,0.0,0.0,0.0,0.0,0.0,0.0,0.0,0.0,0.0,0.0,-1.7662,-1.9533,-2.1015,-2.1897,-2.1991,-2.1897,-2.1762,-2.0891,-1.9484,-1.746,0.0,0.0,0.0,0.0,0.0,0.0,0.0,0.0,0.0,0.0,0.0,0.0,0.0,0.0,0.0,0.0,0.0,0.0,0.0,0.0,0.0,0.0,0.0,0.0,0.0,0.0,0.0,0.0,0.0,0.0,0.0,0.0,0.0,0.0,0.0,0.0,0.0,0.0,0.0,0.0,0.0,0.0,0.0,0.0,0.0,0.0,0.0,0.0,0.0,0.0,0.0,0.0,0.0,0.0,0.0,0.0,0.0,0.0,0.0,0.0,0.0,0.0,0.0,0.0,0.0,0.0,0.0,0.0,0.0,0.0,0.0,0.0,0.0,0.0,0.0,0.0,0.0,0.0,0.0,0.0,0.0,0.0,0.0,0.0,0.0,0.0,0.0,0.0,0.0,0.0,0.0,0.0,0.0,0.0,0.0,0.0,0.0,0.0,0.0,0.0,0.0,0.0,-1.7716,-1.9586,-2.1056,-2.2058,-2.2058,-2.1911,-2.1737,-2.1082,-1.9725,-1.7353,0.0,0.0,0.0,0.0,0.0,0.0,0.0,0.0,0.0,0.0,0.0,0.0,0.0,0.0,0.0,0.0,0.0,0.0,0.0,0.0,0.0,0.0,0.0,0.0,0.0,0.0,0.0,0.0,0.0,0.0,0.0,0.0,0.0,0.0,0.0,0.0,0.0,0.0,0.0,0.0,0.0,0.0,0.0,0.0,0.0,0.0,0.0,0.0,0.0,0.0,0.0,0.0,0.0,0.0,0.0,0.0,0.0,0.0,0.0,0.0,0.0,0.0,0.0,0.0,0.0,0.0,0.0,0.0,0.0,0.0,0.0,0.0,0.0,0.0,0.0,0.0,0.0,0.0,0.0,0.0,0.0,0.0,0.0,0.0,0.0,0.0,0.0,0.0,0.0,0.0,0.0,0.0,0.0,0.0,0.0,0.0,0.0,0.0,0.0,0.0,0.0,0.0,-1.7756,-1.9599,-2.1149,-2.2258,-2.2164,-2.2004,-2.1951,-2.1162,-1.9693,-1.7434,0.0,0.0,0.0,0.0,0.0,0.0,0.0,0.0,0.0,0.0,0.0,0.0,0.0,0.0,0.0,0.0,0.0,0.0,0.0,0.0,0.0,0.0,0.0,0.0,0.0,0.0,0.0,0.0,0.0,0.0,0.0,0.0,0.0,0.0,0.0,0.0,0.0,0.0,0.0,0.0,0.0,0.0,0.0,0.0,0.0,0.0,0.0,0.0,0.0,0.0,0.0,0.0,0.0,0.0,0.0,0.0,0.0,0.0,0.0,0.0,-1.5458,-1.554,0.0,0.0,0.0,0.0,0.0,0.0,0.0,0.0,0.0,0.0,0.0,0.0,0.0,0.0,0.0,0.0,0.0,0.0,0.0,0.0,0.0,0.0,0.0,0.0,0.0,0.0,0.0,0.0,0.0,0.0,0.0,0.0,0.0,0.0,0.0,0.0,0.0,0.0,0.0,0.0,-1.7716,-1.9786,-2.1283,-2.2004,-2.2231,-2.2138,-2.1748,-2.1042,-1.9867,-1.7969,-1.6246,0.0,0.0,0.0,0.0,0.0,0.0,0.0,0.0,0.0,0.0,0.0,0.0,0.0,0.0,0.0,0.0,0.0,0.0,0.0,0.0,0.0,0.0,0.0,0.0,0.0,0.0,0.0,0.0,0.0,0.0,0.0,0.0,0.0,0.0,0.0,0.0,0.0,0.0,0.0,0.0,0.0,0.0,0.0,0.0,0.0,0.0,0.0,0.0,0.0,0.0,0.0,0.0,0.0,0.0,0.0,0.0,0.0,0.0,0.0,-1.8031,-1.7326,0.0,0.0,0.0,0.0,0.0,0.0,0.0,0.0,0.0,0.0,0.0,0.0,0.0,0.0,0.0,0.0,0.0,0.0,0.0,0.0,0.0,0.0,0.0,0.0,0.0,0.0,0.0,0.0,0.0,0.0,0.0,0.0,0.0,0.0,0.0,0.0,0.0,0.0,0.0,0.0,-1.7969,-1.98,-2.1176,-2.1911,-2.1991,-2.1884,-2.1641,-2.0882,-1.9826,-1.8357,-1.686,0.0,0.0,0.0,0.0,0.0,0.0,0.0,0.0,0.0,0.0,0.0,0.0,0.0,0.0,0.0,0.0,0.0,0.0,0.0,0.0,0.0,0.0,0.0,0.0,0.0,0.0,0.0,0.0,0.0,0.0,0.0,0.0,0.0,0.0,0.0,0.0,0.0,0.0,0.0,0.0,0.0,0.0,0.0,0.0,0.0,0.0,0.0,0.0,0.0,0.0,0.0,0.0,0.0,-2.1145,-2.2593,-2.4555,-2.4879,-2.5009,-2.4829,-1.9968,-1.9105,-2.095,-1.9366,0.0,0.0,0.0,0.0,0.0,0.0,0.0,0.0,0.0,0.0,0.0,0.0,0.0,0.0,0.0,0.0,0.0,0.0,0.0,0.0,0.0,0.0,-1.9145,-1.9332,-1.9973,-1.9826,-1.7235,0.0,0.0,0.0,0.0,0.0,0.0,0.0,0.0,0.0,0.0,0.0,-1.8196,-1.9773,-2.0975,-2.175,-2.1735,-2.1601,-2.1547,-2.0708,-1.98,-1.8784,-1.7542,-1.6166,0.0,0.0,0.0,0.0,0.0,0.0,0.0,0.0,0.0,0.0,0.0,0.0,0.0,0.0,0.0,0.0,0.0,0.0,0.0,0.0,0.0,0.0,0.0,0.0,0.0,0.0,0.0,0.0,0.0,0.0,0.0,0.0,-1.0215,-0.995,0.0,0.0,0.0,0.0,0.0,0.0,0.0,0.0,0.0,0.0,0.0,0.0,0.0,-1.2004,-1.274,-1.5424,-1.6996,-1.7456,-2.0011,-2.2363,-2.452,-2.4555,-2.4698,-2.4814,-2.199,0.0,-2.3977,-2.3248,0.0,0.0,0.0,0.0,0.0,0.0,0.0,0.0,0.0,0.0,0.0,0.0,0.0,0.0,0.0,0.0,0.0,0.0,0.0,0.0,0.0,0.0,-2.147,-2.132,-2.1483,-2.1443,-2.0281,-1.825,-1.6339,-1.5311,-1.4239,-1.3347,0.0,0.0,0.0,0.0,0.0,0.0,-1.825,-1.9773,-2.0815,-2.1189,-2.143,-2.1443,-2.1189,-2.0588,-2.0054,-1.9653,-1.8263,-1.7128,-1.6393,-1.4776,0.0,0.0,0.0,0.0,0.0,0.0,0.0,0.0,0.0,0.0,0.0,0.0,0.0,0.0,0.0,0.0,0.0,0.0,0.0,0.0,0.0,0.0,0.0,0.0,0.0,0.0,0.0,0.0,0.0,-0.9917,-1.0514,-1.0215,-1.0534,-1.05,0.0,0.0,0.0,0.0,0.0,0.0,0.0,0.0,0.0,-1.225,-1.2562,-1.3481,-1.5162,-1.6724,-1.8128,-1.9447,-2.0881,-2.2127,-2.3184,-2.3278,-2.3386,-2.3354,-2.2419,-2.3065,-2.4603,-2.2044,-2.1607,-2.2404,0.0,0.0,0.0,0.0,-1.8927,-1.9671,-2.0182,-2.0224,-1.9955,-1.9928,0.0,0.0,0.0,0.0,0.0,0.0,0.0,-1.8544,-1.9626,-2.0695,-2.159,-2.1951,-2.2258,-2.2325,-2.1777,-2.0481,-1.8878,-1.6994,-1.6353,-1.5465,-1.3587,-1.3414,0.0,0.0,0.0,-1.6901,-1.8531,-1.9733,-2.0601,-2.1056,-2.1229,-2.1189,-2.0895,-2.0481,-2.004,-1.9586,-1.8637,-1.7822,-1.7221,-1.5992,-1.4794,0.0,0.0,0.0,0.0,0.0,0.0,0.0,0.0,0.0,0.0,0.0,0.0,0.0,0.0,0.0,0.0,0.0,0.0,0.0,0.0,0.0,0.0,0.0,0.0,0.0,0.0,0.0,0.0,-1.0283,-1.0914,-1.05,-1.1111,-1.1179,0.0,0.0,0.0,0.0,0.0,0.0,-1.1769,-1.2108,-1.2603,-1.3281,-1.3553,-1.4622,-1.6657,-1.6881,-1.7886,-1.9701,-1.9947,-2.0459,-2.1175,-2.1326,-2.1748,-2.2231,-2.2313,-2.3326,-2.469,-2.1427,-2.1791,-2.4123,-2.179,-2.126,-2.1806,-2.1213,-2.1533,-2.2445,-2.3995,-2.4249,-2.3728,-2.2766,-2.1991,-2.1082,-1.9172,0.0,0.0,0.0,0.0,-1.9466,-2.0775,-2.1336,-2.1724,-2.2378,-2.2699,-2.2779,-2.2485,-2.2017,-2.1078,-1.8798,-1.8317,-1.7476,-1.5118,-1.5003,0.0,-1.5003,-1.6166,-1.7555,-1.8971,-1.9786,-2.0428,-2.0949,-2.1002,-2.0882,-2.0588,-2.0294,-1.9907,-1.9457,-1.8811,-1.825,-1.7716,-1.6927,-1.5885,-1.4563,0.0,0.0,0.0,0.0,0.0,0.0,0.0,0.0,0.0,0.0,0.0,0.0,0.0,0.0,0.0,0.0,0.0,0.0,0.0,0.0,0.0,0.0,0.0,0.0,0.0,0.0,0.0,0.0,0.0,-1.0934,-1.1938,0.0,0.0,0.0,0.0,-1.1301,-1.1742,-1.2257,-1.2927,-1.3302,-1.3749,-1.4217,-1.438,-1.4536,-1.479,-1.4895,-1.4901,-1.4992,-1.5006,-1.6265,-1.8583,-1.8609,-1.986,-2.1909,-2.1919,-2.3026,-2.4835,-2.4094,-2.4588,-2.5758,-2.4762,-2.4229,-2.4022,-2.3696,-2.3776,-2.4088,-2.4195,-2.4209,-2.4262,-2.4743,-2.3741,-2.2231,-2.1614,-2.0435,0.0,0.0,-2.0762,-2.1189,-2.2098,-2.2552,-2.2847,-2.2832,-2.2914,-2.2779,-2.2485,-2.2178,-2.1683,-2.0708,-1.9626,-1.8651,-1.7916,0.0,-1.7152,-1.7368,-1.7729,-1.8355,-1.9599,-2.004,-2.0347,-2.0668,-2.0695,-2.0575,-2.0281,-1.9987,-1.9693,-1.9444,-1.8811,-1.8343,-1.7982,-1.7435,-1.6673,-1.5718,-1.4266,0.0,0.0,0.0,0.0,0.0,0.0,0.0,0.0,0.0,0.0,0.0,0.0,0.0,0.0,0.0,0.0,0.0,0.0,0.0,0.0,0.0,0.0,0.0,0.0,0.0,0.0,0.0,0.0,-1.1843,-1.2698,0.0,-1.204,-1.204,-1.2182,-1.2386,-1.282,-1.3288,-1.3797,-1.4061,-1.4312,-1.4577,-1.4631,-1.4685,-1.474,-1.4638,-1.459,-1.459,-1.459,-1.4986,-1.5779,-1.5897,-1.7272,-1.9391,-1.9518,-2.158,-2.487,-2.4683,-2.5564,-2.6987,-2.6106,-2.5705,-2.5571,-2.5291,-2.5237,-2.5358,-2.5545,-2.5491,-2.5237,-2.469,-2.3701,-2.2672,-2.2458,-2.2097,-2.1724,-2.2245,-2.2458,-2.2605,-2.2926,-2.3086,-2.3113,-2.2913,-2.2928,-2.2901,-2.2726,-2.2325,-2.1897,-2.1577,-2.0722,-1.9626,-1.8209,-1.8343,-1.8345,-1.7487,-1.805,-1.8838,-1.9439,-1.9773,-2.0067,-2.0361,-2.0388,-2.0267,-1.9987,-1.9693,-1.9399,-1.9105,-1.8531,-1.8102,-1.7995,-1.7649,-1.7021,-1.6126,-1.5231,-1.3814,0.0,0.0,0.0,0.0,0.0,0.0,0.0,0.0,0.0,0.0,0.0,0.0,0.0,0.0,0.0,0.0,0.0,0.0,0.0,0.0,0.0,0.0,0.0,0.0,0.0,-1.1633,-1.2494,-1.2447,-1.3322,-1.3634,-1.2874,-1.3037,-1.3247,-1.3403,-1.3777,-1.4136,-1.4434,-1.459,-1.4692,-1.474,-1.4692,-1.4665,-1.4665,-1.4516,-1.4441,-1.4441,-1.4441,-1.4832,-1.5521,-1.5645,-1.7331,-2.0124,-2.0179,-2.2294,-2.5701,-2.5701,-2.6445,-2.7495,-2.6907,-2.668,-2.664,-2.6253,-2.6106,-2.6132,-2.6319,-2.6199,-2.5889,-2.493,-2.4115,-2.3447,-2.334,-2.3247,-2.3233,-2.3541,-2.3621,-2.3607,-2.35,-2.3474,-2.338,-2.2966,-2.2928,-2.2928,-2.2928,-2.2405,-2.1991,-2.1991,-2.1283,-2.0307,-1.9132,-1.9332,-1.9292,-1.8264,-1.8718,-1.9292,-1.9492,-1.9679,-1.9867,-2.0067,-2.0094,-1.9933,-1.9533,-1.9239,-1.8945,-1.8651,-1.8076,-1.7742,-1.7742,-1.7355,-1.682,-1.6139,-1.5351,-1.4238,-1.2797,0.0,0.0,0.0,0.0,0.0,0.0,0.0,0.0,0.0,0.0,0.0,0.0,0.0,0.0,0.0,0.0,0.0,0.0,0.0,0.0,0.0,0.0,0.0,-1.1172,-1.2223,-1.2929,-1.2793,-1.381,-1.4245,-1.3519,-1.3838,-1.4156,-1.4299,-1.4577,-1.474,-1.474,-1.4875,-1.4889,-1.474,-1.4584,-1.4502,-1.4502,-1.4367,-1.4299,-1.4299,-1.4292,-1.5506,-1.7746,-1.7746,-2.0134,-2.4207,-2.4207,-2.533,-2.7268,-2.7268,-2.7268,-2.7268,-2.7255,-2.7255,-2.7188,-2.66,-2.6386,-2.6386,-2.6386,-2.6199,-2.5892,-2.5611,-2.5117,-2.4583,-2.4302,-2.4022,-2.3861,-2.4142,-2.4222,-2.4155,-2.3861,-2.3781,-2.3621,-2.302,-2.2941,-2.2928,-2.2928,-2.2405,-2.1991,-2.1991,-2.1283,-2.0681,-2.0681,-2.0441,-2.0147,-1.984,-1.98,0.0,-1.9786,-1.9786,-1.9786,-1.9786,-1.9786,-1.9559,-1.8985,-1.872,-1.8412,-1.8063,-1.758,-1.7295,-1.7295,-1.6756,-1.6298,-1.594,-1.4815,-1.4374,-1.4673,0.0,0.0,0.0,0.0,0.0,0.0,0.0,0.0,0.0,0.0,0.0,0.0,0.0,0.0,0.0,0.0,0.0,0.0,0.0,0.0,0.0,-1.0887,-1.1525,-1.1782,-1.2759,-1.3553,-1.3838,-1.4448,-1.4767,-1.4557,-1.455,-1.457,-1.4618,-1.4692,-1.474,-1.474,-1.4672,-1.4618,-1.4577,-1.4434,-1.436,-1.436,-1.4319,-1.4299,-1.4299,-1.419,-1.5337,-1.7465,-1.7339,-1.9702,-2.3938,-2.3938,-2.524,-2.7268,-2.7268,-2.7268,-2.7241,-2.7028,-2.6947,-2.6894,-2.6533,-2.6386,-2.6386,-2.6386,-2.6052,-2.5625,-2.5545,-2.5117,-2.4623,-2.4543,-2.4462,-2.4422,-2.4489,-2.4516,-2.4449,-2.4155,-2.3928,-2.3674,-2.3287,-2.3033,-2.2928,-2.2928,-2.2405,-2.1991,-2.1991,-2.1443,-2.0922,-2.0708,-2.0615,-2.0388,-1.988,-1.98,-1.972,-1.9506,-1.9492,-1.9492,-1.9492,-1.9492,-1.9426,-1.9265,-1.9696,-1.9791,-1.942,-1.9749,-1.9972,-1.9972,-1.9784,-1.941,-1.8769,-1.7396,-1.6629,0.0,0.0,0.0,0.0,0.0,0.0,0.0,0.0,0.0,0.0,0.0,0.0,0.0,0.0,0.0,0.0,0.0,0.0,0.0,0.0,0.0,0.0,-1.1647,-1.2325,-1.2745,-1.3444,-1.4055,-1.4441,-1.4821,-1.5059,-1.5059,-1.4923,-1.4835,-1.4835,-1.478,-1.4713,-1.4645,-1.4563,-1.4482,-1.4428,-1.434,-1.4299,-1.4299,-1.4238,-1.4204,-1.4204,-1.4048,-1.559,-1.8712,-1.8603,-2.0931,-2.5087,-2.5087,-2.5771,-2.6894,-2.6894,-2.6894,-2.6894,0.0,0.0,0.0,0.0,-2.6386,-2.6386,-2.6386,-2.6172,-2.5838,-2.5598,-2.5277,-2.4957,-2.4716,-2.4636,-2.4636,-2.4636,-2.4636,-2.4543,-2.4128,-2.3901,-2.3661,-2.3233,-2.2993,-2.2928,-2.2928,-2.2405,-2.1991,-2.1991,-2.151,0.0,-2.0882,-2.0855,-2.0695,-2.0241,-2.0067,-1.988,-1.9586,-2.0007,-2.0097,-1.9488,-2.0486,-2.093,-2.0188,-2.0778,0.0,0.0,0.0,-2.08,-2.0485,-2.0469,0.0,0.0,0.0,0.0,0.0,0.0,0.0,0.0,-1.5442,-1.5119,0.0,0.0,0.0,0.0,0.0,0.0,0.0,0.0,0.0,0.0,0.0,0.0,0.0,0.0,0.0,0.0,-1.2433,-1.322,-1.381,-1.4156,-1.4448,-1.4706,-1.5004,-1.5174,-1.516,-1.5045,-1.4957,-1.4923,-1.4794,-1.4652,-1.4496,-1.4489,0.0,0.0,0.0,-1.4292,-1.4272,-1.4143,-1.4061,-1.4041,-1.3892,-1.6164,-2.0513,-2.0493,-2.2778,-2.6774,-2.6774,-2.6627,-2.6386,-2.6386,-2.6386,-2.6413,-2.668,-2.6774,-2.6747,-2.648,-2.6386,-2.6386,-2.6386,0.0,0.0,-2.5678,-2.5464,-2.5317,-2.4796,-2.4636,-2.4636,-2.4636,-2.4636,-2.4516,-2.3995,-2.3821,-2.3634,-2.3169,-2.2981,-2.2928,-2.2928,-2.2432,-2.2031,-2.1991,-2.1537,-2.1149,-2.1122,-2.1109,-2.1015,-2.0722,-2.0454,-2.016,-1.984,-2.0858,-2.1074,-1.9533,-2.204,0.0,-2.1334,-2.2044,-2.2565,-2.2532,-2.1758,-2.1002,-2.0337,-2.032,-2.0303,-2.0207,-2.0207,-2.1083,-2.2738,-2.1717,-2.1655,-2.2364,-1.9,-1.8323,0.0,0.0,0.0,0.0,0.0,0.0,0.0,0.0,0.0,0.0,0.0,0.0,0.0,0.0,0.0,-1.2026,-1.2813,-1.3526,-1.4129,-1.4468,-1.4679,-1.4733,-1.5004,-1.514,-1.5025,-1.4984,-1.4869,-1.4618,-1.457,-1.4489,-1.4346,-1.434,-1.4326,-1.4299,-1.4299,-1.4238,-1.4116,-1.4089,-1.4007,-1.3885,-1.3736,0.0,-2.0198,-2.0109,-2.2371,-2.6466,-2.6466,-2.644,-2.6386,-2.6386,-2.6386,-2.64,-2.6453,-2.6466,-2.6466,-2.6413,-2.6386,-2.6386,-2.6386,-2.6079,-2.5665,-2.5545,-2.5197,-2.4783,-2.4676,-2.4636,0.0,-2.4636,-2.4636,-2.4609,-2.4502,-2.4115,-2.3741,-2.3621,-2.322,-2.2928,-2.2928,-2.2592,-2.2271,-2.2031,-2.1697,-2.139,-2.1149,-2.1109,-2.1015,-2.0722,-2.0628,-2.0401,-1.9867,-2.1058,-2.1249,-1.956,-2.204,-2.3175,-2.1609,-2.3207,-2.4137,-2.3768,-2.4054,-2.4184,-2.406,-2.406,-2.3888,-2.3518,-2.3499,-2.3515,-2.3589,-2.3687,-2.3801,-2.389,-2.1031,-2.0217,0.0,0.0,0.0,0.0,0.0,0.0,0.0,0.0,0.0,0.0,0.0,-0.9992,-1.0514,0.0,-1.1796,-1.2698,-1.322,-1.3702,-1.4224,-1.4489,-1.4679,-1.4835,-1.4984,-1.5052,-1.4977,-1.4835,-1.4679,-1.4523,-1.4448,-1.4373,-1.4306,-1.4231,-1.4183,-1.4183,-1.4109,-1.4034,-1.3953,-1.3885,-1.381,-1.3736,-1.3587,-1.5814,-1.9977,-1.9957,-2.2258,-2.6386,-2.6386,-2.6386,-2.6386,-2.6386,-2.6386,-2.6386,-2.6386,-2.6386,-2.6386,-2.6386,-2.6386,-2.6386,-2.6386,-2.6199,-2.5905,-2.5611,-2.5317,-2.5024,-2.473,-2.4636,-2.4636,-2.4636,-2.4636,-2.4609,-2.4449,-2.4102,-2.3728,-2.3581,-2.3193,-2.2928,-2.2928,-2.2632,-2.2338,-2.2044,-2.175,-2.1521,-2.1162,-2.179,-2.2284,-2.2205,-2.1321,-2.1107,-2.2216,-2.2809,-2.2751,-2.1687,-2.4267,-2.5443,-2.3972,-2.5344,-2.5985,-2.5314,-2.5564,-2.5527,-2.5125,-2.5106,-2.4961,-2.4746,-2.4746,-2.4746,-2.4766,-2.4933,-2.5031,-2.5031,-2.3624,-2.312,0.0,0.0,0.0,0.0,0.0,0.0,0.0,0.0,-0.9564,-0.9924,-1.0337,-1.0819,-1.145,-1.183,-1.2359,-1.3295,-1.3573,-1.3824,-1.4278,-1.4441,-1.4604,-1.4855,-1.4909,-1.4916,-1.4882,-1.4658,-1.4489,-1.4428,-1.4319,-1.4245,-1.4211,-1.4095,-1.4027,-1.4027,-1.3905,-1.3824,-1.3797,-1.3688,-1.3614,-1.3587,-1.3867,-1.609,-1.9907,-2.0312,-2.2659,-2.6386,-2.6386,-2.6386,-2.6386,-2.6386,-2.6386,-2.6386,-2.6386,-2.6386,-2.6386,-2.6386,-2.6386,-2.6386,-2.6386,-2.636,-2.6213,-2.5678,-2.5478,-2.5331,-2.4796,-2.4636,-2.4636,-2.4636,-2.4636,-2.4583,-2.4342,-2.4075,-2.3781,-2.3487,-2.318,-2.2939,-2.2873,-2.2672,-2.2405,-2.2058,-2.1804,-2.1523,-2.1176,-2.2215,-2.3201,-2.3574,-2.2253,-2.2151,-2.4708,-2.4407,-2.3934,-2.3914,-2.6045,-2.7023,-2.6046,-2.7021,-2.7344,-2.6562,-2.6426,-2.6074,-2.5399,-2.5302,-2.5195,-2.5195,-2.5195,-2.5371,-2.5693,-2.5693,-2.5693,-2.5693,-2.5693,-2.5547,-0.2196,-0.4695,-0.7165,-0.8729,-0.9248,-0.9585,0.0,0.0,-1.0704,-1.128,-1.1647,-1.1932,-1.2149,-1.2542,-1.3003,-1.3519,-1.3722,-1.3973,-1.4428,-1.4502,-1.4523,-1.4557,-1.4679,-1.4713,-1.4577,-1.4529,-1.4401,-1.4143,-1.4109,-1.4034,-1.3899,-1.3878,-1.3865,-1.3865,-1.3851,-1.3783,-1.3654,-1.3634,-1.3559,-1.3424,-1.5358,-1.7547,-1.9988,-2.1845,-2.4111,-2.6386,-2.6386,-2.6386,-2.6386,-2.6386,-2.6386,-2.6386,-2.6386,-2.6386,-2.6386,-2.6386,-2.6386,-2.6386,-2.6386,-2.6226,-2.5945,-2.5625,-2.5344,-2.5064,-2.473,-2.4636,-2.4636,-2.4636,-2.4636,-2.4549,-2.4596,-2.4369,-2.4075,-2.3794,-2.3487,-2.3193,-2.2926,-2.2832,-2.2645,-2.2098,-2.1964,-2.1764,-2.1203,-2.1235,-2.1915,-2.3387,-2.342,-2.381,-2.532,-2.3854,-2.3157,-2.4293,-2.4356,-2.4628,-2.5433,-2.685,-2.7461,-2.6973,-2.6602,-2.6348,-2.625,-2.5859,-2.5615,-2.5615,-2.5615,-2.5635,-2.5693,-2.5693,-2.5693,-2.5693,-2.5693,-2.5654,-0.496,-0.708,-0.8925,0.0,-1.0243,-1.0595,-1.1274,-1.1396,-1.1491,-1.1925,-1.2244,-1.2501,-1.2651,-1.2901,-1.3227,-1.3682,-1.3804,-1.3966,-1.434,-1.4312,-1.4224,-1.4129,-1.4177,-1.4265,-1.438,-1.4306,-1.4204,-1.4082,-1.4075,-1.4007,-1.3851,-1.3763,-1.3715,-1.3715,-1.3634,-1.3553,-1.3498,-1.3498,-1.3464,-1.3397,-1.5597,-1.7792,-1.9988,-2.194,-2.3963,-2.5879,-2.5879,-2.5972,-2.6132,-2.6132,-2.6239,-2.6386,-2.6386,-2.6386,-2.6386,-2.6386,-2.6386,-2.6386,-2.6386,-2.6306,-2.6132,-2.5665,-2.5424,-2.5251,-2.4783,-2.4636,-2.4636,-2.4636,-2.4636,-2.4636,-2.4636,-2.4422,-2.4168,-2.4048,-2.3674,-2.3287,-2.3166,-2.379,-2.4324,-2.388,-2.3636,-2.3379,-2.2998,-2.3491,-2.3854,-2.3636,-2.2779,-2.3624,-2.775,-2.5839,-2.4877,-2.6825,-2.6683,-2.6607,-2.7031,-2.769,-2.7851,-2.7422,-2.7226,-2.7012,-2.6758,-2.6582,-2.6367,-2.6113,-2.6113,-2.5996,-2.5693,-2.5693,-2.5693,-2.5693,-2.5693,-2.5693,-0.6948,0.0,0.0,-1.0558,-1.1097,-1.1491,-1.1796,-1.1945,-1.2088,-1.2359,-1.2583,-1.2766,-1.2874,-1.3051,-1.3295,-1.3661,-1.379,-1.3919,-1.4143,-1.4075,-1.3939,-1.3743,-1.3682,-1.3763,-1.4027,-1.4027,-1.3994,-1.3953,-1.3953,-1.3885,-1.3729,-1.362,-1.3566,-1.3566,-1.3458,-1.3403,-1.3403,-1.3403,-1.3728,-1.4293,-1.6492,-1.8651,-2.0772,-2.2607,-2.4211,-2.5518,-2.5518,-2.5678,-2.6037,-2.6037,-2.6132,-2.6386,-2.6386,-2.6386,-2.6373,-2.6306,-2.6319,-2.6386,-2.6386,-2.6386,-2.6293,-2.5705,-2.5518,-2.5398,-2.481,-2.4636,-2.4636,-2.4636,-2.4636,-2.4636,-2.4636,-2.4476,-2.4302,-2.4222,-2.3821,-2.3561,-2.3955,-2.4422,-2.4824,-2.5032,-2.4517,-2.4027,-2.4127,-2.4891,-2.5304,-2.4978,-2.3497,-2.4193,-2.91,-2.7944,-2.6928,-2.7642,-2.8144,-2.8257,-2.7745,-2.8067,-2.8164,-2.7851,-2.7787,-2.7519,-2.7207,-2.709,-2.6875,-2.6562,-2.6562,-2.6406,-2.6044,-2.6044,-2.6044,-2.6044,-2.6044,-2.6044,0.0,0.0,-0.8784,-1.0489,-1.1491,-1.2108,-1.2406,-1.2481,-1.2528,-1.2684,-1.2725,-1.2732,-1.2732,-1.2976,-1.3227,-1.339,-1.3654,-1.3759,-1.3851,-1.3851,-1.3743,-1.3451,-1.3281,-1.3254,-1.341,-1.3682,-1.379,-1.3654,-1.3641,-1.358,-1.3424,-1.341,-1.341,-1.341,-1.3403,-1.3403,-1.3403,-1.3403,-1.4458,-1.6565,-1.877,-2.0761,-2.2686,-2.4559,-2.5441,-2.5518,-2.5518,-2.5678,-2.6037,-2.6037,-2.6132,-2.6386,-2.6386,-2.6386,-2.636,-2.6079,-2.6146,-2.6386,-2.6386,-2.6386,-2.6293,-2.5705,-2.5518,-2.5398,-2.481,-2.4636,-2.4636,-2.4636,-2.4636,-2.4636,-2.4636,-2.4549,-2.4556,-2.4275,-2.3981,-2.4156,-2.5604,-2.4339,-2.3365,-2.4834,-2.3648,-2.2802,-2.3853,-2.4052,-2.5047,-2.7804,-2.6893,-2.647,-2.8212,-2.937,-2.8633,-2.502,-2.7197,-2.8167,-2.63,-2.7492,-2.8281,-2.8281,-2.7891,-2.7708,-2.7708,-2.7246,-2.7012,-2.6992,-2.6992,-2.6992,-2.6973,-2.6973,-2.6973,-2.6973,-2.6973,-2.6973,-0.9209,0.0,-1.0448,-1.1556,-1.2176,-1.2583,-1.2881,-1.2874,-1.2793,-1.2739,-1.2651,-1.2522,-1.2325,-1.2528,-1.2813,-1.3071,-1.3444,-1.3736,-1.3824,-1.3933,-1.381,-1.3308,-1.3295,-1.3227,-1.2976,-1.3315,-1.3573,-1.3627,-1.3627,-1.3559,-1.341,-1.3403,-1.3403,-1.3403,-1.3403,-1.3403,-1.3403,-1.3403,-1.3728,-1.4541,-1.7971,-2.1388,-2.4547,-2.504,-2.5224,-2.5224,-2.5224,-2.5504,-2.6037,-2.6037,-2.6132,-2.6386,-2.6386,-2.6266,-2.6092,-2.5999,-2.5892,-2.5838,-2.6039,-2.6106,-2.6039,-2.5638,-2.5518,-2.5398,-2.481,-2.4636,-2.4636,-2.4636,-2.4636,-2.4636,-2.4636,-2.4636,-2.4609,-2.4516,-2.4262,-2.4112,-2.4439,-2.4734,-2.5008,-2.5279,-2.5637,-2.6062,-2.6408,-2.7167,-2.8394,-3.0178,-2.9758,-2.9039,-2.8486,-2.9447,-2.9736,-2.8444,-2.8933,-2.8995,-2.8057,-2.842,-2.8594,-2.832,-2.8164,-2.8086,-2.8086,-2.7949,-2.7734,-2.7461,-2.7441,-2.7305,-2.7012,-2.7012,-2.7012,-2.7012,-2.7012,-2.7012,-1.0572,-1.079,-1.0919,-1.2199,-1.2712,-1.2942,-1.3125,-1.3024,-1.282,-1.2617,-1.2366,-1.2115,-1.187,-1.1932,-1.2176,-1.2644,-1.3003,-1.3349,-1.3715,-1.3756,-1.3627,-1.3295,-1.32,-1.3091,-1.2908,-1.3105,-1.3308,-1.3458,-1.3519,-1.3505,-1.3403,-1.3403,-1.3403,-1.3403,-1.3403,-1.3403,-1.3403,-1.4077,-1.5151,-1.6615,-1.9906,-2.2865,-2.5344,-2.505,-2.4917,-2.4917,-2.4917,-2.5197,-2.5638,-2.5638,-2.5812,-2.6092,-2.6199,-2.6119,-2.6023,-2.5838,-2.5678,-2.5545,-2.5732,-2.5865,-2.597,-2.5491,-2.5424,-2.5398,-2.481,-2.4636,-2.4636,-2.4636,-2.4636,-2.4636,-2.4636,-2.4636,-2.4636,-2.4636,-2.4422,-2.4332,-2.4662,-2.4889,-2.532,-2.6316,-2.6732,-2.7247,-2.8409,-2.9556,-3.063,-3.1364,-3.1152,-3.0509,-2.9412,-2.9948,-3.0391,-3.0215,-2.9961,-2.9609,-2.9199,-2.9004,-2.8809,-2.8535,-2.8379,-2.8301,-2.8301,-2.8301,-2.8164,-2.7891,-2.7891,-2.7754,-2.748,-2.748,-2.748,-2.748,-2.748,-2.748,-1.0835,-1.065,-1.0323,-1.2503,-1.3071,-1.3173,-1.3166,-1.2929,-1.2623,-1.2318,-1.1884,-1.1511,0.0,0.0,-1.1382,-1.2115,-1.24,-1.2779,-1.3505,-1.3376,-1.3254,-1.3376,-1.3017,-1.2868,-1.3132,-1.3051,-1.303,-1.3159,-1.3308,-1.339,-1.3403,-1.3403,-1.3403,-1.3403,-1.3403,-1.3397,-1.339,-1.5252,-1.8252,-2.2299,-2.4048,-2.5002,-2.5064,-2.477,-2.4649,-2.4663,-2.4663,-2.4823,-2.5104,-2.5104,-2.5264,-2.5545,-2.5825,-2.5996,-2.5956,-2.5598,-2.5478,-2.5464,-2.5464,-2.5665,-2.5825,-2.5264,-2.5264,-2.5384,-2.481,-2.4636,-2.4636,-2.4636,-2.4636,-2.4636,-2.4636,-2.4636,-2.4636,-2.4636,-2.4422,-2.4634,-2.5947,-2.4694,-2.4275,-2.7451,-2.6839,-2.6729,-2.9839,-3.1054,-3.1582,-3.1562,-3.1191,-3.0918,-3.0898,-3.0898,-3.0723,-3.0273,-3.0234,-3.0059,-2.9704,-2.9219,-2.8965,-2.8926,-2.8535,-2.832,-2.8301,-2.8301,-2.8301,-2.8301,-2.8301,-2.8301,-2.8301,-2.8301,-2.8301,-2.8301,-2.8301,-2.8301,-1.1622,-1.1993,-1.2311,-1.297,-1.3146,-1.3146,-1.3037,-1.2698,-1.2284,-1.1877,-1.1253,-1.0697,0.0,-1.0636,-1.0968,-1.1382,-1.2237,-1.2949,-1.3247,-1.3505,-1.3559,-1.3268,-1.3227,-1.3173,-1.303,-1.3078,-1.3132,-1.3166,-1.3207,-1.3281,-1.3397,-1.3403,-1.3403,-1.3403,-1.3403,-1.3349,-1.3234,-1.5144,-1.8188,-2.2299,-2.2501,-2.353,-2.5064,-2.477,-2.4756,-2.497,-2.497,-2.513,-2.5398,-2.5398,-2.5451,-2.5518,-2.5598,-2.5491,-2.5291,-2.5224,-2.505,-2.4863,-2.4863,-2.505,-2.5277,-2.513,-2.513,-2.5117,-2.4743,-2.4636,-2.4636,-2.4636,-2.4636,-2.4636,-2.4636,-2.4636,-2.4636,-2.4636,-2.4583,-2.4455,-2.4504,-2.4056,-2.419,-2.5839,-2.7949,-3.0154,-3.2213,-3.2502,-3.2363,-3.2051,-3.1641,-3.125,-3.0937,-3.0898,-3.084,-3.0723,-3.0703,-3.0527,-3.0078,-2.9941,-2.959,-2.8965,-2.8809,-2.8613,-2.8301,-2.8301,-2.8301,-2.8301,-2.8301,-2.8301,-2.8301,-2.8301,-2.8301,-2.8301,-2.8301,-2.8301,-1.0736,-1.1264,-1.1613,-1.1822,-1.2559,-1.3064,-1.2736,-1.2271,-1.1789,-1.1077,-1.0487,0.0,-0.9774,-0.9917,-1.0337,-1.0968,-1.1803,-1.2583,-1.3186,-1.3431,-1.3505,-1.339,-1.3329,-1.3261,-1.3166,-1.3166,-1.32,-1.3268,-1.3275,-1.3308,-1.3397,-1.3336,-1.3302,-1.3302,-1.3241,-1.4018,-1.5663,-1.673,-1.927,-2.3277,-2.3116,-2.3655,-2.4877,-2.4716,-2.473,-2.489,-2.489,-2.4983,-2.513,-2.513,-2.513,-2.5144,-2.5277,-2.5224,-2.5077,-2.5077,-2.497,-2.481,-2.4676,-2.4743,-2.489,-2.489,-2.497,-2.5024,-2.473,-2.4636,-2.4636,-2.4636,-2.4636,-2.4636,-2.4636,-2.4636,-2.4636,-2.4636,-2.4636,-2.4516,-2.4062,-2.3861,-2.4343,-2.631,-2.954,-3.2237,-3.3228,-3.3066,-3.2715,-3.248,-3.209,-3.1641,-3.123,-3.0996,-3.0898,-3.0898,-3.0898,-3.0781,-3.0527,-3.0312,-3.0,-2.9512,-2.9297,-2.9004,-2.8574,-2.8574,-2.8476,-2.8301,-2.8301,-2.8301,-2.8301,-2.8301,-2.8301,-2.8301,-2.8301,-2.8301,-0.9415,-0.9658,-0.9917,-1.0019,-1.1429,-1.2595,-1.2196,-1.1755,-1.1212,-1.0139,0.0,-0.9408,-0.92,-0.9309,-0.9713,-1.0724,0.0,-1.2047,-1.318,-1.3247,-1.3275,-1.3566,-1.3363,-1.3254,-1.339,-1.3281,-1.3261,-1.339,-1.3403,-1.3403,-1.3403,-1.3275,-1.3193,-1.3173,-1.3017,-1.4821,-1.8762,-1.8799,-2.0754,-2.4636,-2.4636,-2.4636,-2.4636,-2.4636,-2.4636,-2.4636,-2.4636,-2.4488,-2.4253,-2.4488,-2.4414,-2.428,-2.4842,-2.5024,-2.5024,-2.5024,-2.5024,-2.4983,-2.473,-2.4636,-2.4636,-2.4636,-2.481,-2.497,-2.4716,-2.4636,-2.4636,-2.4636,-2.4636,-2.4636,-2.4636,-2.4636,-2.4636,-2.4636,-2.4636,-2.4556,-2.4262,-2.4399,-2.5254,-2.7844,-3.111,-3.3516,-3.3516,-3.3164,-3.2851,-3.2793,-3.248,-3.209,-3.166,-3.123,-3.0957,-3.0898,-3.0898,-3.0898,-3.0898,-3.0527,-3.0254,-3.0195,-2.9863,-2.9453,-2.9023,-2.9004,-2.8828,-2.8476,-2.8457,-2.8457,-2.8457,-2.8457,-2.8457,-2.8457,-2.8457,-2.8457,-1.0131,-0.9912,-1.0019,-1.0039,-1.0064,-1.0347,-1.156,-1.1355,0.0,0.0,-0.9245,-0.8852,-0.8798,-0.911,-0.9639,-1.0439,-1.126,-1.2088,-1.2922,-1.3119,-1.3241,0.0,-1.3397,-1.337,-1.3397,-1.3376,-1.337,-1.3397,-1.3403,-1.3403,-1.3403,-1.3376,-1.3302,-1.3173,-1.2908,-1.4696,-1.8752,-1.8724,-2.0661,-2.4636,-2.4636,-2.4636,-2.4636,-2.4636,-2.4636,-2.4636,-2.4636,-2.3648,-2.2285,-2.387,-2.3648,-2.2285,-2.4009,-2.4716,-2.4716,-2.4716,-2.4716,-2.4703,-2.4649,-2.4636,-2.4636,-2.4636,-2.4676,-2.4703,-2.4649,-2.4636,-2.4636,-2.4636,-2.4636,-2.4636,-2.4636,-2.4636,-2.4636,-2.4636,-2.4636,-2.4556,-2.4262,-2.632,-2.8381,-2.8935,-3.1709,-3.3965,-3.3965,-3.3594,-3.3184,-3.2851,-3.2734,-3.2539,-3.2109,-3.168,-3.1269,-3.0937,-3.0898,-3.0898,-3.0898,-3.082,-3.0605,-3.0215,-3.0137,-2.9902,-2.9473,-2.9453,-2.9434,-2.9411,-2.9355,-2.9355,-2.9355,-2.9355,-2.9355,-2.9355,-2.9355,-2.9355,-0.9962,-0.9958,-1.0044,-1.0044,-1.0561,-1.1075,-1.1272,0.0,0.0,0.0,-0.856,-0.8336,-0.8255,-0.8608,0.0,-0.9802,-1.0541,-1.1369,-1.2352,-1.2623,-1.2888,-1.3349,-1.3403,-1.3403,-1.3403,-1.3403,-1.3403,-1.3403,-1.3403,-1.3403,-1.3403,-1.3322,-1.318,-1.2949,-1.2807,-1.4626,-1.8658,-1.8623,-2.0617,-2.4636,-2.4636,-2.4636,-2.4636,-2.4636,-2.4636,-2.4636,-2.4636,-2.4031,-2.3264,-2.4179,-2.4031,-2.3264,-2.4253,-2.4636,-2.4636,-2.4636,-2.4636,-2.4636,-2.4636,-2.4636,-2.4636,-2.4636,-2.4636,-2.4636,-2.4636,-2.4636,-2.4636,-2.4636,-2.4636,-2.4636,-2.4636,-2.4636,-2.4636,-2.4636,-2.4636,-2.4556,-2.4262,-2.6168,-2.8205,-2.9064,-3.1198,-3.3265,-3.4264,-3.4043,-3.3691,-3.3496,-3.3262,-3.2969,-3.2559,-3.2305,-3.2012,-3.1601,-3.1562,-3.1465,-3.123,-3.1211,-3.1035,-3.0586,-3.0547,-3.0351,-2.9922,-2.9902,-2.9785,-2.957,-2.9626,-2.9626,-2.9626,-2.9626,-2.9626,-2.9626,-2.9626,-2.9626,-0.9886,-0.9875,-1.0039,-1.0014,-1.0879,-1.1573,-1.1,-1.0348,0.0,0.0,-0.7988,-0.7928,-0.7916,0.0,-0.8655,0.0,-0.9883,-1.0649,-1.1843,-1.2176,-1.2556,-1.3268,-1.3383,-1.3403,-1.3403,-1.3403,-1.3403,-1.3403,-1.3403,-1.3403,-1.3403,-1.3227,-1.3024,-1.2786,-1.2718,-1.4392,-1.7891,-1.8345,-2.0391,-2.3957,-2.4401,-2.4636,-2.4636,-2.4636,-2.4636,-2.4636,-2.4636,-2.4341,-2.4031,-2.4414,-2.4341,-2.4031,-2.4401,-2.4636,-2.4636,-2.4636,-2.4636,-2.4636,-2.4636,-2.4636,-2.4636,-2.4636,-2.4636,-2.4636,-2.4636,-2.4636,-2.4636,-2.4636,-2.4636,-2.4636,-2.4636,-2.4636,-2.4636,-2.4636,-2.4636,-2.4569,-2.4342,-2.6042,-2.7919,-2.9171,-3.1195,-3.3148,-3.458,-3.4492,-3.4219,-3.4219,-3.3848,-3.3437,-3.3105,-3.2988,-3.2793,-3.248,-3.2285,-3.2031,-3.168,-3.166,-3.1523,-3.1191,-3.1074,-3.0859,-3.0488,-3.0391,-3.0195,-2.9863,-2.9844,-2.9844,-2.9844,-2.9844,-2.9844,-2.9844,-2.9844,-2.9844,-1.0276,-0.9875,-0.9936,-0.9835,-0.9555,-0.9473,-1.0499,0.0,0.0,-0.8445,-0.8024,-0.7916,-0.818,0.0,0.0,0.0,0.0,0.0,-1.1687,-1.2108,-1.2515,-1.3119,0.0,0.0,-1.3403,-1.3403,-1.3403,-1.3403,-1.3403,-1.3403,-1.3403,-1.3132,-1.2969,-1.2942,-1.2671,-1.3583,-1.5769,-1.7663,-1.9704,-2.19,-2.3722,-2.4636,-2.4636,-2.4636,-2.4636,-2.4636,-2.4636,-2.3574,-2.2049,-2.387,-2.35,-2.2049,-2.387,-2.4636,-2.4636,-2.4636,-2.4636,-2.4636,-2.4636,-2.4636,-2.4636,-2.4636,-2.4636,-2.4636,-2.4636,-2.4636,-2.4636,-2.4636,-2.4636,-2.4636,-2.4636,-2.4636,-2.4636,-2.4636,-2.4636,-2.4549,-2.4609,-2.7431,-3.0031,-3.014,-3.2842,-3.5112,-3.5332,-3.4941,-3.4648,-3.4648,-3.4277,-3.4004,-3.3965,-3.3613,-3.334,-3.332,-3.2617,-3.2148,-3.2109,-3.2109,-3.209,-3.2051,-3.168,-3.1445,-3.1406,-3.1035,-3.082,-3.0762,-3.0762,-3.0762,-3.0762,-3.0762,-3.0762,-3.0762,-3.0762,-3.0762,-1.1844,-1.1891,-1.202,-1.1885,-1.1245,-1.0657,-1.0598,0.0,-0.9083,-0.818,-0.7896,-0.7848,-0.797,-0.7997,0.0,0.0,0.0,0.0,-1.0466,-1.0806,-1.1362,-1.2508,-1.2773,-1.3003,-1.3363,-1.3403,-1.3403,-1.3403,-1.3403,-1.3403,-1.3403,-1.32,-1.3003,-1.2827,-1.2705,-1.3516,-1.5463,-1.6294,-1.8345,-2.1601,-2.2434,-2.3413,-2.4636,-2.4636,-2.4636,-2.4636,-2.4636,-2.3487,-2.1751,-2.3796,-2.3426,-2.1826,-2.3796,-2.4636,-2.4636,-2.4636,-2.4636,-2.4636,-2.4636,-2.4636,-2.4636,-2.4636,-2.4636,-2.4636,-2.4636,-2.4636,-2.4636,-2.4636,-2.4636,-2.4636,-2.4636,-2.4636,-2.4636,-2.4636,-2.4636,-2.4918,-2.6064,-2.6634,-2.7548,-2.9884,-3.1407,-3.271,-3.3848,-3.4633,-3.5117,-3.5117,-3.4726,-3.4453,-3.4453,-3.4297,-3.4101,-3.3848,-3.3281,-3.2812,-3.2559,-3.2539,-3.2441,-3.2248,-3.2012,-3.1914,-3.1914,-3.1758,-3.166,-3.166,-3.166,-3.166,-3.166,-3.1406,-3.1269,-3.1269,-3.1016,-3.0898,-1.2637,-1.3044,-1.3234,-1.3078,-1.24,-1.1531,0.0,-0.9768,-0.8968,-0.8052,-0.7841,-0.7828,-0.7868,-0.7841,-0.7909,0.0,0.0,0.0,-0.9686,-1.0025,-1.0636,-1.1877,-1.2189,-1.2522,-1.3078,-1.3295,-1.3403,-1.3403,-1.3403,-1.3383,-1.3336,-1.375,-1.3646,-1.2807,-1.3297,-1.4197,-1.5463,-1.6142,-1.8184,-2.1601,-2.1601,-2.2657,-2.4636,-2.4636,-2.4253,-2.3722,-2.4327,-2.3116,-2.0916,-2.35,-2.3426,-2.1826,-2.3796,-2.4636,-2.4636,-2.4636,-2.4636,-2.4636,-2.4636,-2.4636,-2.4636,-2.4636,-2.469,-2.4756,-2.4663,-2.4636,-2.4636,-2.4636,-2.4636,-2.4636,-2.4636,-2.4636,-2.4636,-2.4636,-2.4636,-2.5139,-2.707,-2.643,-2.6561,-3.0397,-3.1175,-3.1738,-3.3674,-3.4929,-3.5586,-3.5586,-3.5195,-3.4902,-3.4902,-3.4785,-3.459,-3.4297,-3.3984,-3.3574,-3.3027,-3.2988,-3.2851,-3.2559,-3.2422,-3.2363,-3.2363,-3.2226,-3.2229,-3.2229,-3.2229,-3.2229,-3.2229,-3.1855,-3.1719,-3.1699,-3.1406,-3.1269,-1.2264,-1.2732,-1.2929,-1.2773,-1.2176,-1.1389,0.0,-0.976,-0.8995,-0.8143,-0.7916,-0.7855,-0.7961,-0.7916,-0.7909,0.0,0.0,0.0,-0.9713,-1.0209,-1.0711,-1.1328,-1.166,-1.2013,-1.2467,-1.3051,-1.3403,-1.3403,-1.3403,-1.3336,-1.3186,-1.4929,-1.5074,-1.3036,-1.4837,-1.5657,-1.5463,-1.7512,-1.9553,-2.1601,-2.1601,-2.2657,-2.4636,-2.4636,-2.35,-2.1751,-2.3722,-2.236,-1.895,-2.2967,-2.3426,-2.1826,-2.3796,-2.4636,-2.4636,-2.4636,-2.4636,-2.4636,-2.4636,-2.4636,-2.4636,-2.4636,-2.4836,-2.5024,-2.473,-2.4636,-2.4636,-2.4636,-2.4636,-2.4636,-2.4636,-2.4636,-2.4636,-2.4636,-2.4636,-2.5139,-2.707,-2.7505,-2.8573,-3.2455,-3.317,-3.3743,-3.5655,-3.5947,-3.6016,-3.6016,-3.5664,-3.5391,-3.5391,-3.498,-3.4707,-3.4687,-3.4687,-3.4336,-3.3496,-3.3418,-3.3418,-3.3418,-3.3008,-3.2793,-3.2793,-3.2383,-3.2229,-3.2229,-3.2229,-3.2229,-3.2229,-3.2229,-3.2168,-3.2168,-3.2209,-3.2209,-1.105,-1.1579,-1.1932,-1.147,-1.1029,-1.0521,-0.9822,-0.9245,-0.8696,-0.8103,-0.7948,-0.7934,-0.7982,-0.7948,-0.8099,-0.8506,0.0,0.0,0.0,0.0,0.0,-1.1151,-1.2128,-1.2847,-1.3091,-1.3288,-1.3403,-1.3403,-1.3403,-1.4031,-1.5436,-1.5901,-1.5776,-1.4916,-1.673,-1.7655,-1.7588,-1.6828,-1.8184,-2.1601,-2.023,-2.1291,-2.4636,-2.4636,-2.4253,-2.3722,-2.4327,-2.236,-1.8874,-2.2967,-2.2583,-1.9854,-2.3264,-2.4636,-2.4636,-2.4636,-2.4636,-2.4636,-2.4636,-2.477,-2.4943,-2.4943,-2.513,-2.5358,-2.5264,-2.5104,-2.4903,-2.469,-2.4636,-2.4636,-2.4636,-2.4636,-2.4636,-2.4636,-2.4636,-2.5492,-2.8685,-2.8413,-2.8629,-3.2455,-3.317,-3.3378,-3.3951,-3.5158,-3.6016,-3.6016,-3.5898,-3.582,-3.582,-3.5684,-3.5488,-3.5195,-3.5176,-3.4941,-3.4336,-3.4023,-3.3867,-3.3867,-3.3457,-3.3223,-3.3223,-3.3105,-3.3027,-3.3027,-3.3027,-3.3027,-3.3027,-3.2734,-3.2441,-3.2229,-3.2229,-3.2229,-1.0304,-1.0839,-1.1192,-1.0812,-1.0412,-0.9978,-0.949,-0.8988,-0.8513,-0.8069,-0.7988,-0.7975,-0.7914,-0.7907,-0.7995,-0.8323,0.0,0.0,0.0,-0.968,-1.0283,-1.1145,-1.2189,-1.2922,-1.3125,-1.3302,-1.3403,-1.3403,-1.3403,-1.3969,-1.535,-1.6563,-1.7189,-1.7015,-1.8815,-1.9422,-1.8648,-1.7284,-1.7967,-2.0466,-1.9176,-2.0305,-2.3487,-2.4253,-2.4179,-2.35,-2.4253,-2.236,0.0,-2.2967,-2.2657,-2.008,-2.3339,-2.4636,-2.4649,-2.4756,-2.4796,-2.4823,-2.493,-2.509,-2.5237,-2.5237,-2.5371,-2.5531,-2.5651,-2.5478,-2.5184,-2.489,-2.4796,-2.4783,-2.4663,-2.4636,-2.4636,-2.4636,-2.4636,-2.5625,-2.9456,-2.8844,-2.8844,-3.3378,-3.3674,-3.3448,-3.4158,-3.5226,-3.6016,-3.6016,-3.6016,-3.6016,-3.6016,-3.6016,-3.5918,-3.5664,-3.5625,-3.5508,-3.5215,-3.4648,-3.4316,-3.4316,-3.4043,-3.3828,-3.3672,-3.3672,-3.3594,-3.3418,-3.3418,-3.3418,-3.3418,-3.3164,-3.2891,-3.2637,-3.2637,-3.2637,0.0,-1.0358,-1.0588,-1.0555,-1.0134,-0.9652,-0.9367,-0.8866,0.0,-0.8035,-0.7975,-0.7934,-0.7848,-0.7821,-0.7828,-0.7882,-0.814,-0.8593,-0.9173,-0.9632,-1.0331,-1.1362,-1.1999,-1.2467,-1.2752,-1.3152,-1.3403,-1.3403,-1.3562,-1.3721,-1.379,-1.7244,-1.9298,-1.9433,-2.0934,-2.0852,-1.8799,-1.8658,-1.8592,-1.8592,-1.8592,-1.965,-2.17,-2.3661,-2.3587,-2.1924,-2.3661,-2.2285,-1.9122,-2.2819,-2.3264,-2.1826,-2.3796,-2.4636,-2.4676,-2.497,-2.5077,-2.5117,-2.5411,-2.5531,-2.5545,-2.5571,-2.5571,-2.5625,-2.5905,-2.5758,-2.5451,-2.5184,-2.5117,-2.5037,-2.4743,-2.4676,-2.4663,-2.4636,-2.4636,-2.5625,-2.9456,-2.89,-2.9345,-3.4952,-3.459,-3.3951,-3.5743,-3.6016,-3.6016,-3.6016,-3.6016,-3.6016,-3.6016,-3.6016,-3.6016,-3.6016,-3.6016,-3.6016,-3.6016,-3.5234,-3.4746,-3.4746,-3.4726,-3.4531,-3.4141,-3.4121,-3.3926,-3.3516,-3.3516,-3.3516,-3.3516,-3.3516,-3.3516,-3.3516,-3.3516,-3.3496,-0.8676,0.0,-0.9273,-0.8933,-0.8825,-0.875,0.0,-0.8477,0.0,0.0,0.0,0.0,-0.7921,-0.7889,-0.7997,-0.8528,-0.8825,-0.9173,-0.9598,-1.0548,-1.1497,-1.2318,-1.2739,-1.3037,-1.3227,-1.3342,-1.3403,-1.3403,-1.4946,-1.6506,-1.7969,-2.0248,-2.2206,-2.3631,-2.2365,-2.1435,-2.0916,-1.9506,-1.8748,-1.8748,-1.8748,-1.983,-2.1819,-2.3751,-2.4459,-2.4194,-2.2905,-2.1857,-2.1265,-2.1984,-2.2049,-2.1826,-2.3796,-2.4636,-2.4676,-2.497,-2.5077,-2.5117,-2.5411,-2.5665,-2.5892,-2.6106,-2.6186,-2.6199,-2.6266,-2.5932,-2.5504,-2.5424,-2.5411,-2.5344,-2.505,-2.497,-2.4917,-2.469,-2.4636,-2.5625,-2.9456,-2.9955,-3.0892,-3.5158,-3.5655,-3.5451,-3.5947,-3.6016,-3.6016,-3.6016,-3.6016,-3.6016,-3.6016,-3.6016,-3.6016,-3.6016,-3.6016,-3.6016,-3.6016,-3.5527,-3.5234,-3.5234,-3.4902,-3.4648,-3.4551,-3.4551,-3.4512,-3.4394,-3.4394,-3.4394,-3.4394,-3.4394,-3.4394,-3.4394,-3.4394,-3.4219,-0.8167,-0.8547,-0.8811,-0.8554,-0.8526,-0.8547,0.0,0.0,0.0,0.0,0.0,0.0,0.0,0.0,0.0,-0.8554,-0.8872,-0.9374,-1.0304,-1.1172,-1.1993,-1.2745,-1.3037,-1.3234,-1.339,-1.3403,-1.3811,-1.4781,-1.5917,-1.7494,-1.9564,-2.1312,-2.2318,-2.2407,-2.1877,-2.1199,-2.0331,-1.8384,-1.6906,-1.5974,-1.6984,-1.8471,-2.0428,-2.2346,-2.3877,-2.4988,-2.3755,-2.338,-2.3617,-2.3342,-2.3229,-2.3292,-2.4232,-2.4636,-2.469,-2.5117,-2.5277,-2.5344,-2.5772,-2.6026,-2.6186,-2.6333,-2.6386,-2.6386,-2.6386,-2.6172,-2.5892,-2.5758,-2.5718,-2.5651,-2.5358,-2.5277,-2.5237,-2.5077,-2.5588,-2.6924,-2.9929,-3.1081,-3.2525,-3.5451,-3.6016,-3.6016,-3.6016,-3.6016,-3.6016,-3.6016,-3.6016,-3.6016,-3.6016,-3.6016,-3.6016,-3.6016,-3.6016,-3.6016,-3.6016,-3.5801,-3.5684,-3.5684,-3.5449,-3.5215,-3.5019,-3.5019,-3.4922,-3.4707,-3.4707,-3.4707,-3.4707,-3.4707,-3.4707,-3.4707,-3.4707,-3.457,-0.8069,-0.8494,-0.8913,-0.8669,-0.8628,-0.8601,0.0,0.0,0.0,0.0,0.0,0.0,0.0,-0.7923,0.0,-0.8404,-0.8872,-0.9693,-1.107,-1.1647,-1.2196,-1.2908,-1.3119,-1.3261,-1.339,-1.3728,-1.4623,-1.6483,-1.7211,-1.8426,-2.026,-2.1929,-2.1811,-1.9657,-2.0624,-2.02,-1.8367,-1.6674,-1.4899,-1.3197,-1.5282,-1.7279,-1.9153,-2.1164,-2.3192,-2.5077,-2.4763,-2.4935,-2.5491,-2.4935,-2.4878,-2.505,-2.4796,-2.4676,-2.4703,-2.5291,-2.5518,-2.5598,-2.6186,-2.6386,-2.6386,-2.6386,-2.6386,-2.6386,-2.6386,-2.6386,-2.6333,-2.6092,-2.6026,-2.5959,-2.5651,-2.5585,-2.5648,-2.59,-2.7012,-2.8633,-3.0865,-3.2436,-3.3927,-3.5849,-3.6211,-3.6211,-3.6211,-3.6152,-3.6113,-3.6113,-3.6055,-3.6016,-3.6016,-3.6016,-3.6016,-3.6016,-3.6016,-3.6016,-3.6016,-3.6016,-3.6016,-3.6016,-3.6016,-3.5859,-3.5508,-3.5488,-3.5312,-3.4902,-3.4902,-3.4902,-3.4902,-3.4902,-3.4902,-3.4902,-3.4902,-3.4863,-0.8506,-0.8859,-0.896,-0.8309,-0.8241,-0.8296,0.0,0.0,0.0,0.0,0.0,0.0,0.0,-0.8303,-0.8587,-0.9123,-0.9903,-1.0744,-1.1606,-1.2115,-1.2583,-1.3078,-1.3275,-1.3376,-1.3397,-1.5028,-1.6246,-1.6565,-2.0059,-2.2156,-2.227,-2.403,-2.3985,-2.1655,-1.9919,-1.815,-1.6285,-1.5983,-1.5671,-1.5368,-1.7371,-1.9357,-2.1387,-2.3304,-2.4499,-2.5002,-2.3215,-2.3605,-2.5352,-2.3652,-2.3744,-2.5077,-2.5024,-2.4863,-2.4703,-2.5291,-2.5518,-2.5598,-2.6186,-2.6386,-2.6386,-2.6386,-2.6386,-2.6386,-2.6386,-2.6386,-2.6373,-2.6333,-2.6319,-2.6253,-2.5959,-2.5892,-2.6275,-2.7813,-2.8297,-2.9505,-3.3154,-3.4126,-3.4894,-3.6739,-3.7109,-3.7109,-3.7109,-3.6797,-3.6562,-3.6562,-3.625,-3.6016,-3.6016,-3.6016,-3.6016,-3.6016,-3.6016,-3.6016,-3.6016,-3.6016,-3.6016,-3.6016,-3.6016,-3.5996,-3.5937,-3.5918,-3.5879,-3.582,-3.582,-3.582,-3.582,-3.582,-3.582,-3.582,-3.582,-3.5625,-0.8238,-0.8506,-0.8688,-0.8445,-0.8703,-0.8913,0.0,0.0,0.0,0.0,0.0,0.0,0.0,0.0,-0.9245,-1.0093,-1.0778,-1.1436,-1.2101,-1.244,-1.3181,-1.4845,-1.5057,-1.5597,-1.682,-1.7792,-1.8842,-2.0059,-2.2006,-2.3572,-2.4664,-2.4171,-2.2858,-2.0637,-1.8209,-1.6492,-1.5666,-1.5675,-1.5726,-1.5827,-1.7836,-1.9841,-2.1702,-2.257,-2.3728,-2.5077,-2.4072,-2.4378,-2.5428,-2.4329,-2.4352,-2.5064,-2.4903,-2.485,-2.4943,-2.5531,-2.5852,-2.6026,-2.6293,-2.6386,-2.6386,-2.6386,-2.6386,-2.6386,-2.6386,-2.7162,-2.7997,-2.7997,-2.7227,-2.636,-2.6226,-2.702,-2.8052,-2.8815,-3.0573,-3.251,-3.4286,-3.5388,-3.6257,-3.7144,-3.7305,-3.7305,-3.7305,-3.7148,-3.7012,-3.7012,-3.6836,-3.6621,-3.6406,-3.6367,-3.6289,-3.6035,-3.6016,-3.6016,-3.6016,-3.6016,-3.6016,-3.6016,-3.6016,-3.6016,-3.6016,-3.6016,-3.6016,-3.6016,-3.6016,-3.6016,-3.6016,-3.6016,-3.6016,-3.6016,-3.6016,-3.5918,-0.8116,-0.8255,-0.8384,0.0,0.0,0.0,-0.9123,0.0,0.0,0.0,0.0,0.0,0.0,-0.9395,-1.0046,-1.0887,-1.1511,-1.2006,-1.2535,-1.2739,-1.3764,-1.627,-1.6565,-1.7465,-1.9664,-2.0312,-2.1362,-2.298,-2.3081,-2.3775,-2.5477,-2.311,-2.0714,-1.868,-1.6549,-1.5463,-1.5463,-1.5998,-1.6527,-1.7143,-1.8748,-2.0493,-2.2285,-2.2285,-2.3304,-2.4983,-2.505,-2.5211,-2.5398,-2.5251,-2.5144,-2.5064,-2.4903,-2.5024,-2.5344,-2.5798,-2.6146,-2.6386,-2.6386,-2.6386,-2.6386,-2.6386,-2.6689,-2.7083,-2.7083,-2.853,-3.013,-3.013,-2.8983,-2.7841,-2.7841,-2.8983,-3.0207,-3.0731,-3.301,-3.5137,-3.5669,-3.6698,-3.7598,-3.7598,-3.7598,-3.7598,-3.7598,-3.7519,-3.7441,-3.7441,-3.7363,-3.7187,-3.6855,-3.6816,-3.668,-3.6348,-3.623,-3.6133,-3.6035,-3.6016,-3.6016,-3.6016,-3.6016,-3.6016,-3.6016,-3.6016,-3.6016,-3.6016,-3.6016,-3.6016,-3.6016,-3.6016,-3.6016,-3.6016,-3.6016,-3.6016,-0.8547,-0.8567,-0.8506,-0.8669,0.0,0.0,0.0,0.0,0.0,0.0,0.0,0.0,0.0,-1.0337,-1.0927,-1.1491,-1.206,-1.2556,-1.2881,-1.3051,-1.4009,-1.6295,-1.6565,-1.7465,-1.9664,-2.1684,-2.29,-2.306,-2.2996,-2.3012,-2.317,-2.0647,-1.8299,-1.6303,-1.5795,-1.5463,-1.5463,-1.7436,-1.9338,-2.1176,-2.1325,-2.2446,-2.4414,-2.4414,-2.4502,-2.469,-2.4957,-2.509,-2.513,-2.5384,-2.5317,-2.5104,-2.5358,-2.5638,-2.597,-2.5945,-2.6146,-2.6386,-2.6386,-2.6386,-2.6386,-2.6386,-2.7684,-2.9216,-2.9216,-3.0592,-3.2277,-3.2277,-3.2201,-3.2048,-3.2048,-3.2201,-3.2717,-3.4601,-3.5256,-3.5998,-3.7913,-3.8423,-3.8476,-3.8476,-3.8476,-3.8476,-3.8476,-3.8144,-3.7871,-3.7871,-3.7539,-3.7285,-3.7266,-3.7246,-3.7246,-3.7207,-3.6855,-3.6465,-3.6055,-3.6016,-3.6016,-3.6016,-3.6016,-3.6016,-3.6016,-3.6016,-3.6016,-3.6016,-3.6016,-3.6016,-3.6016,-3.6016,-3.6016,-3.6016,-3.6016,-3.6016,-0.8197,-0.8384,-0.854,-0.8791,0.0,0.0,0.0,0.0,0.0,-1.0555,-1.0541,0.0,-1.0449,-1.0907,-1.1369,-1.1823,-1.24,-1.2861,-1.3064,-1.4423,-1.6163,-1.8354,-1.8689,-1.9491,-2.1684,-2.243,-2.2885,-2.3128,-2.2831,-2.2733,-2.2898,-1.927,-1.6868,-1.6052,-1.4524,-1.4972,-1.7436,-1.8399,-2.0537,-2.3755,-2.3576,-2.387,-2.4636,-2.4636,-2.4636,-2.4649,-2.4756,-2.4796,-2.481,-2.4917,-2.501,-2.513,-2.5598,-2.5852,-2.605,-2.6159,-2.6293,-2.6386,-2.6386,-2.6386,-2.6623,-2.7841,-2.8764,-2.9666,-3.0977,-3.2717,-3.4376,-3.4376,-3.5291,-3.5682,-3.3188,-3.3398,-3.4526,-3.5348,-3.6497,-3.7639,-3.8428,-3.8574,-3.8574,-3.8574,-3.8574,-3.8574,-3.8574,-3.8437,-3.832,-3.832,-3.8203,-3.7988,-3.7715,-3.7676,-3.7598,-3.7324,-3.7148,-3.6894,-3.6465,-3.6426,-3.6309,-3.6035,-3.6016,-3.6016,-3.6016,-3.6016,-3.6016,-3.6016,-3.6016,-3.6016,-3.6016,-3.6016,-3.6016,-3.6016,-3.6016,-3.6016,-0.7941,-0.8113,-0.8343,0.0,0.0,0.0,0.0,0.0,0.0,0.0,-1.1328,-1.1089,-1.1089,-1.1328,-1.1613,-1.206,-1.2596,-1.303,-1.322,-1.519,-1.7138,-1.8689,-1.9501,-2.0473,-2.1925,-2.2578,-2.2634,-2.2155,-2.1705,-2.1335,-2.0795,-1.715,-1.5009,-1.4889,-1.3425,-1.4222,-1.7588,-1.8409,-2.0669,-2.4147,-2.4473,-2.469,-2.477,-2.4676,-2.4636,-2.4636,-2.4636,-2.4636,-2.4636,-2.4636,-2.4863,-2.5264,-2.5758,-2.6012,-2.6119,-2.6319,-2.6386,-2.6386,-2.6386,-2.6847,-2.7541,-2.8983,-3.0269,-3.159,-3.3171,-3.5096,-3.672,-3.6849,-3.7892,-3.8374,-3.5535,-3.5638,-3.6497,-3.6497,-3.7566,-3.8574,-3.8574,-3.8574,-3.8574,-3.8574,-3.8574,-3.8574,-3.8574,-3.8574,-3.8574,-3.8574,-3.8574,-3.8476,-3.8164,-3.8125,-3.7969,-3.7539,-3.75,-3.7324,-3.6894,-3.6875,-3.668,-3.625,-3.623,-3.6152,-3.6035,-3.6016,-3.6016,-3.6016,-3.6016,-3.6016,-3.6016,-3.6016,-3.6016,-3.6016,-3.6016,-3.6016,-0.7896,-0.7814,0.0,0.0,0.0,0.0,0.0,0.0,0.0,0.0,-1.1938,-1.1626,-1.1626,-1.1626,-1.1769,-1.2216,-1.2671,-1.3064,-1.3356,-1.5267,-1.6565,-1.6565,-1.8526,-1.9907,-1.9907,-2.1764,-2.2166,-1.9978,-1.9551,-1.8436,-1.6335,-1.3823,-1.2501,-1.2501,-1.2501,-1.3491,-1.554,-1.7588,-1.9746,-2.2053,-2.3789,-2.4796,-2.5064,-2.477,-2.4636,-2.4636,-2.4636,-2.4636,-2.4636,-2.4649,-2.4983,-2.5545,-2.5838,-2.6132,-2.6386,-2.6386,-2.6386,-2.6386,-2.6386,-2.7684,-2.9371,-2.9449,-3.2168,-3.5587,-3.6095,-3.7596,-3.9297,-3.9766,-3.9902,-3.9902,-3.9902,-3.9238,-3.8594,-3.8594,-3.8594,-3.8594,-3.8594,-3.8594,-3.8594,-3.8574,-3.8574,-3.8574,-3.8574,-3.8574,-3.8574,-3.8574,-3.8574,-3.8574,-3.8574,-3.8574,-3.8418,-3.7969,-3.793,-3.7754,-3.7344,-3.7305,-3.7129,-3.6699,-3.668,-3.6484,-3.6035,-3.6016,-3.6016,-3.6016,-3.6016,-3.6016,-3.6016,-3.6016,-3.6016,-3.6016,-3.6016,-3.6016,-0.7868,-0.8119,0.0,0.0,0.0,0.0,0.0,0.0,0.0,0.0,-1.2406,-1.2088,-1.2088,-1.2006,-1.204,-1.2386,-1.2732,-1.3064,-1.3356,-1.5267,-1.6565,-1.6565,-1.722,-1.7575,-1.7441,-1.7849,-1.7845,-1.7376,-1.6928,-1.6448,-1.6051,-1.3867,-1.261,-1.2508,-1.2603,-1.4299,-1.7663,-1.8495,-2.0757,-2.4443,-2.4987,-2.5197,-2.5064,-2.477,-2.4636,-2.4636,-2.4636,-2.4636,-2.4589,-2.5077,-2.5358,-2.5558,-2.6066,-2.6319,-2.6386,-2.6386,-2.6386,-2.6386,-2.6386,-2.7684,-2.9666,-3.113,-3.3585,-3.6285,-3.7858,-3.8966,-3.9726,-3.9863,-3.9902,-3.9902,-3.9902,-3.9707,-3.9512,-3.9512,-3.9512,-3.9512,-3.9512,-3.9512,-3.9414,-3.9082,-3.9004,-3.8926,-3.8633,-3.8574,-3.8574,-3.8574,-3.8574,-3.8574,-3.8574,-3.8574,-3.8535,-3.8398,-3.8379,-3.8203,-3.7773,-3.7734,-3.7559,-3.7148,-3.7109,-3.6777,-3.6055,-3.6016,-3.6016,-3.6016,-3.6016,-3.6016,-3.6016,-3.6016,-3.6016,-3.6016,-3.6016,-3.6016,-0.816,0.0,0.0,0.0,0.0,0.0,0.0,0.0,0.0,0.0,-1.2779,-1.2467,-1.2467,-1.2291,-1.225,-1.2542,-1.28,-1.3064,-1.3356,-1.5213,-1.622,-1.533,-1.591,-1.6071,-1.5176,-1.5696,-1.5781,-1.5003,-1.5437,-1.5391,-1.4735,-1.3361,-1.2596,-1.2508,-1.2589,-1.4129,-1.736,-1.8323,-2.0572,-2.4087,-2.4951,-2.5304,-2.5237,-2.4943,-2.481,-2.481,-2.469,-2.4636,-2.4676,-2.5277,-2.5518,-2.5571,-2.6159,-2.6386,-2.6386,-2.6386,-2.6386,-2.6386,-2.6386,-2.8232,-3.0839,-3.2288,-3.4854,-3.7652,-3.9235,-3.9922,-4.0176,-4.0351,-4.041,-4.041,-4.041,-4.041,-4.0312,-3.998,-3.9902,-3.9902,-3.9902,-3.9902,-3.9824,-3.9531,-3.9473,-3.9336,-3.8906,-3.8828,-3.8769,-3.8594,-3.8574,-3.8574,-3.8574,-3.8574,-3.8574,-3.8574,-3.8574,-3.8476,-3.8203,-3.8184,-3.8008,-3.7578,-3.7539,-3.7246,-3.6562,-3.6367,-3.6289,-3.6289,-3.6113,-3.6016,-3.6016,-3.6016,-3.6016,-3.6016,-3.6016,-3.6016,0.0,0.0,0.0,0.0,0.0,0.0,-1.5027,-1.4054,-1.3024,-1.3322,0.0,-1.2766,-1.2752,-1.2522,-1.242,-1.2684,-1.2847,-1.3037,-1.3322,-1.4934,-1.54,-1.3396,-1.4777,-1.5154,-1.3175,-1.4748,-1.5051,-1.3075,-1.4649,-1.4789,-1.2783,-1.2576,-1.2501,-1.2501,-1.2656,-1.3645,-1.5463,-1.7739,-1.9898,-2.2053,-2.4147,-2.5251,-2.5545,-2.5224,-2.5064,-2.5024,-2.4756,-2.4636,-2.4676,-2.5277,-2.5518,-2.5571,-2.6159,-2.6386,-2.6386,-2.6386,-2.6386,-2.6386,-2.6386,-2.8934,-3.2299,-3.2687,-3.5615,-3.9154,-3.9969,-4.0393,-4.0664,-4.1055,-4.1172,-4.1172,-4.1172,-4.1172,-4.0976,-4.0195,-4.0019,-4.0019,-4.0019,-4.0019,-4.0,-3.9961,-3.9961,-3.9805,-3.9336,-3.9258,-3.9121,-3.8691,-3.8633,-3.8613,-3.8574,-3.8574,-3.8574,-3.8574,-3.8574,-3.8574,-3.8574,-3.8574,-3.8398,-3.8008,-3.7988,-3.7812,-3.7422,-3.6973,-3.6719,-3.6719,-3.6348,-3.6113,-3.6074,-3.6074,-3.6055,-3.6016,-3.6016,-3.6016,0.0,0.0,0.0,0.0,0.0,0.0,-1.3184,-1.304,-1.2868,-1.3159,-1.3146,-1.3044,-1.2935,-1.2759,-1.2657,-1.2718,-1.2759,-1.284,-1.303,-1.3426,-1.3566,-1.3084,-1.345,-1.346,-1.2793,-1.3167,-1.3197,-1.2688,-1.3028,-1.3085,-1.2549,-1.2522,-1.2501,-1.2501,-1.4022,-1.5089,-1.5463,-1.9101,-2.1343,-2.2053,-2.4147,-2.5358,-2.5838,-2.5317,-2.4957,-2.473,-2.4663,-2.4636,-2.4676,-2.5277,-2.5518,-2.5571,-2.6159,-2.6386,-2.6386,-2.6386,-2.6386,-2.6386,-2.6386,-2.8153,-3.0465,-3.0541,-3.3803,-3.7723,-3.7906,-3.9389,-4.1055,-4.1152,-4.1172,-4.1172,-4.1172,-4.1172,-4.1133,-4.0937,-4.0898,-4.0898,-4.0898,-4.0898,-4.0801,-4.0449,-4.0391,-4.0254,-3.9824,-3.9746,-3.959,-3.9141,-3.9062,-3.8945,-3.8613,-3.8574,-3.8574,-3.8574,-3.8574,-3.8574,-3.8574,-3.8574,-3.8535,-3.8437,-3.8437,-3.8398,-3.8301,-3.7559,-3.7168,-3.7168,-3.707,-3.6855,-3.6523,-3.6523,-3.6348,-3.6016,-3.6016,-3.6016,0.0,0.0,0.0,0.0,0.0,0.0,0.0,-1.4142,-1.3941,-1.3168,-1.3024,-1.3024,-1.2874,-1.2786,-1.2732,-1.2732,-1.2732,-1.2786,-1.2942,-1.2895,-1.2854,-1.2854,-1.2786,-1.2712,-1.263,-1.2623,-1.2589,-1.2508,-1.2501,-1.2501,-1.2501,-1.2501,-1.2958,-1.3945,-1.4935,-1.6447,-1.8421,-2.0542,-2.2121,-2.3254,-2.4547,-2.5317,-2.5732,-2.5424,-2.505,-2.4636,-2.4636,-2.4636,-2.4676,-2.5117,-2.5384,-2.5558,-2.6012,-2.6266,-2.6386,-2.6386,-2.6386,-2.6386,-2.6386,-2.7973,-2.9972,-3.0121,-3.3424,-3.7355,-3.7535,-3.9284,-4.1172,-4.1172,-4.1172,-4.1172,-4.1172,-4.1172,-4.1172,-4.1172,-4.1172,-4.1172,-4.1172,-4.1172,-4.1113,-4.0879,-4.084,-4.0703,-4.0273,-4.0019,-3.9824,-3.957,-3.9531,-3.9375,-3.8926,-3.8887,-3.8789,-3.8594,-3.8574,-3.8574,-3.8574,-3.8574,-3.8574,-3.8574,-3.8574,-3.8574,-3.8574,-3.8144,-3.7812,-3.7598,-3.7402,-3.7187,-3.6973,-3.6973,-3.6855,-3.6621,-3.6621,-3.6621,0.0,0.0,0.0,0.0,0.0,0.0,0.0,-1.5358,-1.5163,-1.3077,-1.2834,-1.2915,-1.2759,-1.2961,-1.3183,-1.3155,-1.3461,-1.374,-1.3958,-1.3548,-1.3155,-1.3155,-1.2809,-1.2501,-1.2501,-1.2501,-1.2501,-1.2501,-1.2501,-1.2501,-1.2501,-1.2804,-1.3791,-1.5463,-1.6142,-1.8033,-2.1066,-2.1751,-2.2806,-2.4105,-2.4834,-2.5251,-2.5438,-2.5491,-2.5224,-2.4716,-2.4663,-2.4636,-2.4663,-2.4957,-2.5251,-2.5545,-2.5838,-2.6132,-2.6386,-2.6386,-2.6386,-2.64,-2.6453,-2.7741,-2.9536,-2.9924,-3.2874,-3.636,-3.6657,-3.8548,-4.0607,-4.0607,-4.0919,-4.1172,-4.1172,-4.1172,-4.1172,-4.1172,-4.1172,-4.1172,-4.1172,-4.1172,-4.1172,-4.1172,-4.1172,-4.1055,-4.0703,-4.0351,-4.0098,-4.0019,-4.0,-3.9844,-3.9375,-3.9316,-3.916,-3.873,-3.8691,-3.8652,-3.8574,-3.8574,-3.8574,-3.8574,-3.8574,-3.8574,-3.8574,-3.8574,-3.8398,-3.8047,-3.7695,-3.748,-3.7402,-3.7402,-3.7363,-3.7305,-3.7305,-3.7305,0.0,0.0,0.0,0.0,0.0,0.0,0.0,0.0,-1.4968,0.0,-1.2759,-1.2915,-1.2759,-1.4203,-1.531,-1.5146,-1.6644,-1.7788,-1.7816,-1.628,-1.5122,-1.5122,-1.3583,-1.2501,-1.2501,-1.2501,-1.2501,-1.2501,-1.2501,-1.2501,-1.2501,-1.4176,-1.5234,-1.5463,-1.895,-2.023,-1.9025,-2.2434,-2.3487,-2.2061,-2.4339,-2.5344,-2.5144,-2.5398,-2.5331,-2.501,-2.4743,-2.4636,-2.4663,-2.4957,-2.5251,-2.5545,-2.5838,-2.6132,-2.6386,-2.6386,-2.6386,-2.6426,-2.668,-2.7109,-2.7731,-2.7947,-2.9943,-3.2237,-3.2284,-3.5137,-3.831,-3.831,-3.9688,-4.1172,-4.1172,-4.1172,-4.1172,-4.1172,-4.1172,-4.1172,-4.1172,-4.1172,-4.1172,-4.1172,-4.1172,-4.1152,-4.1094,-4.1035,-4.0879,-4.0488,-4.043,-4.0273,-3.9863,-3.9805,-3.9629,-3.916,-3.9121,-3.8965,-3.8613,-3.8574,-3.8574,-3.8574,-3.8574,-3.8574,-3.8574,-3.8574,-3.8555,-3.8496,-3.8437,-3.8223,-3.7832,-3.7832,-3.7656,-3.7305,-3.7305,-3.7305,0.0,0.0,0.0,0.0,0.0,0.0,0.0,0.0,-1.374,-1.3885,-1.3317,-1.2684,-1.2617,-1.329,-1.4268,-1.5327,-1.6294,-1.6828,-1.6828,-1.6066,-1.5081,-1.3945,-1.4022,-1.3722,-1.2579,-1.4552,-1.4935,-1.2656,-1.3568,-1.4176,-1.4176,-1.5012,-1.6523,-1.8874,-2.0692,-2.1751,-2.1975,-2.3722,-2.4179,-2.3277,-2.4599,-2.5197,-2.5077,-2.5211,-2.5197,-2.5064,-2.477,-2.4636,-2.4663,-2.4957,-2.5251,-2.5545,-2.5838,-2.6132,-2.6386,-2.6386,-2.6386,-2.6426,-2.672,-2.7014,-2.7308,-2.7602,-3.0248,-3.3267,-3.3267,-3.6281,-3.9786,-3.9786,-4.0431,-4.1172,-4.1172,-4.1172,-4.1172,-4.1172,-4.1172,-4.1172,-4.1172,-4.1172,-4.1172,-4.1172,-4.1172,-4.1172,-4.1172,-4.1172,-4.1113,-4.0918,-4.0879,-4.0723,-4.0293,-4.0254,-4.0078,-3.9629,-3.959,-3.9512,-3.9336,-3.9316,-3.9316,-3.9316,-3.9062,-3.8926,-3.8926,-3.8691,-3.8574,-3.8574,-3.8574,-3.8476,-3.8281,-3.8281,-3.8203,-3.8008,-3.8008,-3.8008,0.0,0.0,0.0,0.0,0.0,0.0,0.0,0.0,-1.3424,-1.4752,-1.4036,-1.2991,-1.2463,-1.2909,-1.3722,-1.5234,-1.5922,-1.6294,-1.6294,-1.5845,-1.4935,-1.3414,-1.4512,-1.4786,-1.3279,-1.633,-1.6898,-1.3366,-1.4541,-1.5396,-1.5464,-1.5963,-1.7891,-2.1527,-2.1601,-2.2583,-2.4562,-2.4636,-2.4636,-2.4562,-2.4943,-2.5077,-2.5077,-2.5077,-2.5077,-2.5064,-2.477,-2.4636,-2.4663,-2.4957,-2.5251,-2.5545,-2.5838,-2.6132,-2.6386,-2.6386,-2.644,-2.6547,-2.6841,-2.7134,-2.7511,-2.8359,-3.0636,-3.3283,-3.4327,-3.694,-3.9707,-4.0197,-4.0763,-4.1172,-4.1172,-4.1172,-4.1172,-4.1172,-4.1172,-4.1172,-4.1172,-4.1172,-4.1172,-4.1172,-4.1172,-4.1172,-4.1172,-4.1172,-4.1172,-4.1172,-4.1172,-4.1055,-4.0723,-4.0684,-4.0527,-4.0098,-4.0059,-4.0019,-3.9902,-3.9902,-3.9902,-3.9902,-3.957,-3.9375,-3.9375,-3.9082,-3.8906,-3.8906,-3.8789,-3.8691,-3.8574,-3.8574,-3.8574,-3.8574,-3.8574,-3.8574,0.0,0.0,0.0,0.0,0.0,0.0,0.0,0.0,-1.4933,-1.4925,-1.4933,-1.4366,-1.2454,-1.3884,-1.5387,-1.5463,-1.7132,-1.8421,-1.8421,-1.6751,-1.5463,-1.5387,-1.5236,-1.5052,-1.4977,-1.6666,-1.6921,-1.4942,-1.4952,-1.5202,-1.5269,-1.7322,-1.9403,-2.1527,-2.1601,-2.2583,-2.4562,-2.4636,-2.4636,-2.4562,-2.4943,-2.5077,-2.5077,-2.5077,-2.5077,-2.5064,-2.477,-2.4636,-2.4663,-2.4957,-2.5251,-2.5545,-2.5838,-2.6132,-2.6386,-2.6386,-2.656,-2.6841,-2.7134,-2.7428,-2.8041,-3.0461,-3.001,-2.9286,-3.3431,-3.4813,-3.5477,-3.7498,-3.961,-4.1172,-4.1172,-4.1172,-4.1172,-4.1172,-4.1172,-4.1172,-4.1172,-4.1172,-4.1172,-4.1172,-4.1172,-4.1172,-4.1172,-4.1172,-4.1172,-4.1172,-4.1172,-4.1172,-4.1152,-4.1133,-4.0976,-4.0527,-4.0488,-4.0332,-3.9922,-3.9902,-3.9902,-3.9902,-3.9883,-3.9863,-3.9863,-3.9844,-3.9824,-3.9824,-3.9394,-3.8965,-3.8574,-3.8574,-3.8574,-3.8574,-3.8574,-3.8574,0.0,0.0,0.0,0.0,0.0,0.0,-1.3286,-1.4223,-1.4635,-1.4555,-1.4821,-1.4399,-1.2426,-1.2742,-1.371,-1.5043,-1.5856,-1.6378,-1.6378,-1.674,-1.6582,-1.5251,-1.7266,-1.8173,-1.6923,-1.9715,-1.9732,-1.5276,-1.614,-1.6914,-1.6987,-1.6555,-1.7922,-2.1269,-2.1429,-2.2485,-2.4562,-2.4636,-2.4636,-2.4636,-2.4743,-2.4796,-2.4796,-2.4796,-2.4796,-2.4783,-2.469,-2.4636,-2.4676,-2.5157,-2.5424,-2.5558,-2.6039,-2.6306,-2.6386,-2.6386,-2.6573,-2.6867,-2.7161,-2.7455,-2.8068,-3.0559,-3.1805,-3.2956,-3.5863,-3.7737,-3.904,-3.9786,-4.078,-4.1582,-4.1582,-4.1777,-4.1973,-4.1973,-4.1973,-4.1973,-4.1973,-4.1562,-4.1172,-4.1172,-4.1172,-4.1172,-4.1172,-4.1172,-4.1172,-4.1172,-4.1172,-4.1172,-4.1172,-4.1172,-4.1113,-4.0957,-4.0937,-4.0879,-4.0723,-4.0723,-4.0723,-4.0723,-4.0449,-4.0293,-4.0293,-4.0039,-3.9902,-3.9902,-3.9726,-3.9434,-3.8965,-3.8711,-3.8574,-3.8574,-3.8574,-3.8574,-0.7034,0.0,0.0,0.0,0.0,0.0,-1.2753,-1.3194,-1.3263,-1.4056,-1.4491,-1.4293,-1.3058,-1.3359,-1.3838,-1.4096,-1.4629,-1.5064,-1.5064,-1.6663,-1.7321,-1.6003,-1.8642,-2.0052,-1.8672,-2.1564,-2.129,-1.6094,-1.6957,-1.7504,-1.6923,-1.5756,-1.6693,-2.0088,-2.099,-2.2165,-2.3574,-2.4253,-2.4636,-2.4636,-2.4636,-2.4636,-2.4636,-2.4636,-2.4636,-2.4636,-2.4636,-2.4636,-2.4676,-2.5277,-2.5518,-2.5571,-2.6159,-2.6386,-2.64,-2.6493,-2.672,-2.7014,-2.7308,-2.7602,-2.837,-3.1497,-3.3022,-3.4246,-3.7896,-3.9625,-4.0466,-4.1211,-4.168,-4.2012,-4.2012,-4.2207,-4.2422,-4.2422,-4.2422,-4.2422,-4.2422,-4.1992,-4.1601,-4.1601,-4.1484,-4.1387,-4.1387,-4.1269,-4.1172,-4.1172,-4.1172,-4.1172,-4.1172,-4.1172,-4.1172,-4.1172,-4.1172,-4.1172,-4.1172,-4.1172,-4.1172,-4.1172,-4.0898,-4.0742,-4.0742,-4.0469,-4.0332,-4.0332,-4.0176,-3.9961,-3.9648,-3.9219,-3.9023,-3.9023,-3.8867,-3.8711,0.0,0.0,0.0,0.0,0.0,0.0,-1.262,0.0,-1.1041,-1.3494,-1.4122,-1.4301,-1.4373,-1.5901,-1.6112,-1.2727,-1.3726,-1.4965,-1.4965,-1.6571,-1.7749,-1.7749,-1.9294,-2.0368,-2.0368,-2.1899,-2.1308,-1.7458,-1.7369,-1.6702,-1.4992,-1.5108,-1.6176,-1.8282,-2.0471,-2.1601,-2.1676,-2.3648,-2.4636,-2.4636,-2.4636,-2.4636,-2.4636,-2.4636,-2.4636,-2.4636,-2.4636,-2.4636,-2.4676,-2.5277,-2.5518,-2.5571,-2.6159,-2.6386,-2.6426,-2.6707,-2.7014,-2.7308,-2.7602,-2.798,-2.8964,-3.3267,-3.3267,-3.2776,-3.9216,-3.999,-3.9054,-4.1224,-4.2129,-4.2441,-4.2461,-4.2461,-4.2461,-4.2461,-4.2461,-4.2461,-4.2461,-4.2461,-4.2461,-4.2422,-4.209,-4.1816,-4.1816,-4.1484,-4.1211,-4.1211,-4.1211,-4.1191,-4.1191,-4.1172,-4.1172,-4.1172,-4.1172,-4.1172,-4.1172,-4.1172,-4.1172,-4.1172,-4.1172,-4.1172,-4.1172,-4.1172,-4.1172,-4.1172,-4.0762,-4.0547,-4.0547,-4.0098,-3.9902,-3.9883,-3.9434,-3.9004,-0.6681,0.0,0.0,0.0,0.0,0.0,-0.9475,-1.0477,-1.1569,-1.2906,-1.4216,-1.4897,-1.4096,-1.5584,-1.6202,-1.4019,-1.5275,-1.6577,-1.6577,-1.8209,-1.9419,-1.9419,-2.1053,-2.2207,-2.2207,-2.2625,-2.1308,-1.7458,-1.7238,-1.649,-1.4651,-1.6185,-1.8071,-2.0111,-2.1133,-2.2285,-2.3722,-2.4327,-2.4636,-2.4636,-2.4636,-2.4636,-2.4636,-2.4636,-2.4636,-2.4636,-2.4636,-2.4636,-2.4676,-2.5277,-2.5518,-2.5571,-2.6159,-2.6386,-2.6426,-2.6707,-2.7014,-2.7308,-2.7602,-2.8938,-3.0993,-3.3757,-3.5298,-3.6815,-4.054,-4.1285,-4.1103,-4.1989,-4.2558,-4.2969,-4.3262,-4.3359,-4.3359,-4.3359,-4.3359,-4.3359,-4.3359,-4.3359,-4.3164,-4.2539,-4.2344,-4.2246,-4.2246,-4.2148,-4.207,-4.207,-4.1816,-4.1621,-4.1621,-4.1367,-4.1172,-4.1172,-4.1172,-4.1172,-4.1172,-4.1172,-4.1172,-4.1172,-4.1172,-4.1172,-4.1172,-4.1172,-4.1172,-4.1172,-4.1055,-4.0996,-4.0996,-4.0254,-3.9902,-3.9883,-3.9766,-3.9648,-0.6871,-0.7054,-0.7314,-0.7435,0.0,0.0,-0.849,-0.9467,-1.045,-1.1462,-1.3181,-1.4317,-1.3776,-1.5336,-1.636,-1.5351,-1.6284,-1.7426,-1.8288,-2.0051,-2.1252,-2.1252,-2.2229,-2.2928,-2.2928,-2.2928,-2.1308,-1.7458,-1.7178,-1.6404,-1.4503,-1.6654,-1.884,-2.0814,-2.1331,-2.2583,-2.4562,-2.4636,-2.4636,-2.4636,-2.4636,-2.4636,-2.4636,-2.4636,-2.4636,-2.4636,-2.4636,-2.4636,-2.4676,-2.5277,-2.5518,-2.5571,-2.6159,-2.6386,-2.644,-2.6854,-2.7121,-2.7321,-2.7736,-2.8896,-3.0592,-3.3676,-3.5642,-3.7445,-4.081,-4.2051,-4.2383,-4.2637,-4.3008,-4.3398,-4.3633,-4.3711,-4.3711,-4.3711,-4.3711,-4.3711,-4.3711,-4.3711,-4.3555,-4.3047,-4.2812,-4.2695,-4.2695,-4.2539,-4.2422,-4.2422,-4.2207,-4.207,-4.207,-4.1699,-4.1426,-4.1426,-4.1269,-4.1172,-4.1172,-4.1172,-4.1172,-4.1172,-4.1172,-4.1172,-4.1172,-4.1172,-4.1172,-4.1172,-4.1172,-4.1172,-4.1172,-4.0684,-4.0332,-4.0156,-4.0156,-4.0059,-0.7078,-0.7305,-0.7678,-0.786,-0.7449,0.0,-0.8675,-0.8579,-0.8538,-0.9849,-1.1577,-1.2907,-1.3302,-1.506,-1.6392,-1.6175,-1.6603,-1.766,-1.9761,-2.1365,-2.2435,-2.2859,-2.2722,-2.2654,-2.2859,-2.2722,-2.1101,-1.7458,-1.7037,-1.6333,-1.5132,-1.7067,-1.9109,-2.1186,-2.1676,-2.2781,-2.4562,-2.4636,-2.4636,-2.4636,-2.4636,-2.4636,-2.4636,-2.4636,-2.4636,-2.4636,-2.4636,-2.4636,-2.4676,-2.5277,-2.5518,-2.5571,-2.6159,-2.6386,-2.6453,-2.7054,-2.7268,-2.7348,-2.802,-2.8389,-2.9202,-3.3349,-3.5144,-3.6426,-4.0607,-4.2441,-4.3086,-4.3125,-4.3418,-4.3711,-4.3711,-4.3711,-4.3711,-4.3711,-4.3711,-4.3711,-4.3711,-4.3711,-4.3711,-4.3711,-4.3398,-4.3144,-4.3144,-4.2832,-4.2558,-4.2558,-4.2519,-4.25,-4.25,-4.2129,-4.1875,-4.1875,-4.1543,-4.1308,-4.1308,-4.1308,-4.1308,-4.1308,-4.1308,-4.1308,-4.1308,-4.1269,-4.125,-4.125,-4.1191,-4.1172,-4.1172,-4.1172,-4.0976,-4.0586,-4.0586,-4.0391,-0.7556,-0.7617,-0.7726,-0.755,-0.757,0.0,-0.7407,-0.7461,-0.8177,-1.0267,-1.0924,-1.1354,-1.2151,-1.4052,-1.4983,-1.3481,-1.5027,-1.7246,-1.9572,-1.8943,-1.9426,-2.2503,-2.1596,-2.1252,-2.2722,-2.1527,-1.9704,-1.7388,-1.5769,-1.6122,-1.8857,-1.9628,-2.0971,-2.3171,-2.351,-2.3943,-2.4562,-2.4636,-2.4636,-2.4636,-2.4636,-2.4636,-2.4636,-2.4636,-2.4636,-2.4636,-2.4636,-2.4636,-2.4676,-2.5277,-2.5518,-2.5571,-2.6159,-2.6386,-2.6453,-2.7054,-2.7268,-2.7348,-2.802,-2.937,-3.1241,-3.3839,-3.6119,-3.8446,-4.1369,-4.2676,-4.3144,-4.3496,-4.3633,-4.3711,-4.3711,-4.3711,-4.3711,-4.3711,-4.3711,-4.3711,-4.3711,-4.3711,-4.3711,-4.3711,-4.3633,-4.3574,-4.3574,-4.3516,-4.3457,-4.3457,-4.3164,-4.2949,-4.2949,-4.2578,-4.2305,-4.2305,-4.2226,-4.2187,-4.2187,-4.2187,-4.2187,-4.2187,-4.2187,-4.2187,-4.2187,-4.1855,-4.168,-4.168,-4.1348,-4.1172,-4.1172,-4.1172,-4.1133,-4.1055,-4.1055,-4.0996,-0.7828,-0.7814,-0.7909,-0.7834,-0.7706,0.0,0.0,-0.7482,-0.7837,-0.9388,-0.9493,-0.9497,-1.0225,-1.1229,-1.1719,-1.0904,-1.2117,-1.3888,-1.6056,-1.7494,-1.9323,-2.2149,-2.0841,-2.0539,-2.2483,-2.104,-1.9565,-1.8718,-1.7739,-1.8089,-1.9982,-2.1233,-2.2518,-2.3754,-2.4048,-2.4342,-2.4636,-2.4636,-2.4636,-2.4636,-2.4636,-2.4636,-2.4636,-2.4636,-2.4636,-2.4636,-2.4636,-2.4716,-2.489,-2.5331,-2.5598,-2.5772,-2.6213,-2.6386,-2.6453,-2.7054,-2.7268,-2.7348,-2.802,-2.888,-3.0343,-3.3594,-3.5831,-3.7883,-4.1342,-4.2871,-4.3437,-4.3652,-4.3711,-4.3711,-4.3711,-4.3711,-4.3711,-4.3711,-4.3711,-4.3711,-4.3711,-4.3711,-4.3711,-4.3711,-4.3711,-4.3711,-4.3711,-4.3711,-4.3711,-4.3711,-4.3535,-4.3398,-4.3398,-4.3008,-4.2754,-4.2754,-4.2558,-4.2422,-4.2422,-4.2422,-4.2422,-4.2422,-4.2422,-4.2422,-4.2422,-4.2226,-4.2109,-4.2109,-4.1914,-4.1699,-4.1484,-4.1484,-4.1387,-4.1172,-4.1172,-4.1172,-0.8228,-0.8201,-0.8323,-0.8248,-0.797,-0.7815,0.0,0.0,0.0,-0.8153,-0.8099,-0.8022,-0.8465,-0.856,-0.8642,-0.8879,-0.9381,-1.0439,-1.2294,-1.5701,-1.8694,-2.0629,-1.934,-1.9072,-2.1047,-1.9594,-1.8755,-1.9393,-1.9404,-1.9542,-2.0038,-2.2077,-2.3407,-2.3754,-2.3995,-2.4289,-2.4636,-2.4636,-2.4636,-2.4636,-2.4636,-2.4636,-2.4636,-2.4636,-2.4636,-2.4636,-2.4636,-2.481,-2.5104,-2.5398,-2.5692,-2.6063,-2.6279,-2.6386,-2.6453,-2.7054,-2.7268,-2.7348,-2.802,-2.8221,-2.888,-3.2792,-3.5212,-3.7322,-4.1447,-4.3164,-4.3711,-4.3711,-4.3711,-4.3711,-4.3711,-4.3711,-4.3711,-4.3711,-4.3711,-4.3711,-4.3711,-4.3711,-4.3711,-4.3711,-4.3711,-4.3711,-4.3711,-4.3711,-4.3711,-4.3711,-4.3711,-4.3711,-4.3711,-4.3418,-4.3203,-4.3203,-4.2891,-4.2676,-4.2676,-4.2676,-4.2676,-4.2676,-4.2676,-4.2676,-4.2676,-4.2598,-4.2519,-4.2422,-4.2422,-4.2266,-4.1914,-4.1914,-4.166,-4.1172,-4.1172,-4.1172,-0.9187,-0.9211,-0.9211,-0.8244,-0.8513,-0.8675,-0.7366,0.0,-0.7712,-0.7583,0.0,-0.7706,-0.7882,0.0,0.0,-0.7814,-0.8391,-0.9403,-1.1053,-1.2208,-1.3758,-1.6312,-1.5174,-1.495,-1.6882,-1.5206,-1.4885,-1.6824,-1.6894,-1.7719,-1.9731,-2.1838,-2.318,-2.3754,-2.3808,-2.4088,-2.4636,-2.4636,-2.4636,-2.4636,-2.4636,-2.4636,-2.4636,-2.4636,-2.4636,-2.4636,-2.4636,-2.481,-2.5104,-2.5398,-2.5692,-2.6063,-2.6279,-2.6386,-2.6453,-2.7054,-2.7268,-2.7348,-2.802,-2.8221,-2.8642,-3.0993,-3.4966,-3.9459,-4.2562,-4.3633,-4.3711,-4.3711,-4.3711,-4.3711,-4.3711,-4.3711,-4.3711,-4.3711,-4.3711,-4.3711,-4.3711,-4.3711,-4.3711,-4.3711,-4.3711,-4.3711,-4.3711,-4.3711,-4.3711,-4.3711,-4.3711,-4.3711,-4.3711,-4.3672,-4.3633,-4.3633,-4.3594,-4.3555,-4.3555,-4.3555,-4.3555,-4.3555,-4.3555,-4.3555,-4.3555,-4.3203,-4.2812,-4.2441,-4.2422,-4.2402,-4.2363,-4.2363,-4.1953,-4.1172,-4.1172,-4.1172,-0.9171,-0.9184,-0.9198,-0.8581,-0.8533,-0.8431,-0.7624,-0.7502,-0.7543,-0.7509,0.0,0.0,0.0,0.0,0.0,0.0,-0.8004,-0.8552,-0.9186,-0.9609,-1.1177,-1.4717,-1.3589,-1.2984,-1.4066,-1.4663,-1.5376,-1.6439,-1.7258,-1.8296,-1.9606,-2.1543,-2.2966,-2.3741,-2.3768,-2.4048,-2.4549,-2.4636,-2.4636,-2.4636,-2.4636,-2.4636,-2.4636,-2.4636,-2.4636,-2.4649,-2.4823,-2.5064,-2.5358,-2.5651,-2.5945,-2.6226,-2.6346,-2.6493,-2.6694,-2.7108,-2.7375,-2.7575,-2.8073,-2.8221,-2.8851,-3.2745,-3.7366,-4.1732,-4.3269,-4.3711,-4.3711,-4.3711,-4.3711,-4.3711,-4.3711,-4.3711,-4.3711,-4.3711,-4.3711,-4.3711,-4.3711,-4.3711,-4.3711,-4.3711,-4.3711,-4.3711,-4.3711,-4.3711,-4.3711,-4.3711,-4.3711,-4.3711,-4.3711,-4.3711,-4.3711,-4.3711,-4.3711,-4.3711,-4.3711,-4.3711,-4.3711,-4.3711,-4.3711,-4.3711,-4.3711,-4.3535,-4.3359,-4.3164,-4.3164,-4.3047,-4.2812,-4.2812,-4.25,-4.1894,-4.1894,-4.1777,-0.9456,-0.9408,-0.9439,-0.8791,-0.852,-0.8269,-0.7801,-0.7617,-0.7597,-0.7753,-0.776,0.0,0.0,0.0,-0.7617,0.0,0.0,-0.7901,-0.7868,-0.795,-0.9246,-1.2484,-1.1786,-1.1368,-1.229,-1.3393,-1.443,-1.5266,-1.6724,-1.7929,-1.8726,-2.0993,-2.2752,-2.3741,-2.3768,-2.4048,-2.4549,-2.4636,-2.4636,-2.4636,-2.4636,-2.4636,-2.4636,-2.4636,-2.4636,-2.4649,-2.4957,-2.5251,-2.5531,-2.5838,-2.6132,-2.6386,-2.6386,-2.6613,-2.6974,-2.7188,-2.7455,-2.7749,-2.8043,-2.8683,-2.9986,-3.4426,-3.8743,-4.239,-4.3409,-4.3711,-4.3711,-4.3711,-4.3711,-4.3711,-4.3711,-4.3711,-4.3711,-4.3711,-4.3711,-4.3711,-4.3711,-4.3711,-4.3711,-4.3711,-4.3711,-4.3711,-4.3711,-4.3711,-4.3711,-4.3711,-4.3711,-4.3711,-4.3711,-4.3711,-4.3711,-4.3711,-4.3711,-4.3711,-4.3711,-4.3711,-4.3711,-4.3711,-4.3711,-4.3711,-4.3711,-4.3711,-4.3711,-4.3711,-4.3711,-4.3555,-4.3242,-4.3242,-4.3086,-4.2773,-4.2539,-4.2266,-1.0365,-1.0337,-1.0134,-0.8818,-0.8594,-0.8465,-0.7584,-0.7712,-0.8015,-0.8214,-0.8472,-0.8621,-0.8479,-0.8336,-0.8099,0.0,0.0,0.0,0.0,-0.7446,-0.7719,-0.8438,-0.879,-0.9717,-1.166,-1.0069,-0.995,-1.2354,-1.3877,-1.5304,-1.6657,-2.0096,-2.2539,-2.3728,-2.3768,-2.4048,-2.4549,-2.4636,-2.4636,-2.4636,-2.4636,-2.4636,-2.4636,-2.4636,-2.4636,-2.4649,-2.4957,-2.5251,-2.5531,-2.5838,-2.6132,-2.6386,-2.6386,-2.6747,-2.7255,-2.7268,-2.7455,-2.7749,-2.8043,-2.9804,-3.2335,-3.5008,-3.773,-4.04,-4.2958,-4.3711,-4.3711,-4.3711,-4.3711,-4.3711,-4.3711,-4.3711,-4.3711,-4.3711,-4.3711,-4.3711,-4.3711,-4.3711,-4.3711,-4.3711,-4.3711,-4.3711,-4.3711,-4.3711,-4.3711,-4.3711,-4.3711,-4.3711,-4.3711,-4.3711,-4.3711,-4.3711,-4.3711,-4.3711,-4.3711,-4.3711,-4.3711,-4.3711,-4.3711,-4.3711,-4.3711,-4.3711,-4.3711,-4.3711,-4.3711,-4.3691,-4.3691,-4.3691,-4.3672,-4.3652,-4.2812,-4.2422,-1.0819,-1.0826,-1.0683,-0.9632,-0.9259,-0.892,-0.8018,-0.8085,-0.8323,-0.8282,-0.8716,-0.8899,-0.8547,-0.8445,-0.8262,0.0,0.0,0.0,0.0,-0.7136,-0.719,-0.7489,-0.8099,-0.8734,-0.9242,-0.9004,-0.9224,-1.0206,-1.2851,-1.4959,-1.6072,-1.9714,-2.2245,-2.3434,-2.3661,-2.4048,-2.4549,-2.4636,-2.4636,-2.4636,-2.4636,-2.4636,-2.4636,-2.4636,-2.4743,-2.4943,-2.5237,-2.5531,-2.5825,-2.6119,-2.6306,-2.6413,-2.66,-2.6921,-2.7268,-2.7268,-2.7575,-2.8043,-2.835,-3.1116,-3.4758,-3.5888,-3.905,-4.257,-4.3405,-4.3711,-4.3711,-4.3711,-4.3711,-4.3711,-4.3711,-4.3711,-4.3711,-4.3711,-4.3711,-4.3711,-4.3711,-4.3711,-4.3711,-4.3711,-4.3711,-4.3711,-4.3711,-4.3711,-4.3711,-4.3711,-4.3711,-4.3711,-4.3711,-4.3711,-4.3711,-4.3711,-4.3711,-4.3711,-4.3711,-4.3711,-4.3711,-4.3711,-4.3711,-4.3711,-4.3711,-4.3711,-4.3711,-4.3711,-4.3711,-4.3711,-4.3711,-4.3711,-4.3711,-4.3691,-4.3418,-4.3125,-1.1199,-1.1212,-1.1124,-1.027,-0.9917,-0.9557,-0.871,-0.8791,-0.9001,-0.8852,-0.9123,-0.9334,-0.9157,-0.8859,-0.8533,0.0,0.0,0.0,0.0,-0.691,-0.6937,-0.7078,-0.7665,-0.8052,-0.8113,-0.8531,-0.9068,-0.9673,-1.2593,-1.4917,-1.6212,-1.9537,-2.1937,-2.3126,-2.3554,-2.4048,-2.4549,-2.4636,-2.4636,-2.4636,-2.4636,-2.4636,-2.4636,-2.4636,-2.4796,-2.509,-2.5384,-2.5678,-2.605,-2.6266,-2.6386,-2.6413,-2.6707,-2.7001,-2.7281,-2.7375,-2.7722,-2.8345,-2.9393,-3.2432,-3.6108,-3.7266,-4.037,-4.3711,-4.3711,-4.3711,-4.3711,-4.3711,-4.3711,-4.375,-4.3906,-4.3945,-4.3984,-4.4141,-4.418,-4.418,-4.418,-4.418,-4.418,-4.418,-4.418,-4.418,-4.418,-4.418,-4.4062,-4.375,-4.3711,-4.3711,-4.3711,-4.3711,-4.3711,-4.3711,-4.3711,-4.3711,-4.3711,-4.3711,-4.3711,-4.3711,-4.3711,-4.3711,-4.3711,-4.3711,-4.3711,-4.3711,-4.3711,-4.3711,-4.3711,-4.3711,-4.3711,-4.3711,-4.3711,-4.3555]}]]